[[{"header":{"parameterUnit":"m.s-1","parameterCategory":1,"la1":31.0,"la2":29.5877,"lo1":-88.7671,"lo2":-86.6584,"dy":0.0162,"dx":0.0185,"nx":115,"ny":88,"refTime":"2024-08-22T12:00:00:Z","depth":0,"parameterNumber":2,"parameterNumberName":"U-component_of_WINDS"},"data":[0.0,0.0,0.0,0.0,0.0,0.0,0.0,0.0,0.0,0.0,0.0,0.0,0.0,0.0,0.0,0.0,0.0,0.0,0.0,0.0,0.0,0.0,0.0,0.0,0.0,0.0,0.0,0.0,0.0,0.0,0.0,0.0,0.0,0.0,0.0,0.0,0.0,0.0,0.0,0.0,0.0,0.0,0.0,0.0,0.0,0.0,0.0,0.0,0.0,0.0,0.0,0.0,0.0,0.0,0.0,0.0,0.0,0.0,0.0,0.0,0.0,0.0,0.0,0.0,0.0,0.0,0.0,0.0,0.0,0.0,0.0,0.0,0.0,0.0,0.0,0.0,0.0,0.0,0.0,0.0,0.0,0.0,0.0,0.0,0.0,0.0,0.0,0.0,0.0,0.0,0.0,0.0,0.0,0.0,0.0,0.0,0.0,0.0,0.0,0.0,0.0,0.0,0.0,0.0,0.0,0.0,0.0,0.0,0.0,0.0,0.0,0.0,0.0,0.0,0.0,0.0,0.0,0.0,0.0,0.0,0.0,0.0,0.0,0.0,0.0,0.0,0.0,0.0,0.0,0.0,0.0,0.0,0.0,0.0,0.0,0.0,0.0,0.0,0.0,0.0,0.0,0.0,0.0,0.0,0.0,0.0,0.0,0.0,0.0,0.0,0.0,0.0,0.0,0.0,0.0,0.0,0.0,0.0,0.0,0.0,0.0,0.0,0.0,0.0,0.0,0.0,0.0,0.0,0.0,0.0,0.0,0.0,0.0,0.0,0.0,0.0,0.0,0.0,0.0,0.0,0.0,0.0,0.0,0.0,0.0,0.0,0.0,0.0,0.0,0.0,0.0,0.0,0.0,0.0,0.0,0.0,0.0,0.0,0.0,0.0,0.0,0.0,0.0,0.0,0.0,0.0,0.0,0.0,0.0,0.0,0.0,0.0,0.0,0.0,0.0,0.0,0.0,0.0,0.0,0.0,0.0,0.0,0.0,0.0,0.0,0.0,0.0,0.0,0.0,0.0,0.0,0.0,0.0,0.0,0.0,0.0,0.0,0.0,0.0,0.0,0.0,0.0,0.0,0.0,0.0,0.0,0.0,0.0,0.0,0.0,0.0,0.0,0.0,0.0,0.0,0.0,0.0,0.0,0.0,0.0,0.0,0.0,0.0,0.0,0.0,0.0,0.0,0.0,0.0,0.0,0.0,0.0,0.0,0.0,0.0,0.0,0.0,0.0,0.0,0.0,0.0,0.0,0.0,0.0,0.0,0.0,0.0,0.0,0.0,0.0,0.0,0.0,0.0,0.0,0.0,0.0,0.0,0.0,0.0,0.0,0.0,0.0,0.0,0.0,0.0,0.0,0.0,0.0,0.0,0.0,0.0,0.0,0.0,0.0,0.0,0.0,0.0,0.0,0.0,0.0,0.0,0.0,0.0,0.0,0.0,0.0,0.0,0.0,0.0,0.0,0.0,0.0,0.0,0.0,0.0,0.0,0.0,0.0,0.0,0.0,0.0,0.0,0.0,0.0,0.0,0.0,0.0,0.0,0.0,0.0,0.0,0.0,0.0,0.0,0.0,0.0,0.0,0.0,0.0,0.0,0.0,0.0,0.0,0.0,0.0,0.0,0.0,0.0,0.0,0.0,0.0,0.0,0.0,0.0,0.0,0.0,0.0,0.0,0.0,0.0,0.0,0.0,0.0,0.0,0.0,0.0,0.0,0.0,0.0,0.0,0.0,0.0,0.0,0.0,0.0,0.0,0.0,0.0,0.0,0.0,0.0,0.0,0.0,0.0,0.0,0.0,0.0,0.0,0.0,0.0,0.0,0.0,0.0,0.0,0.0,0.0,0.0,0.0,0.0,0.0,0.0,0.0,0.0,0.0,0.0,0.0,0.0,0.0,0.0,0.0,0.0,0.0,0.0,0.0,0.0,0.0,0.0,0.0,0.0,0.0,0.0,0.0,0.0,0.0,0.0,0.0,0.0,0.0,0.0,0.0,0.0,0.0,0.0,0.0,0.0,0.0,0.0,0.0,0.0,0.0,0.0,0.0,0.0,0.0,0.0,0.0,0.0,0.0,0.0,0.0,0.0,0.0,0.0,0.0,0.0,0.0,0.0,0.0,0.0,0.0,0.0,0.0,0.0,0.0,0.0,0.0,0.0,0.0,0.0,0.0,0.0,0.0,0.0,0.0,0.0,0.0,0.0,0.0,0.0,0.0,0.0,0.0,0.0,0.0,0.0,0.0,0.0,0.0,0.0,0.0,0.0,0.0,0.0,0.0,0.0,0.0,0.0,0.0,0.0,0.0,0.0,0.0,0.0,0.0,0.0,0.0,0.0,0.0,0.0,0.0,0.0,0.0,0.0,0.0,0.0,0.0,0.0,0.0,0.0,0.0,0.0,0.0,0.0,0.0,0.0,0.0,0.0,0.0,0.0,0.0,0.0,0.0,0.0,0.0,0.0,0.0,0.0,0.0,0.0,0.0,0.0,0.0,0.0,0.0,0.0,0.0,0.0,0.0,0.0,0.0,0.0,0.0,0.0,0.0,0.0,0.0,0.0,0.0,0.0,0.0,0.0,0.0,0.0,0.0,0.0,0.0,0.0,0.0,0.0,0.0,0.0,0.0,0.0,0.0,0.0,0.0,0.0,0.0,0.0,0.0,0.0,0.0,0.0,0.0,0.0,0.0,0.0,0.0,0.0,0.0,0.0,0.0,0.0,0.0,0.0,0.0,0.0,0.0,0.0,0.0,0.0,0.0,0.0,0.0,0.0,0.0,0.0,0.0,0.0,0.0,0.0,0.0,0.0,0.0,0.0,0.0,0.0,0.0,0.0,0.0,0.0,0.0,0.0,0.0,0.0,0.0,0.0,0.0,0.0,0.0,0.0,0.0,0.0,0.0,0.0,0.0,0.0,0.0,0.0,0.0,0.0,0.0,0.0,0.0,0.0,0.0,0.0,0.0,0.0,0.0,0.0,0.0,0.0,0.0,0.0,0.0,0.0,0.0,0.0,0.0,0.0,0.0,0.0,0.0,0.0,0.0,0.0,0.0,0.0,0.0,0.0,0.0,0.0,0.0,0.0,0.0,0.0,0.0,0.0,0.0,0.0,0.0,0.0,0.0,0.0,0.0,0.0,0.0,0.0,0.0,0.0,0.0,0.0,0.0,0.0,0.0,0.0,0.0,0.0,0.0,0.0,0.0,0.0,0.0,0.0,0.0,0.0,0.0,0.0,0.0,0.0,0.0,0.0,0.0,0.0,0.0,0.0,0.0,0.0,0.0,0.0,0.0,0.0,0.0,0.0,0.0,0.0,0.0,0.0,0.0,0.0,0.0,0.0,0.0,0.0,0.0,0.0,0.0,0.0,0.0,0.0,0.0,0.0,0.0,0.0,0.0,0.0,0.0,0.0,0.0,0.0,0.0,0.0,0.0,0.0,0.0,0.0,0.0,0.0,0.0,0.0,0.0,0.0,0.0,0.0,0.0,0.0,0.0,0.0,0.0,0.0,0.0,0.0,0.0,0.0,0.0,0.0,0.0,0.0,0.0,0.0,0.0,0.0,0.0,0.0,0.0,0.0,0.0,0.0,0.0,0.0,0.0,0.0,0.0,0.0,0.0,0.0,0.0,0.0,0.0,0.0,0.0,0.0,0.0,0.0,0.0,0.0,0.0,0.0,0.0,0.0,0.0,0.0,0.0,0.0,0.0,0.0,0.0,0.0,0.0,0.0,0.0,0.0,0.0,0.0,0.0,0.0,0.0,0.0,0.0,0.0,0.0,0.0,0.0,0.0,0.0,0.0,0.0,0.0,0.0,0.0,0.0,0.0,0.0,0.0,0.0,0.0,0.0,0.0,0.0,0.0,0.0,0.0,0.0,0.0,0.0,0.0,0.0,0.0,0.0,0.0,0.0,0.0,0.0,0.0,0.0,0.0,0.0,0.0,0.0,0.0,0.0,0.0,0.0,0.0,0.0,0.0,0.0,0.0,0.0,0.0,0.0,0.0,0.0,0.0,0.0,0.0,0.0,0.0,0.0,0.0,0.0,0.0,0.0,0.0,0.0,0.0,0.0,0.0,0.0,0.0,0.0,0.0,0.0,0.0,0.0,0.0,0.0,0.0,0.0,0.0,0.0,0.0,0.0,0.0,0.0,0.0,0.0,0.0,0.0,0.0,0.0,0.0,0.0,0.0,0.0,0.0,0.0,0.0,0.0,0.0,0.0,0.0,0.0,0.0,0.0,0.0,0.0,0.0,0.0,0.0,0.0,0.0,0.0,0.0,0.0,-0.0826,0.0,0.0,0.0,0.0,0.0,0.0,0.0,0.0,0.0,0.0,0.0,0.0,0.0,0.0,0.0,0.0,0.0,0.0,0.0,0.0,0.0,0.0,0.0,0.0,0.0,0.0,0.0,0.0,0.0,0.0,0.0,0.0,0.0,0.0,0.0,0.0,0.0,0.0,0.0,0.0,0.0,0.0,0.0,0.0,0.0,0.0,0.0,0.0,0.0,0.0,0.0,0.0,0.0,0.0,0.0,0.0,0.0,0.0,0.0,0.0,0.0,0.0,0.0,0.0,0.0,0.0,0.0,0.0,0.0,0.0,0.0,0.0,0.0,0.0,0.0,0.0,0.0,0.0,0.0,0.0,0.0,0.0,0.0,0.0,0.0,0.0,0.0,0.0,0.0,0.0,0.0,0.0,0.0,0.0,0.0,0.0,0.0,0.0,0.0,0.0,0.0,0.0,0.0,0.0,0.0,0.0,0.0,0.0,0.0,0.0,-0.2499,-0.2228,-0.1875,-0.1473,-0.0923,0.0,0.0,0.0,0.0,0.0,0.0,0.0,0.0,0.0,0.0,0.0,0.0,0.0,0.0,0.0,0.0,0.0,0.0,0.0,0.0,0.0,0.0,0.0,0.0,0.0,0.0,0.0,0.0,0.0,0.0,0.0,0.0,0.0,0.0,0.0,0.0,0.0,0.0,0.0,0.0,0.0,0.0,0.0,0.0,0.0,0.0,0.0,0.0,0.0,0.0,0.0,0.0,0.0,0.0,0.0,0.0,0.0,0.0,0.0,0.0,0.0,0.0,0.0,0.0,0.0,0.0,0.0,0.0,0.0,0.0,0.0,0.0,0.0,0.0,0.0,0.0,0.0,0.0,0.0,0.0,0.0,0.0,0.0,0.0,0.0,0.0,0.0,0.0,0.0,0.0,0.0,0.0,0.0,0.0,0.0,0.0,0.0,0.0,0.0,0.0,0.0,0.0,0.0,0.0,0.0,0.0,0.0,0.0,0.0,0.0,0.0,0.0,-0.133,-0.1042,-0.0872,0.0,0.0,0.0,0.0,0.0,0.0,0.0,0.0,0.0,0.0,0.0,0.0,0.0,0.0,0.0,0.0,0.0,0.0,0.0,0.0,0.0,0.0,0.0,0.0,0.0,0.0,0.0,0.0,0.0,0.0,0.0,0.0,0.0,0.0,0.0,0.0,0.0,0.0,0.0,0.0,0.0,0.0,0.0,0.0,0.0,0.0,0.0,0.0,0.0,0.0,0.0,0.0,0.0,0.0,0.0,0.0,0.0,0.0,0.0,0.0,0.0,0.0,0.0,0.0,0.0,0.0,0.0,0.0,0.0,0.0,0.0,0.0,0.0,0.0,0.0,0.0,0.0,0.0,0.0,0.0,0.0,0.0,0.0,0.0,0.0,0.0,0.0,0.0,0.0,0.0,0.0,0.0,0.0,0.0,0.0,0.0,0.0,0.0,0.0,0.0,0.0,0.0,0.0,0.0,0.0,0.0,0.0,0.0,0.0,0.0,-0.1792,-0.179,-0.1726,0.0,-0.0873,0.0,0.0,0.0,0.0,0.0,0.0,0.0,0.0,0.0,0.0,0.0,0.0,0.0,0.0,0.0,0.0,0.0,0.0,0.0,0.0,0.0,0.0,0.0,0.0,0.0,0.0,0.0,0.0,0.0,0.0,0.0,0.0,0.0,0.0,0.0,0.0,0.0,0.0,0.0,0.0,0.0,0.0,0.0,0.0,0.0,0.0,0.0,0.0,0.0,0.0,0.0,0.0,0.0,0.0,0.0,0.0,0.0,0.0,0.0,0.0,0.0,0.0,0.0,0.0,0.0,0.0,0.0,0.0,0.0,0.0,0.0,0.0,0.0,0.0,0.0,0.0,0.0,0.0,0.0,0.0,0.0,0.0,0.0,0.0,0.0,0.0,0.0,0.0,0.0,0.0,0.0,0.0,0.0,0.0,0.0,0.0,0.0,0.0,0.0,0.0,0.0,0.0,0.0,0.0,0.0,0.0,0.0,0.0,0.0,0.0,0.0,-0.0205,-0.0204,0.0238,0.0,0.0,0.0,0.0,0.0,0.0,0.0,0.0,0.0,0.0,0.0,0.0,0.0,0.0,0.0,0.0,0.0,0.0,0.0,0.0,0.0,0.0,0.0,0.0,0.0,0.0,0.0,0.0,0.0,0.0,0.0,0.0,0.0,0.0,0.0,0.0,0.0,0.0,0.0,0.0,0.0,0.0,0.0,0.0,0.0,0.0,0.0,0.0,0.0,0.0,0.0,0.0,0.0,0.0,0.0,0.0,0.0,0.0,0.0,0.0,0.0,0.0,0.0,0.0,0.0,0.0,0.0,0.0,0.0,0.0,0.0,0.0,0.0,0.0,0.0,0.0,0.0,0.0,0.0,0.0,0.0,0.0,0.0,0.0,0.0,0.0,0.0,0.0,0.0,0.0,0.0,0.0,0.0,0.0,0.0,0.0,0.0,0.0,0.0,0.0,0.0,0.0,0.0,0.0,0.0,0.0,0.0,0.0,0.0,0.0,0.0694,0.0,0.1167,0.137,0.1691,0.2066,0.0,0.0,0.0,0.0,0.0,0.0,0.0,0.0,0.0,0.0,0.0,0.0,0.0,0.0,0.0,0.0,0.0,0.0,0.0,0.0,0.0,0.0,0.0,0.0,0.0,0.0,0.0,0.0,0.0,0.0,0.0,0.0,0.0,0.0,0.0,0.0,0.0,0.0,0.0,0.0,0.0,0.0,0.0,0.0,0.0,0.0,0.0,0.0,0.0,0.0,0.0,0.0,0.0,0.0,0.0,0.0,0.0,0.0,0.0,0.0,0.0,0.0,0.0,0.0,0.0,0.0,0.0,0.0,0.0,0.0,0.0,0.0,0.0,0.0,0.0,0.0,0.0,0.0,0.0,0.0,0.0,0.0,0.0,0.0,0.0,0.0,0.0,0.0,0.0,0.0,0.0,0.0,0.0,0.0,0.0,0.0,0.0,0.0,0.0,0.0,0.0,0.0,0.0,0.0,0.0,0.0,0.0,0.0,0.0,0.0802,0.1337,0.1812,0.2575,0.2317,0.0,0.0,0.0,0.0,0.0,0.0,0.0,0.0,0.0,0.0,0.0,0.0,0.0,0.0,0.0,0.0,0.0,0.0,0.0,0.0,0.0,0.0,0.0,0.0,0.0,0.0,0.0,0.0,0.0,0.0,0.0,0.0,0.0,0.0,0.0,0.0,0.0,0.0,0.0,0.0,0.0,0.0,0.0,0.0,0.0,0.0,0.0,0.0,0.0,0.0,0.0,0.0,0.0,0.0,0.0,0.0,0.0,0.0,0.0,0.0,0.0,0.0,0.0,0.0,0.0,0.0,0.0,0.0,0.0,0.0,0.0,0.0,0.0,0.0,0.0,0.0,0.0,0.0,0.0,0.0,0.0,0.0,0.0,0.0,0.0,0.0,0.0,0.0,0.0,0.0,0.0,0.0,0.0,0.0,0.0,0.0,0.0,0.0,0.0,0.0,0.0,0.0,0.0,0.0,0.0,0.0,0.0,0.0,0.0,0.0864,0.1869,0.3019,0.4261,0.3475,0.2869,0.0,0.0,0.0,0.0,0.0,0.0,0.0,0.0,0.0,0.0,0.0,0.0,0.0,0.0,0.0,0.0,0.0,0.0,0.0,0.0,0.0,0.0,0.0,0.0,0.0,0.0,0.0,0.0,0.0,0.0,0.0,0.0,0.0,0.0,0.0,0.0,0.0,0.0,0.0,0.0,0.0,0.0,0.0,0.0,0.0,0.0,0.0,0.0,0.0,0.0,0.0,0.0,0.0,0.0,0.0,0.0,0.0,0.0,0.0,0.0,0.0,0.0,0.0,0.0,0.0,0.0,0.0,0.0,0.0,0.0,0.0,0.0,0.0,0.0,0.0,0.0,0.0,0.0,0.0,0.0,0.0,0.0,0.0,0.0,0.0,0.0,0.0,0.0,0.0,0.0,0.0,0.0,0.0,0.0,0.0,0.0,0.0,0.0,0.0,0.0,0.0,0.0,0.0,0.0,0.0,0.0,0.0,0.0,0.0,0.1538,0.0,0.3686,0.0,0.366,0.2941,0.0,0.0,0.0,0.0,0.0,0.0,0.0,0.0,0.0,0.0,0.0,0.0,0.0,0.0,0.0,0.0,0.0,0.0,0.0,0.0,0.0,0.0,0.0,0.0,0.0,0.0,0.0,0.0,0.0,0.0,0.0,0.0,0.0,0.0,0.0,0.0,0.0,0.0,0.0,0.0,0.0,0.0,0.0,0.0,0.0,0.0,0.0,0.0,0.0,0.0,0.0,0.0,0.0,0.0,0.0,0.0,0.0,0.0,0.0,0.0,0.0,0.0,0.0,0.0,0.0,0.0,0.0,0.0,0.0,0.0,0.0,0.0,0.0,0.0,0.0,0.0,0.0,0.0,0.0,0.0,0.0,0.0,0.0,0.0,0.0,0.0,0.0,0.0,0.0,0.0,0.0,0.0,0.0,0.0,0.0,0.0,0.0,0.0,0.0,0.0,0.0,0.0,0.0,0.0,0.0,0.0,0.0,0.0,-0.0185,0.2077,0.2611,0.308,0.3551,0.3116,0.2352,0.0,0.0,0.0,0.0,0.0,0.0,0.0,0.0,0.0,0.0,0.0,0.0,0.0,0.0,0.0,0.0,0.0,0.0,0.0,0.0,0.0,0.0,0.0,0.0,0.0,0.0,0.0,0.0,0.0,0.0,0.0,0.0,0.0,0.0,0.0,0.0,0.0,0.0,0.0,0.0,0.0,0.0,0.0,0.0,0.0,0.0,0.0,0.0,0.0,0.0,0.0,0.0,0.0,0.0,0.0,0.0,0.0,0.0,0.0,0.0,0.0,0.0,0.0,0.0,0.0,0.0,0.0,0.0,0.0,0.0,0.0,0.0,0.0,0.0,0.0,0.0,0.0,0.0,0.0,0.0,0.0,0.0,0.0,0.0,0.0,0.0,0.0,0.0,0.0,0.0,0.0,0.0,0.0,0.0,0.0,0.0,0.0,0.0,0.0,0.0,0.0,0.0,0.0,0.0,0.0,0.0,0.0,0.0,0.0,0.1502,0.1709,0.2096,0.2714,0.2057,0.1515,0.0,0.0,0.0,0.0,0.0,0.0,0.0,0.0,0.0,0.0,0.0,0.0,0.0,0.0,0.0,0.0,0.0,0.0,0.0,0.0,0.0,0.0,0.0,0.0,0.0,0.0,0.0,0.0,0.0,0.0,0.0,0.0,0.0,0.0,0.0,0.0,0.0,0.0,0.0,0.0,0.0,0.0,0.0,0.0,0.0,0.0,0.0,0.0,0.0,0.0,0.0,0.0,0.0,0.0,0.0,0.0,0.0,0.0,0.0,0.0,0.0,0.0,0.0,0.0,0.0,0.0,0.0,0.0,0.0,0.0,0.0,0.0,0.0,0.0,0.0,0.0,0.0,0.0,0.0,0.0,0.0,0.0,0.0,0.0,0.0,0.0,0.0,0.0,0.0,0.0,0.0,0.0,0.0,0.0,0.0,0.0,0.0,0.0,0.0,0.0,0.0,0.0,0.0,0.0,0.0,0.0,0.0,0.0,0.0,0.0088,0.0589,0.1263,0.2145,0.1477,0.1049,0.0952,0.0,0.0,0.0,0.0,0.0,0.0,0.0,0.0,0.0,0.0,0.0,0.0,0.0,0.0,0.0,0.0,0.0,0.0,0.0,0.0,0.0,0.0,0.0,0.0,0.0,0.0,0.0,0.0,0.0,0.0,0.0,0.0,0.0,0.0,0.0,0.0,0.0,0.0,0.0,0.0,0.0,0.0,0.0,0.0,0.0,0.0,0.0,0.0,0.0,0.0,0.0,0.0,0.0,0.0,0.0,0.0,0.0,0.0,0.0,0.0,0.0,0.0,0.0,0.0,0.0,0.0,0.0,0.0,0.0,0.0,0.0,0.0,0.0,0.0,0.0,0.0,0.0,0.0,0.0,0.0,0.0,0.0,0.0,0.0,0.0,0.0,0.0,0.0,0.0,0.0,0.0,0.0,0.0,0.0,0.0,0.0,0.0,0.0,0.0,0.0,0.0,0.0,0.0,0.0,0.0,0.0,0.0,0.0,-0.1808,-0.066,0.0496,0.163,0.1273,0.0915,0.0,0.0,0.0,0.0,0.0,0.0,0.0,0.0,0.0,0.0,0.0,0.0,0.0,0.0,0.0,0.0,0.0,0.0,0.0,0.0,0.0,0.0,0.0,0.0,0.0,0.0,0.0,0.0,0.0,0.0,0.0,0.0,0.0,0.0,0.0,0.0,0.0,0.0,0.0,0.0,0.0,0.0,0.0,0.0,0.0,0.0,0.0,0.0,0.0,0.0,0.0,0.0,0.0,0.0,0.0,0.0,0.0,0.0,0.0,0.0,0.0,0.0,0.0,0.0,0.0,0.0,0.0,0.0,0.0,0.0,0.0,0.0,0.0,0.0,0.0,0.0,0.0,0.0,0.0,0.0,0.0,0.0,0.0,0.0,0.0,0.0,0.0,0.0,0.0,0.0,0.0,0.0,0.0,0.0,0.0,0.0,0.0,0.0,0.0,0.0,0.0,0.0,0.0,0.0,0.0,0.0,0.0,0.0,0.0,-0.179,-0.1166,-0.0414,0.043,0.036,0.0255,0.0,0.0,0.0,0.0,0.0,0.0,0.0,0.0,0.0,0.0,0.0,0.0,0.0,0.0,0.0,0.0,0.0,0.0,0.0,0.0,0.0,0.0,0.0,0.0,0.0,0.0,0.0,0.0,0.0,0.0,0.0,0.0,0.0,0.0,0.0,0.0,0.0,0.0,0.0,0.0,0.0,0.0,0.0,0.0,0.0,0.0,0.0,0.0,0.0,0.0,0.0,0.0,0.0,0.0,0.0,0.0,0.0,0.0,0.0,0.0,0.0,0.0,0.0,0.0,0.0,0.0,0.0,0.0,0.0,0.0,0.0,0.0,0.0,0.0,0.0,0.0,0.0,0.0,0.0,0.0,0.0,0.0,0.0,0.0,0.0,0.0,0.0,0.0,0.0,0.0,0.0,0.0,0.0,0.0,0.0,0.0,0.0,0.0,0.0,0.0,0.0,0.0,0.0,0.0,0.0,0.0,0.0,0.0,-0.2481,-0.1976,-0.1408,-0.0743,0.0,0.0,0.0,0.0,0.0,0.0,0.0,0.0,0.0,0.0,0.0,0.0,0.0,0.0,0.0,0.0,0.0,0.0,0.0,0.0,0.0,0.0,0.0,0.0,0.0,0.0,0.0,0.0,0.0,0.0,0.0,0.0,0.0,0.0,0.0,0.0,0.0,0.0,0.0,0.0,0.0,0.0,0.0,0.0,0.0,0.0,0.0,0.0,0.0,0.0,0.0,0.0,0.0,0.0,0.0,0.0,0.0,0.0,0.0,0.0,0.0,0.0,0.0,0.0,0.0,0.0,0.0,0.0,0.0,0.0,0.0,0.0,0.0,0.0,0.0,0.0,0.0,0.0,0.0,0.0,0.0,0.0,0.0,0.0,0.0,0.0,0.0,0.0,0.0,0.0,0.0,0.0,0.0,0.0,0.0,0.0,0.0,0.0,0.0,0.0,0.0,0.0,0.0,0.0,0.0,0.0,0.0,0.0,0.0,0.0,0.0,-0.2472,-0.2196,-0.1392,-0.0667,0.0,0.0,0.0,0.0,0.0,0.0,0.0,0.0,0.0,0.0,0.0,0.0,0.0,0.0,0.0,0.0,0.0,0.0,0.0,0.0,0.0,0.0,0.0,0.0,0.0,0.0,0.0,0.0,0.0,0.0,0.0,0.0,0.0,0.0,0.0,0.0,0.0,0.0,0.0,0.0,0.0,0.0,0.0,0.0,0.0,0.0,0.0,0.0,0.0,0.0,0.0,0.0,0.0,0.0,0.0,0.0,0.0,0.0,0.0,0.0,0.0,0.0,0.0,0.0,0.0,0.0,0.0,0.0,0.0,0.0,0.0,0.0,0.0,0.0,0.0,0.0,0.0,0.0,0.0,0.0,0.0,0.0,0.0,0.0,0.0,0.0,0.0,0.0,0.0,0.0,0.0,0.0,0.0,0.0,0.0,0.0,0.0,0.0,0.0,0.0,0.0,0.0,0.0,0.0,0.0,0.0,0.0,0.0,0.0,0.0,0.0,-0.2101,-0.2041,-0.0877,-0.0159,0.0,0.0,0.0,0.0,0.0,0.0,0.0,0.0,0.0,0.0,0.0,0.0,0.0,0.0,0.0,0.0,0.0,0.0,0.0,0.0,0.0,0.0,0.0,0.0,0.0,0.0,0.0,0.0,0.0,0.0,0.0,0.0,0.0,0.0,0.0,0.0,0.0,0.0,0.0,0.0,0.0,0.0,0.0,0.0,0.0,0.0,0.0,0.0,0.0,0.0,0.0,0.5303,0.0,0.0,0.0,0.0,0.0,0.0,0.0,0.0,0.0,0.0,0.0,0.0,0.0,0.0,0.0,0.0,0.0,0.0,0.0,0.0,0.0,0.0,0.0,0.0,0.0,0.0,0.0,0.0,0.0,0.0,0.0,0.0,0.0,0.0,0.0,0.0,0.0,0.0,0.0,0.0,0.0,0.0,0.0,0.0,0.0,0.0,0.0,0.0,0.0,0.0,0.0,0.0,0.0,0.0,0.0,0.0,0.0,0.0,0.0,-0.243,-0.2082,-0.1123,-0.0411,0.0,0.0,0.0,0.0,0.0,0.0,0.0,0.0,0.0,0.0,0.0,0.0,0.0,0.0,0.0,0.0,0.0,0.0,0.0,0.0,0.0,0.0,0.0,0.0,0.0,0.0,0.0,0.0,0.0,0.0,0.0,0.0,0.0,0.0,0.0,0.0,0.0,0.0,0.0,0.0,0.0,0.0,0.0,0.0,0.0,0.0,0.0,0.0,0.0,0.0,0.0,0.0,0.0,0.0,0.0,0.0,0.0,0.0,0.0,0.0,0.0,0.0,0.0,0.0,0.0,0.0,0.0,0.0,0.0,0.0,0.0,0.0,0.0,0.0,0.0,0.0,0.0,0.0,0.0,0.0,0.0,0.0,0.0,0.0,0.0,0.0,0.0,0.0,0.0,0.0,0.0,0.0,0.0,0.0,0.0,0.0,0.0,0.0,0.0,0.0,0.0,0.0,0.0,0.0,0.0,0.0,0.0,0.0,0.0,0.0,-0.3212,-0.2958,-0.2377,-0.1639,-0.093,-0.0206,-0.0059,0.0,0.0,0.0,0.0,0.0,0.0,0.0,0.0,0.0,0.0,0.0,0.0,0.0,0.0,0.0,0.0,0.0,0.0,0.0,0.0,0.0,0.0,0.0,0.0,0.0,0.0,0.0,0.0,0.0,0.0,0.0,0.0,0.0,0.0,0.0,0.0,0.0,0.0,0.0,0.0,0.4825,0.4229,0.0,0.0,0.0,0.0,0.0,0.0,0.0,0.0,0.7195,0.0,0.0,0.0,0.0,0.0,0.0,0.0,0.0,0.0,0.0,0.0,0.0,0.0,0.0,0.0,0.0,0.0,0.0,0.0,0.0,0.0,0.0,0.0,0.0,0.0,0.0,0.0,0.0,0.0,0.0,0.0,0.0,0.0,0.0,0.0,0.0,0.0,0.0,0.0,0.0,0.0,0.0,0.0,0.0,0.0,0.0,0.0,0.0,0.0,0.0,0.0,0.0,0.0,0.0,0.0,0.0,-0.4384,-0.345,-0.3021,-0.3098,-0.1836,-0.1069,-0.091,-0.0315,0.0,0.0,0.0,0.0,0.0,0.0,0.0,0.0,0.0,0.0,0.0,0.0,0.0,0.0,0.0,0.0,0.0,0.0,0.0,0.0,0.0,0.0,0.0,0.0,0.0,0.0,0.0,0.0,0.0,0.0,0.0,0.0,0.0,0.0,0.0,0.0,0.0,0.0,0.0,0.0,0.0,0.4135,0.4635,0.0,0.0,0.0,0.0,0.0,0.0,0.0,0.0,0.7456,0.0,0.0,0.0,0.0,0.0,0.0,0.0,0.0,0.0,0.0,0.0,0.0,0.0,0.0,0.0,0.0,0.0,0.0,0.0,0.0,0.0,0.0,0.0,0.0,0.0,0.0,0.0,0.0,0.0,0.0,0.0,0.0,0.0,0.0,0.0,0.0,0.0,0.0,0.0,0.0,0.0,0.0,0.0,0.0,0.0,0.0,0.0,0.0,0.0,0.0,0.0,0.0,0.0,0.0,0.0,-0.4372,-0.4046,-0.3462,-0.274,-0.2122,-0.1397,-0.0573,-0.0188,0.0,0.0,0.0,0.0,0.0,0.0,0.0,0.0,0.0,0.0,0.0,0.0,0.0,0.0,0.0,0.0,0.0,0.0,0.0,0.0,0.0,0.0,0.0,0.0,0.0,0.0,0.0,0.0,0.0,0.0,0.0,0.0,0.0,0.0,0.0,0.0,0.0,0.0,0.0,0.0,0.0,0.4216,0.4701,0.5695,0.0,0.0,0.0,0.0,0.0,0.0,0.6491,0.7128,0.0,0.0,0.0,0.0,0.0,0.0,0.0,0.0,0.0,0.0,0.0,0.0,0.0,0.0,0.0,0.0,0.0,0.0,0.0,0.0,0.0,0.0,0.0,0.0,0.0,0.0,0.0,0.0,0.0,0.0,0.0,0.0,0.0,0.0,0.0,0.0,0.0,0.0,0.0,0.0,0.0,0.0,0.0,0.0,0.0,0.0,0.0,0.0,0.0,0.0,0.0,0.0,0.0,0.0,0.0,-0.4166,-0.4454,-0.393,-0.2736,-0.2518,-0.1808,-0.0504,-0.0154,0.0,0.0,0.0,0.0,0.0,0.0,0.0,0.0,0.0,0.0,0.0,0.0,0.0,0.0,0.0,0.0,0.0,0.0,0.0,0.0,0.0,0.0,0.0,0.0,0.0,0.0,0.0,0.0,0.0,0.0,0.0,0.0,0.0,0.0,0.0,0.0,0.0,0.0,0.0,0.0,0.0,0.0,0.4782,0.5463,0.5467,0.0,0.0,0.0,0.0,0.585,0.6245,0.0,0.0,0.0,0.0,0.0,0.0,0.0,0.0,0.0,0.0,0.0,0.0,0.0,0.0,0.0,0.0,0.0,0.0,0.0,0.0,0.0,0.0,0.0,0.0,0.0,0.0,0.0,0.0,0.0,0.0,0.0,0.0,0.0,0.0,0.0,0.0,0.0,0.0,0.0,0.0,0.0,0.0,0.0,0.0,0.0,0.0,0.0,0.0,0.0,0.0,0.0,0.0,0.0,0.0,0.0,0.0,-0.4164,-0.4135,-0.4111,-0.4168,-0.2938,-0.2155,-0.1924,-0.0671,0.0,0.0,0.0,0.0,0.0,0.0,0.0,0.0,0.0,0.0,0.0,0.0,0.0,0.0,0.0,0.0,0.0,0.0,0.0,0.0,0.0,0.0,0.0,0.0,0.0,0.0,0.0,0.0,0.0,0.0,0.0,0.0,0.0,0.0,0.0,0.0,0.0,0.0,0.0,0.0,0.0,0.0,0.4948,0.5653,0.5767,0.5789,0.0,0.0,0.5567,0.5114,0.562,0.0,0.0,0.0,0.0,0.0,0.0,0.0,0.0,0.0,0.0,0.0,0.0,0.0,0.0,0.0,0.0,0.0,0.0,0.0,0.0,0.0,0.0,0.0,0.0,0.0,0.0,0.0,0.0,0.0,0.0,0.0,0.0,0.0,0.0,0.0,0.0,0.0,0.0,0.0,0.0,0.0,0.0,0.0,0.0,0.0,0.0,0.0,0.0,0.0,0.0,0.0,0.0,0.0,0.0,0.0,-0.3467,-0.4176,-0.4257,-0.414,-0.3785,-0.276,-0.198,-0.1562,-0.0536,0.007,0.0,0.0,0.0,0.0,0.0,0.0,0.0,0.0,0.0,0.0,0.0,0.0,0.0,0.0,0.0,0.0,0.0,0.0,0.0,0.0,0.0,0.0,0.0,0.0,0.0,0.0,0.0,0.0,0.0,0.0,0.0,0.0,0.0,0.0,0.0,0.0,0.0,0.0,0.0,0.0,0.0,0.0,0.524,0.5445,0.0,0.0,0.0,0.5322,0.5057,0.0,0.0,0.0,0.0,0.0,0.0,0.0,0.0,0.0,0.0,0.0,0.0,0.0,0.0,0.0,0.0,0.0,0.0,0.0,0.0,0.0,0.0,0.0,0.0,0.0,0.0,0.0,0.0,0.0,0.0,0.0,0.0,0.0,0.0,0.0,0.0,0.0,0.0,0.0,0.0,0.0,0.0,0.0,0.0,0.0,0.0,0.0,0.0,0.0,0.0,0.0,0.0,0.0,0.0,0.0,0.0,0.0,-0.4034,-0.436,-0.4211,-0.3594,-0.2871,-0.212,-0.1394,-0.0669,0.0,0.0,0.0,0.0,0.0,0.0,0.0,0.0,0.0,0.0,0.0,0.0,0.0,0.0,0.0,0.0,0.0,0.0,0.0,0.0,0.0,0.0,0.0,0.0,0.0,0.0,0.0,0.2274,0.0,0.0,0.0,0.0,0.0,0.0,0.0,0.0,0.0,0.0,0.0,0.0,0.0,0.0,0.5073,0.504,0.5254,0.5423,0.0,0.0,0.5247,0.5243,0.5594,0.6131,0.0,0.0,0.0,0.0,0.0,0.0,0.0,0.0,0.0,0.0,0.0,0.0,0.0,0.0,0.0,0.0,0.0,0.0,0.0,0.0,0.0,0.0,0.0,0.0,0.0,0.0,0.0,0.0,0.0,0.0,0.0,0.0,0.0,0.0,0.0,0.0,0.0,0.0,0.0,0.0,0.0,0.0,0.0,0.0,0.0,0.0,0.0,0.0,0.0,0.0,0.0,0.0,0.0,0.0,0.0,-0.3651,-0.4213,-0.446,-0.4377,-0.3705,-0.2926,-0.2145,-0.1431,-0.0689,0.0,0.0,0.0,0.0,0.0,0.0,0.0,0.0,0.0,0.0,0.0,0.0,0.0,0.0,0.0,0.0,0.0,0.0,0.0,0.0,0.0,0.0,0.0,0.0,0.0,0.0,0.0,0.0,0.0,0.0,0.0,0.0,0.0,0.0,0.0,0.0,0.0,0.0,0.0,0.0,0.0,0.515,0.5347,0.5504,0.5616,0.0,0.0,0.5559,0.5562,0.5583,0.5955,0.6929,0.0,0.0,0.0,0.0,0.0,0.0,0.0,0.0,0.0,0.0,0.0,0.0,0.0,0.0,0.0,0.0,0.0,0.0,0.0,0.0,0.0,0.0,0.0,0.0,0.0,0.0,0.0,0.0,0.0,0.0,0.0,0.0,0.0,0.0,0.0,0.0,0.0,0.0,0.0,0.0,0.0,0.0,0.0,0.0,0.0,0.0,0.0,0.0,0.0,0.0,0.0,0.0,0.0,-0.3273,-0.3604,-0.4191,-0.4491,-0.446,-0.3735,-0.3178,-0.2896,-0.1706,-0.0889,0.0,0.0,0.0,0.0,0.0,0.0,0.0,0.0,0.0,0.0,0.0,0.0,0.0,0.0,0.0,0.0,0.0,0.0,0.0,0.0,0.0,0.0,0.0,0.0,0.0,0.0,0.0,0.0,0.4326,0.498,0.5868,0.0,0.0,0.0,0.0,0.0,0.0,0.0,0.0,0.0,0.0,0.5464,0.5613,0.5762,0.0,0.0,0.5858,0.5861,0.5861,0.563,0.5719,0.6422,0.632,0.0,0.0,0.0,0.0,0.0,0.0,0.0,0.0,0.0,0.0,0.0,0.0,0.0,0.0,0.0,0.0,0.0,0.0,0.0,0.0,0.0,0.0,0.0,0.0,0.0,0.0,0.0,0.0,0.0,0.0,0.0,0.0,0.0,0.0,0.0,0.0,0.0,0.0,0.0,0.0,0.0,0.0,0.0,0.0,0.0,0.0,0.0,0.0,0.0,0.0,0.0,0.0,-0.3269,-0.36,-0.4187,-0.4491,-0.4491,-0.3956,-0.3539,-0.3284,-0.2078,-0.1222,0.0,0.0,0.0,0.0,0.0,0.0,0.0,0.0,0.0,0.0,0.0,0.0,0.0,0.0,0.0,0.0,0.0,0.0,0.0,0.0,0.0,0.0,0.0,0.0,0.0,0.0,0.0,0.0,0.4832,0.5491,0.6513,0.0,0.0,0.0,0.0,0.0,0.0,0.0,0.0,0.0,0.0,0.5708,0.585,0.6,0.6098,0.6098,0.6098,0.6067,0.5939,0.5772,0.5802,0.6201,0.0,0.0,0.0,0.0,0.0,0.0,0.0,0.0,0.0,0.0,0.0,0.0,0.0,0.0,0.0,0.0,0.0,0.0,0.0,0.0,0.0,0.0,0.0,0.0,0.0,0.0,0.0,0.0,0.0,0.0,-0.1613,0.0,0.0,0.0,0.0,0.0,0.0,0.0,0.0,0.0,0.0,0.0,0.0,0.0,0.0,0.0,0.0,0.0,0.0,0.0,0.0,0.0,0.0,-0.3276,-0.3607,-0.4191,-0.4491,-0.4491,-0.446,-0.4098,-0.3312,-0.2562,-0.1824,-0.1079,0.0,0.0,0.0,0.0,0.0,0.0,0.0,0.0,0.0,0.0,0.0,0.0,0.0,0.0,0.0,0.0,0.0,0.0,0.0,0.0,0.0,0.0,0.0,0.0,0.0,0.0,0.3978,0.491,0.5695,0.0,0.0,0.0,0.0,0.0,0.0,0.0,0.0,0.0,0.0,0.5518,0.5854,0.5973,0.6159,0.6296,0.63,0.63,0.6197,0.5874,0.6088,0.6298,0.0,0.0,0.0,0.0,0.0,0.0,0.0,0.0,0.0,0.0,0.0,0.0,0.0,0.0,0.0,0.0,0.0,0.0,0.0,0.0,0.0,0.0,0.0,0.0,0.0,0.0,0.0,-0.3621,-0.2976,0.0,0.0,0.0,0.0,0.0,0.0,0.0,0.0,0.0,0.0,0.0,0.0868,0.1471,0.0,0.0,0.0,0.0,0.0,0.0,0.0,0.0,0.0,0.0,0.0,0.0,-0.3398,-0.3727,-0.4238,-0.4491,-0.4491,-0.4491,-0.4098,-0.3314,-0.2565,-0.1612,-0.0415,0.0,0.0,0.0,0.0,0.0,0.0,0.0,0.0,0.0,0.0,0.0,0.0,0.0,0.0,0.0,0.0,0.0,0.0,0.0,0.0,0.0,0.0,0.0,0.0,0.0,0.3452,0.0,0.0,0.0,0.0,0.0,0.0,0.0,0.0,0.0,0.0,0.0,0.5503,0.5569,0.5881,0.6159,0.6305,0.6366,0.6477,0.0,0.0,0.0,0.0,0.0,0.0,0.0,0.0,0.0,0.0,0.0,0.0,0.0,0.0,1.126,1.017,0.9571,0.9287,0.9423,0.0,0.0,0.0,0.0,0.0,0.0,0.0,0.0,0.0,0.0,0.0,0.0,0.0,0.0,-0.4959,0.0,-0.4097,0.0,0.0,0.0,0.0,0.0,0.0,0.0,0.0,0.0482,0.0673,0.0591,0.1084,0.1052,0.0,0.0577,0.0379,0.0,0.0,0.0,0.0,0.0,0.0,0.0,0.0,-0.3553,-0.3873,-0.4286,-0.4491,-0.4491,-0.4491,-0.4125,-0.3314,-0.2341,-0.1266,-0.005,0.0163,0.0497,0.0,0.0,0.0,0.0,0.0,0.0,0.0,0.0,0.0,0.0,0.0,0.0,0.0,0.0,0.0,0.0,0.0,0.0,0.0,0.0,0.0,0.0,0.0,0.406,0.0,0.0,0.0,0.0,0.0,0.0,0.0,0.0,0.0,0.5533,0.5577,0.5705,0.5996,0.6289,0.6491,0.6539,0.0,0.0,0.0,0.0,0.0,0.0,0.0,0.6413,0.6413,0.6505,0.6573,0.6566,0.7615,0.8422,0.8296,0.0,0.0,0.9294,0.8809,0.8501,0.8617,0.8461,0.8275,0.8346,0.8594,0.8766,0.0,0.0,0.0,0.0,0.0,0.0,0.0,0.0,-0.6773,-0.6585,0.0,-0.6202,0.0,0.0,0.0,0.0,0.0,-0.0583,0.0,0.0,0.0,0.0,0.0,0.0,0.0,0.0,0.0,0.0,0.0,0.0,0.0,0.0,0.0,0.0,0.0,0.0,-0.3711,-0.4022,-0.4341,-0.4491,-0.4491,-0.4491,-0.4098,-0.3262,-0.1842,-0.0744,0.0,0.0,0.0147,0.0405,0.087,0.0,0.0,0.0,0.0,0.0,0.0,0.0,0.0,0.0,0.0,0.0,0.0,0.0,0.0,0.0,0.0,0.0,0.0,0.0,0.0,0.4414,0.0,0.0,0.0,0.0,0.0,0.0,0.0,0.0,0.0,0.0,0.5518,0.5825,0.6118,0.6477,0.0,0.0,0.0,0.0,0.6712,0.6729,0.6722,0.6681,0.6586,0.6868,0.7001,0.678,0.0,0.0,0.7173,0.7414,0.7566,0.7186,0.7523,0.8305,1.0486,0.9696,0.8874,0.8943,0.8061,0.7272,0.7409,0.7764,0.7866,-0.8575,0.0,0.0,0.0,0.0,-0.7547,-0.7961,-0.8399,-0.8101,-0.765,-0.7138,-0.6899,0.0,0.0,0.0,0.0,0.0,0.0,-0.0579,0.0,0.0,0.0,0.0,0.0,0.0,0.0,0.0,0.0,0.0,0.0,-0.0257,-0.0743,0.0,0.0,0.0,0.0,-0.3439,-0.4127,-0.4368,-0.4491,-0.4491,-0.4491,-0.3846,-0.2536,-0.109,-0.0223,0.0,0.0,0.0205,0.061,0.1159,0.0,0.0,0.0,0.0,0.0,0.0,0.0,0.0,0.0,0.0,0.0,0.0,0.0,0.0,0.0,0.0,0.0,0.0,0.0,0.3387,0.4303,0.4792,0.0,0.0,0.0,0.0,0.0,0.0,0.0,0.0,0.0,0.6458,0.6491,0.6539,0.0,0.0,0.6865,0.6822,0.6865,0.6936,0.7194,0.718,0.0,0.0,0.7292,0.7316,0.7336,0.7573,0.7753,0.7732,0.7806,0.7837,0.7742,0.7803,0.8105,0.8672,0.8512,0.8193,0.8227,0.8,0.7746,0.7796,0.7874,0.7958,-0.9466,-0.7496,-0.792,-0.7792,-0.731,-0.7754,-0.8106,-0.8347,-0.8298,-0.8009,-0.7549,-0.7354,-0.6685,-0.5606,-0.4552,0.0,0.0,0.0,-0.0494,0.0,0.0,0.0,0.0,0.0,0.0,0.0,0.0,0.0,0.0,0.0,-0.0147,-0.043,0.0,0.0,-0.2403,-0.2786,-0.3266,-0.3866,-0.4306,-0.4491,-0.4491,-0.3901,-0.3148,-0.2204,-0.0755,0.0,0.0,0.0,0.0135,0.0421,0.093,0.1251,0.0,0.0,0.0,0.0,0.0,0.0,0.0,0.0,0.0,0.0,0.0,0.2496,0.2121,0.0,0.0,0.0,0.2781,0.3197,0.3894,0.4705,0.0,0.0,0.0,0.0,0.0,0.0,0.0,0.6112,0.6555,0.6941,0.7078,0.7078,0.7058,0.7058,0.7136,0.7193,0.7193,0.0,0.7258,0.7438,0.7508,0.7495,0.7584,0.757,0.7597,0.7698,0.7841,0.7877,0.7968,0.7988,0.7988,0.7988,0.7988,0.7988,0.7988,0.7911,0.7926,0.7968,0.7988,0.8005,0.8066,0.8133,0.8174,-0.9852,-0.901,-0.8929,-0.8332,-0.7503,-0.7788,-0.7865,-0.7761,-0.7756,-0.7854,-0.7992,-0.7685,-0.7064,-0.6104,-0.35,0.0,-0.2448,-0.083,-0.0097,0.0,0.0,0.0,0.0,0.0,0.0,0.0,-0.0067,-0.0066,0.0,0.0,-0.0063,0.0,-0.0546,-0.1194,-0.1932,-0.2657,-0.316,-0.3413,-0.4141,-0.4477,-0.4377,-0.2954,-0.2176,-0.2093,-0.0727,0.0,0.0,0.0,0.0,0.0,0.0474,0.0639,0.0453,0.0,0.0,0.0,0.0,0.0,0.0,0.0,0.0,0.0,0.0,0.0,0.0,0.0,0.0,0.0,0.3674,0.0,0.4535,0.5419,0.0,0.0,0.0,0.6134,0.5562,0.6139,0.6569,0.6583,0.0,0.0,0.7407,0.7539,0.7634,0.7634,0.7614,0.7597,0.7597,0.7584,0.7604,0.7611,0.7614,0.7621,0.7662,0.7746,0.7858,0.7938,0.7988,0.7982,0.7988,0.7988,0.7988,0.7988,0.7988,0.7988,0.7988,0.7982,0.7995,0.8008,0.8065,0.8106,0.8225,0.8275,0.833,-0.9691,-0.8114,-0.8087,-0.7744,-0.7229,-0.7272,-0.7643,-0.8216,-0.8255,-0.8255,-0.8309,-0.8096,-0.7489,-0.6454,-0.4481,-0.3227,-0.2594,-0.1488,-0.0632,0.0,0.0,0.0,0.0,0.0,0.0,0.0,-0.0672,-0.0636,-0.0067,-0.0665,-0.0654,-0.0032,-0.0125,-0.0578,-0.1324,-0.2203,-0.2888,-0.3386,-0.4228,-0.432,-0.3599,-0.2674,-0.1952,-0.1368,-0.0476,0.0,0.0,0.0,0.0,0.0,0.0634,0.0899,0.0664,0.1158,0.0,0.0,0.0,0.0,0.0,0.0,0.0,0.0,0.0,0.2481,0.1854,0.0,0.2616,0.0,0.3839,0.4726,0.5139,0.5405,0.0,0.0,0.6183,0.6371,0.6522,0.681,0.7027,0.7187,0.7482,0.7706,0.7706,0.7789,0.7884,0.788,0.774,0.7597,0.7597,0.7597,0.7641,0.7736,0.776,0.7804,0.7853,0.7907,0.7944,0.7985,0.7988,0.7988,0.7988,0.7988,0.7988,0.7988,0.7988,0.7988,0.7988,0.7988,0.8035,0.8184,0.8218,0.8221,0.8265,0.8408,0.8528,-0.9312,-0.7862,-0.7399,-0.7057,-0.6744,-0.6741,-0.6984,-0.7298,-0.6853,-0.6626,-0.6481,-0.5997,-0.5426,-0.484,-0.3431,-0.2534,-0.2049,-0.1135,-0.0445,0.0,0.0,0.0,0.0,-0.037,-0.0572,-0.0605,-0.1475,-0.1676,-0.1208,-0.1275,-0.1064,-0.0558,-0.0197,-0.0194,-0.0626,-0.1453,-0.2223,-0.2994,-0.3808,-0.392,-0.3347,-0.2287,-0.1509,-0.109,-0.0392,0.0,0.0,0.0,0.0,0.0,0.0383,0.0561,0.0404,0.07,0.0895,0.0,0.0,0.0,0.0,0.0,0.0,0.0,0.0,0.0,0.0,0.0,0.24,0.3135,0.3992,0.4842,0.5725,0.5942,0.6193,0.6525,0.6678,0.6897,0.7102,0.7267,0.7425,0.756,0.777,0.7913,0.7916,0.7987,0.7988,0.7988,0.785,0.7797,0.7794,0.7797,0.7828,0.7902,0.7864,0.7891,0.7982,0.7988,0.7988,0.7988,0.7988,0.7988,0.7988,0.7988,0.7988,0.7988,0.7988,0.7988,0.7992,0.8099,0.8174,0.8255,0.8377,0.8459,0.8469,0.853,0.8628,-0.8753,-0.7764,-0.6875,-0.6439,-0.6327,-0.6151,-0.5991,-0.5754,-0.4763,-0.4217,-0.3978,-0.3101,-0.2731,-0.2649,-0.1707,-0.1308,-0.1234,-0.0392,0.0,0.0,0.0,0.0,0.0,-0.0774,-0.1206,-0.134,-0.2277,-0.2678,-0.2678,-0.1975,-0.1542,-0.1273,-0.0538,-0.0101,-0.0034,-0.064,-0.1459,-0.2473,-0.3104,-0.3323,-0.3088,-0.179,-0.1062,-0.0922,-0.0336,0.0,0.0,0.0,0.0,0.0,0.0,0.0,0.0,0.0,0.0095,0.0,0.0363,0.0,0.0,0.0,0.0,0.0,0.0,0.0,0.0,0.1918,0.2671,0.3801,0.427,0.502,0.6244,0.6715,0.6923,0.6993,0.7248,0.7473,0.7441,0.7675,0.7838,0.7793,0.7907,0.7988,0.7985,0.7988,0.7988,0.7988,0.7978,0.7961,0.7982,0.7971,0.7968,0.7988,0.7988,0.7975,0.7985,0.7988,0.7988,0.7988,0.7988,0.7988,0.7988,0.7988,0.7988,0.7988,0.7988,0.7988,0.7988,0.8163,0.8269,0.8306,0.8513,0.8682,0.8693,0.872,0.8784,-0.7873,-0.6928,-0.6606,-0.6497,-0.6384,-0.5397,-0.4988,-0.4889,-0.3838,-0.3293,-0.3147,-0.2959,-0.2813,-0.2614,-0.1707,-0.1308,-0.1236,-0.0399,0.0,0.0,0.0,0.0,0.0,-0.017,-0.0605,-0.134,-0.2243,-0.2678,-0.2711,-0.3211,-0.2744,-0.1307,-0.1141,-0.0706,-0.0034,0.0,0.0,0.0,-0.2474,-0.2162,-0.1568,-0.1276,-0.0811,-0.0252,-0.0084,0.0,0.0,0.0,0.0,0.0,0.0,0.0,0.0,0.0,0.0,0.0,0.0,0.0,0.0,0.0,0.0,0.0,0.0282,0.0466,0.0884,0.227,0.3477,0.4319,0.5477,0.6399,0.6745,0.6937,0.7105,0.7282,0.755,0.7729,0.7736,0.784,0.7944,0.7948,0.7975,0.7988,0.7988,0.7988,0.7988,0.7988,0.7988,0.7988,0.7988,0.7988,0.7988,0.7988,0.7988,0.7988,0.7988,0.7988,0.7988,0.7988,0.7988,0.7988,0.7988,0.7988,0.7988,0.7988,0.7988,0.7988,0.7992,0.8167,0.8364,0.847,0.8587,0.8713,0.8713,0.8808,0.8848,-0.7727,0.0,-0.6651,-0.6542,0.0,-0.4653,-0.3904,-0.3826,-0.2813,-0.2021,-0.1462,-0.1462,-0.1451,-0.1321,-0.0869,-0.068,-0.0642,-0.0187,0.0,0.0,0.0,0.0,-0.0036,-0.0903,-0.1574,-0.2049,-0.337,-0.4015,-0.4015,-0.4013,-0.3513,-0.2644,-0.1742,-0.1073,-0.0638,-0.0202,-0.0597,-0.1802,-0.1779,-0.1544,-0.1117,-0.0752,-0.037,0.0,0.0,0.0,0.0,0.0,0.0,0.0,0.0,0.0,0.0,0.0,0.0,0.0,0.0,0.0,0.0,0.0,0.0,0.0,0.0,0.0107,0.0337,0.1719,0.301,0.3983,0.5293,0.634,0.7075,0.7214,0.7343,0.7563,0.7723,0.7834,0.7867,0.7941,0.7988,0.7988,0.7988,0.7988,0.7988,0.7988,0.7988,0.7988,0.7988,0.7988,0.7988,0.7988,0.7988,0.7988,0.7988,0.7988,0.7988,0.7988,0.7988,0.7988,0.7988,0.7988,0.7988,0.7988,0.7988,0.7988,0.7988,0.7988,0.8008,0.8218,0.8401,0.8482,0.8665,0.8815,0.877,0.8831,0.8937,-0.7686,-0.6949,-0.6761,-0.6527,-0.6093,-0.4007,-0.2902,-0.25,0.0,0.0,0.0,-0.0196,-0.0275,-0.0275,-0.0275,-0.0275,-0.0274,-0.0077,0.0,0.0,0.0,0.0,0.0,-0.1532,-0.2425,-0.2807,-0.4222,-0.5118,-0.5366,-0.4484,-0.3933,-0.3649,-0.211,-0.1206,-0.1039,-0.037,-0.03,-0.0877,-0.1001,-0.1038,-0.0898,-0.0327,0.0,0.0,0.0,0.0,0.0,0.0,0.0,0.0,0.0,0.0,0.0,0.0,0.0,0.0,0.0,0.0,0.0,0.0,0.011,0.0289,0.0307,0.0315,0.0309,0.1427,0.2595,0.3824,0.5019,0.6213,0.7301,0.7424,0.7546,0.7787,0.7834,0.7906,0.7968,0.7988,0.7988,0.7988,0.7988,0.7988,0.7988,0.7988,0.7988,0.7988,0.7988,0.7988,0.7988,0.7988,0.7988,0.7988,0.7988,0.7988,0.7988,0.7988,0.7988,0.7988,0.7988,0.7988,0.7988,0.7988,0.7988,0.7988,0.7988,0.7988,0.8008,0.8272,0.8521,0.8535,0.8726,0.8937,0.8937,0.8937,0.8937,-0.7197,-0.7055,-0.6913,-0.6253,-0.5193,-0.3861,-0.2192,-0.0471,0.0,-0.0157,-0.0079,-0.098,-0.1372,-0.1372,-0.1372,-0.1372,-0.1333,-0.043,0.0,0.0,0.0,0.0,0.0,-0.0257,-0.1266,-0.2815,-0.3128,-0.4043,-0.5324,-0.4617,-0.3737,-0.2854,-0.1808,-0.0939,-0.0236,-0.0034,-0.0067,-0.0134,-0.0163,-0.0161,-0.0159,-0.0062,0.0,0.0,0.0,0.0,0.0,0.0,0.0,0.0,0.0,0.0,0.0,0.0,0.0,0.0,0.0,0.0,0.0,0.0,0.0459,0.1427,0.1553,0.1534,0.1573,0.2631,0.387,0.5058,0.6269,0.7183,0.7383,0.7594,0.775,0.7814,0.788,0.7968,0.7988,0.7988,0.7988,0.7988,0.7988,0.7988,0.7988,0.7988,0.7988,0.7988,0.7988,0.7988,0.7988,0.7988,0.7988,0.7988,0.7988,0.7988,0.7988,0.7988,0.7988,0.7988,0.7988,0.7988,0.7988,0.7988,0.7988,0.7988,0.7988,0.7988,0.7995,0.8279,0.8445,0.8496,0.8726,0.8927,0.8937,0.8937,0.8937,-0.6738,-0.6189,-0.6019,-0.5245,-0.4037,-0.2879,-0.1481,0.0,0.0,-0.0353,-0.0902,-0.1411,-0.1606,-0.1606,-0.1606,-0.1254,-0.0706,-0.0235,0.0,0.0,0.0,0.0,0.0,-0.0451,-0.1188,-0.2039,-0.2558,-0.3247,-0.3923,-0.3601,-0.3129,-0.2638,-0.1755,-0.0873,0.0,0.0,0.0,0.0,0.0,0.0,0.0,0.0,0.0,0.0,0.0,0.0,0.0,0.0,0.0,0.0,0.0,0.0,0.0,0.0,0.0,0.0,0.0,0.0,0.0,0.0533,0.1134,0.1778,0.2358,0.2989,0.3705,0.4262,0.4775,0.5403,0.6644,0.7407,0.7535,0.7685,0.7845,0.7877,0.7951,0.7988,0.7988,0.7988,0.7988,0.7988,0.7988,0.7988,0.7988,0.7988,0.7988,0.7988,0.7988,0.7988,0.7988,0.7988,0.7988,0.7988,0.7988,0.7988,0.7988,0.7988,0.7988,0.7988,0.7988,0.7988,0.7988,0.7988,0.7988,0.7988,0.7988,0.7988,0.7992,0.8279,0.8442,0.8509,0.8726,0.8906,0.8937,0.8937,0.8937,-0.6204,-0.5395,-0.4954,-0.4039,-0.2846,-0.1738,-0.0766,0.0,0.0,-0.059,-0.15,-0.1572,-0.1606,-0.1606,-0.1606,-0.1137,-0.0432,-0.0118,0.0,0.0,0.0,0.0,0.0,-0.073,-0.1143,-0.1406,-0.2125,-0.2542,-0.2712,-0.2528,-0.2313,-0.2042,-0.1372,-0.0678,0.0,0.0,0.0,0.0,0.0,0.0,0.0,0.0,0.0,0.0,0.0,0.0,0.0,0.0,0.0,0.0,0.0,0.0,0.0,0.0,0.0,0.0,0.0,0.0114,0.0382,0.113,0.1914,0.2525,0.3331,0.4384,0.5564,0.5791,0.5819,0.5944,0.6833,0.7489,0.7634,0.778,0.786,0.7975,0.7988,0.7988,0.7988,0.7988,0.7988,0.7988,0.7988,0.7988,0.7988,0.7988,0.7988,0.7988,0.7988,0.7988,0.7988,0.7988,0.7988,0.7988,0.7988,0.7988,0.7988,0.7988,0.7988,0.7988,0.7988,0.7988,0.7988,0.7988,0.7988,0.7988,0.7988,0.7988,0.8008,0.8241,0.8414,0.8482,0.8693,0.8828,0.8875,0.8937,0.8937,-0.5492,-0.5223,-0.4184,-0.3039,-0.1856,-0.0663,0.0,0.0,0.0,-0.0596,-0.1489,-0.1583,-0.1568,-0.1606,-0.1606,-0.1489,-0.1254,-0.0432,0.0,0.0,0.0,0.0,0.0,0.0,-0.0625,-0.1444,-0.1633,-0.2031,-0.2633,-0.2029,-0.1226,-0.0363,-0.0142,0.0,0.0,0.0,0.0,0.0,0.0,0.0,0.0,0.0,0.0,0.0,0.0,0.0,0.0,0.0,0.0,0.0,0.0,0.0,0.0,0.0,0.0,0.0,0.0,0.042,0.1327,0.1675,0.2686,0.4536,0.4977,0.5648,0.6741,0.6905,0.7019,0.7151,0.7393,0.7624,0.7777,0.7874,0.7961,0.7978,0.7988,0.7988,0.7988,0.7988,0.7988,0.7988,0.7988,0.7988,0.7988,0.7988,0.7988,0.7988,0.7988,0.7988,0.7988,0.7988,0.7988,0.7988,0.7988,0.7988,0.7988,0.7988,0.7988,0.7988,0.7988,0.7988,0.7988,0.7988,0.7988,0.7988,0.7988,0.7988,0.8019,0.818,0.8385,0.8497,0.8608,0.8777,0.8893,0.8881,0.8878,-0.5001,-0.4241,-0.3037,-0.1856,-0.0737,-0.0213,0.0,0.0,0.0,-0.024,-0.0596,-0.067,-0.102,-0.1567,-0.1606,-0.1254,-0.0628,-0.0196,0.0,0.0,0.0,0.0,0.0,0.0,-0.0235,-0.0628,-0.0667,0.0,-0.1081,0.0,-0.0414,0.0,0.0,0.0,0.0,0.0,0.0,0.0,0.0,0.0,0.0,0.0,0.0,0.0,0.0,0.0,0.0,0.0,0.0,0.0,0.0,0.0,0.0,0.0,0.0,0.0,0.0614,0.1171,0.1716,0.2901,0.411,0.5233,0.5894,0.6548,0.7034,0.7095,0.7193,0.7468,0.7563,0.7658,0.7801,0.7901,0.7988,0.7988,0.7988,0.7988,0.7988,0.7988,0.7988,0.7988,0.7988,0.7988,0.7988,0.7988,0.7988,0.7988,0.7988,0.7988,0.7988,0.7988,0.7988,0.7988,0.7988,0.7988,0.7988,0.7988,0.7988,0.7988,0.7988,0.7988,0.7988,0.7988,0.7988,0.7988,0.7988,0.7988,0.7988,0.816,0.835,0.8397,0.856,0.8733,0.8798,0.8821,0.8868,-0.4947,-0.3481,-0.1968,-0.08,0.0,0.0,0.0,0.0,0.0,0.0162,0.0436,0.0436,0.0197,-0.0352,-0.0901,-0.0706,0.0,0.0,0.0,0.0,0.0,0.0,0.0,0.0,0.0,0.0,0.0,0.0,0.0,0.0,0.0,0.0,0.0,0.0,0.0,0.0,0.0,0.0,0.0,0.0,0.0,0.0,0.0,0.0,0.0,0.0,0.0,0.0,0.0,0.0,0.0,0.0,0.0,0.0,0.0149,0.0457,0.1164,0.1939,0.2586,0.411,0.5193,0.5769,0.6565,0.6984,0.7071,0.7095,0.7282,0.755,0.7597,0.7668,0.7858,0.7924,0.7985,0.7988,0.7988,0.7988,0.7988,0.7988,0.7988,0.7988,0.7988,0.7988,0.7988,0.7988,0.7988,0.7988,0.7988,0.7988,0.7988,0.7988,0.7988,0.7988,0.7988,0.7988,0.7988,0.7988,0.7988,0.7988,0.7988,0.7988,0.7988,0.7988,0.7988,0.7988,0.7988,0.7988,0.7992,0.8143,0.8238,0.8309,0.8462,0.8635,0.8645,0.8771,0.8852,-0.5684,-0.3349,-0.1076,-0.0135,0.0,0.0,0.0,0.0,0.0,0.0539,0.1422,0.1458,0.1999,0.2542,0.0745,-0.0039,0.0,0.0,0.0,0.0,0.0,0.0,0.0,0.0,0.0,0.0,0.0,0.0,0.0,0.0,0.0,0.0,0.0,0.0,0.0,0.0,0.0,0.0,0.0,0.0,0.0,0.0,0.0,0.0,0.0,0.0,0.0,0.0,0.0,0.0,0.0,0.0,0.0,0.0,0.042,0.1364,0.1606,0.2574,0.4331,0.4997,0.5616,0.657,0.6917,0.7082,0.7092,0.7095,0.7278,0.757,0.7597,0.7709,0.7914,0.7971,0.7988,0.7988,0.7988,0.7988,0.7988,0.7988,0.7988,0.7988,0.7988,0.7988,0.7988,0.7988,0.7988,0.7988,0.7988,0.7988,0.7988,0.7988,0.7988,0.7988,0.7988,0.7988,0.7988,0.7988,0.7988,0.7988,0.7988,0.7988,0.7988,0.7988,0.7988,0.7988,0.7988,0.7988,0.7992,0.8025,0.8136,0.8228,0.836,0.8476,0.8492,0.8621,0.8703,-0.5286,-0.2415,-0.1523,-0.0718,0.0,0.0,0.0,0.0,0.0,0.0636,0.1576,0.1635,0.2179,0.3155,0.1694,0.1019,0.102,0.102,0.0667,0.0,0.0,0.0,0.0,0.0,0.0,0.0,0.0,0.0,0.0,0.0667,0.102,0.1175,0.1669,0.1699,0.1159,0.1036,0.072,0.0,0.0,0.0,0.0,0.0,0.0,0.0,0.0,0.0,0.0,0.0,0.0,0.0,0.0,0.0,0.0,0.0,0.0466,0.1528,0.2343,0.3432,0.483,0.5829,0.6474,0.6913,0.7065,0.7095,0.7095,0.7105,0.7223,0.7522,0.7597,0.7733,0.7911,0.7988,0.7988,0.7988,0.7988,0.7988,0.7988,0.7988,0.7988,0.7988,0.7988,0.7988,0.7988,0.7988,0.7988,0.7988,0.7988,0.7988,0.7988,0.7988,0.7988,0.7988,0.7988,0.7988,0.7988,0.7988,0.7988,0.7988,0.7988,0.7988,0.7988,0.7988,0.7988,0.7988,0.7988,0.7988,0.7992,0.7995,0.8046,0.8123,0.8258,0.833,0.8343,0.8472,0.854,-0.5161,-0.3038,-0.2103,-0.1344,-0.0538,-0.0135,0.0,0.0,0.0,0.0864,0.21,0.2203,0.2755,0.3561,0.2988,0.2207,0.1608,0.1254,0.0706,0.0,0.0,0.0,0.0,0.0,0.0,0.0,0.0392,0.0667,0.1058,0.1722,0.2073,0.2152,0.2812,0.2581,0.1762,0.1606,0.1088,0.0,0.0,0.0,0.0,0.0,0.0,0.0,0.0,0.0,0.0,0.0,0.0,0.0,0.0,0.0,0.0,0.0,0.0628,0.1962,0.2879,0.4046,0.5432,0.6414,0.6943,0.7078,0.7095,0.7095,0.7098,0.7183,0.7343,0.7536,0.7655,0.7777,0.7914,0.7988,0.7988,0.7988,0.7988,0.7988,0.7988,0.7988,0.7988,0.7988,0.7988,0.7988,0.7988,0.7988,0.7988,0.7988,0.7988,0.7988,0.7988,0.7988,0.7988,0.7988,0.7988,0.7988,0.7988,0.7988,0.7988,0.7988,0.7988,0.7988,0.7988,0.7988,0.7988,0.7988,0.7988,0.7988,0.7988,0.7988,0.8041,0.8048,0.8102,0.8187,0.8241,0.8313,0.8377,-0.5403,-0.4912,-0.286,-0.188,-0.1522,-0.0584,0.0,0.0,0.0,0.1139,0.2845,0.3126,0.3498,0.4496,0.421,0.3438,0.1695,0.0629,0.0,0.0,0.0,0.0,0.0,0.0,0.0,0.0,0.1137,0.2074,0.2812,0.3008,0.3124,0.3124,0.3163,0.2813,0.1645,0.1645,0.1058,0.0,0.0,0.0,0.0,0.0,0.0,0.0,0.0,0.0,0.0,0.0,0.0,0.0,0.0,0.0,0.0,0.0,0.0941,0.2627,0.3237,0.4458,0.6271,0.6809,0.6967,0.7068,0.7095,0.7095,0.7112,0.7268,0.7421,0.7577,0.7719,0.782,0.7948,0.7988,0.7988,0.7988,0.7988,0.7988,0.7988,0.7988,0.7988,0.7988,0.7988,0.7988,0.7988,0.7988,0.7988,0.7988,0.7988,0.7988,0.7988,0.7988,0.7988,0.7988,0.7988,0.7988,0.7988,0.7988,0.7988,0.7988,0.7988,0.7988,0.7988,0.7988,0.7988,0.7988,0.7988,0.7988,0.7988,0.8038,0.8283,0.829,0.8215,0.8275,0.8528,0.8697,0.8333,-0.6113,-0.5356,-0.4599,-0.3261,-0.188,-0.1389,-0.0804,0.0,0.0,0.0,0.2106,0.2173,0.2792,0.3419,0.3046,0.2263,0.1524,0.0,0.0,0.0,0.0,0.0,0.0,0.0,0.0392,0.1176,0.215,0.2774,0.3163,0.3826,0.4217,0.4217,0.4178,0.3634,0.2581,0.1957,0.1058,0.0,0.0,0.0,0.0,0.0,0.0,0.0,0.0,0.0,0.0,0.0,0.0,0.0,0.0,0.0,0.0,0.0706,0.1722,0.2981,0.4053,0.5103,0.6424,0.6886,0.7041,0.7088,0.7095,0.7095,0.7109,0.7288,0.7438,0.7587,0.7729,0.7875,0.7951,0.7988,0.7988,0.7988,0.7988,0.7988,0.7988,0.7988,0.7988,0.7988,0.7988,0.7988,0.7988,0.7988,0.7988,0.7988,0.7988,0.7988,0.7988,0.7988,0.7988,0.7988,0.7988,0.7988,0.7988,0.7988,0.7988,0.7988,0.7988,0.7988,0.7988,0.7988,0.7988,0.7988,0.7988,0.7988,0.7988,0.8233,0.8577,0.8775,0.8836,0.8985,0.9225,0.9069,0.8682,-0.6694,-0.6027,-0.5581,-0.4556,-0.3129,-0.2683,-0.179,-0.0762,-0.0673,0.0269,0.1517,0.1721,0.2095,0.2459,0.1556,0.0782,0.0365,-0.036,-0.0633,-0.0511,-0.0118,0.0,0.0,0.0431,0.1137,0.2151,0.3205,0.3671,0.3746,0.4336,0.4491,0.4178,0.41,0.3556,0.262,0.1918,0.1059,0.0,0.0,0.0,0.0,0.0,0.0,0.0,0.0,0.0,0.0,0.0,0.0,0.0,0.0,0.0,0.0,0.0628,0.165,0.3066,0.405,0.5163,0.6544,0.696,0.7095,0.7095,0.7095,0.7095,0.7132,0.7319,0.7506,0.7597,0.7784,0.7936,0.7968,0.7988,0.7988,0.7988,0.7988,0.7988,0.7988,0.7988,0.7988,0.7988,0.7988,0.7988,0.7988,0.7988,0.7988,0.7988,0.7988,0.7988,0.7988,0.7988,0.7988,0.7988,0.7988,0.7988,0.7988,0.7988,0.7988,0.7988,0.7988,0.7988,0.7988,0.7988,0.7988,0.7988,0.7988,0.7988,0.8038,0.8726,0.9167,0.9266,0.9702,1.0194,1.0489,0.9612,0.9214,-0.7183,-0.6962,-0.5983,-0.5447,-0.509,-0.4152,-0.2994,-0.2013,-0.1879,-0.076,0.0938,0.0936,0.1193,0.1132,0.0,-0.0844,-0.1557,-0.1789,-0.1686,-0.1306,-0.0709,0.0,0.0,0.0941,0.184,0.2774,0.3865,0.4373,0.4254,0.4375,0.4098,0.332,0.3085,0.2618,0.1841,0.1568,0.0941,0.0,0.0,0.0,0.0,0.0,0.0,0.0,0.0,0.0,0.0,0.0,0.0,0.0,0.0,0.0,0.0,0.0039,0.1271,0.3229,0.3559,0.4912,0.6398,0.7007,0.7095,0.7095,0.7095,0.7095,0.7129,0.737,0.755,0.7607,0.7831,0.7958,0.7978,0.7988,0.7988,0.7988,0.7988,0.7988,0.7988,0.7988,0.7988,0.7988,0.7988,0.7988,0.7988,0.7988,0.7988,0.7988,0.7988,0.7988,0.7988,0.7988,0.7988,0.7988,0.7988,0.7988,0.7988,0.7988,0.7988,0.7988,0.7988,0.7988,0.7988,0.7988,0.7988,0.7988,0.8283,0.8184,0.8528,0.9361,1.0239,1.0823,1.1307,1.1799,1.1556,1.0823,1.0145,-0.7929,-0.7095,-0.6786,-0.616,-0.545,-0.5001,-0.4241,-0.3215,-0.3126,-0.2679,-0.2141,-0.2186,-0.1956,-0.2209,-0.2438,-0.2837,-0.3012,-0.3095,-0.2543,-0.1812,-0.1526,-0.0796,0.0039,0.1059,0.1723,0.2152,0.3125,0.3513,0.3513,0.3515,0.3318,0.3085,0.2267,0.1879,0.1568,0.0824,0.0353,0.0,0.0,0.0,0.0,0.0,0.0,0.0,0.0,0.0,0.0,0.0,0.0,0.0,0.0,0.0,0.0,0.0678,0.1734,0.318,0.4239,0.5283,0.6552,0.7018,0.7092,0.7095,0.7095,0.7095,0.7098,0.7316,0.7475,0.759,0.7773,0.7877,0.7961,0.7988,0.7988,0.7988,0.7988,0.7988,0.7988,0.7988,0.7988,0.7988,0.7988,0.7988,0.7988,0.7988,0.7988,0.7988,0.7988,0.7988,0.7988,0.7988,0.7988,0.7988,0.7988,0.7988,0.7988,0.7988,0.7988,0.7988,0.7988,0.7988,0.7988,0.7988,0.7988,0.7988,0.892,0.9118,0.9752,1.0534,1.1361,1.2231,1.2377,1.2624,1.2813,1.2377,1.1653,-0.7709,-0.7095,-0.7095,-0.6741,-0.616,-0.6115,-0.5445,-0.4508,-0.433,-0.4061,-0.3703,-0.3614,-0.3614,-0.3653,-0.41,-0.4276,-0.4235,-0.4314,-0.3901,-0.3162,-0.2236,-0.1121,0.0,0.1098,0.1606,0.1684,0.2579,0.2773,0.254,0.2464,0.2229,0.1721,0.1214,0.0941,0.0863,0.0,0.0,0.0,0.0,0.0,0.0,0.0,0.0,0.0,0.0,0.0,0.0,0.0,0.0,0.0,0.0,0.0,0.0,0.0565,0.1719,0.3283,0.4144,0.5119,0.6623,0.7055,0.7092,0.7095,0.7095,0.7095,0.7136,0.7329,0.7522,0.7597,0.7784,0.7933,0.7961,0.7988,0.7988,0.7988,0.7988,0.7988,0.7988,0.7988,0.7988,0.7988,0.7988,0.7988,0.7988,0.7988,0.7988,0.7988,0.7988,0.7988,0.7988,0.7988,0.7988,0.7988,0.7988,0.7988,0.7988,0.7988,0.7988,0.7988,0.7988,0.7988,0.7988,0.7988,0.8088,0.8333,0.9365,1.0194,1.073,1.1502,1.2571,1.3199,1.3253,1.3596,1.398,1.3686,1.3011,-0.7228,-0.7095,-0.7095,-0.7095,-0.7051,-0.7095,-0.6428,-0.5716,-0.5581,-0.5043,-0.4328,-0.4014,-0.4328,-0.4059,-0.5206,-0.5476,-0.534,-0.5513,-0.5122,-0.4174,-0.274,-0.1162,0.0,0.0784,0.1215,0.1372,0.2345,0.2111,0.1605,0.1411,0.0941,0.0,0.0,0.0,0.0,0.0,0.0,0.0,0.0,0.0,0.0,0.0,0.0,0.0,0.0,0.0,0.0,0.0,0.0,0.0,0.0197,0.0,0.0284,0.0285,0.1582,0.3384,0.4163,0.5,0.6615,0.7085,0.7095,0.7095,0.7095,0.7095,0.7142,0.7373,0.7543,0.7594,0.7855,0.7974,0.7982,0.7988,0.7988,0.7988,0.7988,0.7988,0.7988,0.7988,0.7988,0.7988,0.7988,0.7988,0.7988,0.7988,0.7988,0.7988,0.7988,0.7988,0.7988,0.7988,0.7988,0.7988,0.7988,0.7988,0.7988,0.7988,0.7988,0.7988,0.7988,0.7988,0.7988,0.8038,0.8184,0.8676,0.9948,1.0774,1.1307,1.2275,1.368,1.4268,1.4465,1.5099,1.5581,1.48,1.4076,-0.7973,-0.7095,-0.7095,-0.7095,-0.7095,-0.7095,-0.6962,-0.6694,-0.6694,-0.6425,-0.6334,-0.629,-0.6245,-0.6293,-0.647,-0.6719,-0.6593,-0.6493,-0.5823,-0.3809,-0.2536,-0.1162,0.0,0.0,0.0,0.0,0.0,0.0,0.0,0.0,0.0,0.0,0.0,0.0,0.0,0.0,0.0,0.0,0.0,0.0,0.0,0.0,0.0,0.0,0.0,0.0,0.0,0.0918,0.1408,0.1408,0.1451,0.1539,0.1596,0.2179,0.3294,0.4415,0.4971,0.5596,0.6776,0.7095,0.7095,0.7095,0.7095,0.7095,0.7105,0.7319,0.7478,0.7587,0.7756,0.788,0.7971,0.7988,0.7988,0.7988,0.7988,0.7988,0.7988,0.7988,0.7988,0.7988,0.7988,0.7988,0.7988,0.7988,0.7988,0.7988,0.7988,0.7988,0.7988,0.7988,0.7988,0.7988,0.7988,0.7988,0.7988,0.7988,0.7988,0.7988,0.7988,0.7988,0.7988,0.8134,0.8283,0.9312,1.073,1.1404,1.2032,1.3632,1.5092,1.5384,1.5486,1.5683,1.5683,1.5289,1.514,-0.7665,-0.7139,-0.7095,-0.7095,-0.7095,-0.7095,-0.7095,-0.7095,-0.7095,-0.7095,-0.7095,-0.7095,-0.7095,-0.7095,-0.7095,-0.7095,-0.7095,-0.7048,-0.5837,-0.3927,-0.2856,-0.1697,0.0,0.0,0.0,0.0,0.0,0.0,0.0,0.0,0.0,0.0,0.0,0.0,0.0,0.0,0.0,0.0,0.0,0.0,0.0,0.0,0.0,0.0,0.0,0.0197,0.0877,0.1408,0.2076,0.2631,0.3155,0.3175,0.2763,0.3248,0.4167,0.5143,0.5406,0.5935,0.6782,0.7095,0.7095,0.7095,0.7095,0.7095,0.7156,0.7336,0.7499,0.7624,0.7784,0.796,0.7978,0.7988,0.7988,0.7988,0.7988,0.7988,0.7988,0.7988,0.7988,0.7988,0.7988,0.7988,0.7988,0.7988,0.7988,0.7988,0.7988,0.7988,0.7988,0.7988,0.7988,0.7988,0.7988,0.7988,0.7988,0.7988,0.7988,0.7988,0.7988,0.7988,0.7988,0.8184,0.8428,0.9752,1.1116,1.228,1.3151,1.48,1.5778,1.573,1.5683,1.5778,1.573,1.5534,1.5534,-0.7095,-0.7095,-0.7095,-0.7095,-0.7095,-0.7095,-0.7095,-0.7095,-0.7095,-0.7095,-0.7095,-0.7095,-0.7095,-0.7095,-0.7095,-0.7095,-0.7095,-0.6956,-0.5853,-0.3804,-0.3488,-0.2039,0.0,0.0,0.0,0.0,0.0,0.0,0.0,0.0,0.0,0.0,0.0,0.0,0.0,0.0,0.0,0.0,0.0,0.0,0.0,0.0,0.0,0.0,0.0,0.0991,0.181,0.24,0.288,0.3829,0.5027,0.4988,0.4478,0.4181,0.4509,0.5661,0.5802,0.6248,0.6874,0.7095,0.7095,0.7095,0.7095,0.7119,0.7234,0.7414,0.7573,0.7709,0.7806,0.7971,0.7988,0.7988,0.7988,0.7988,0.7988,0.7988,0.7988,0.7988,0.7988,0.7988,0.7988,0.7988,0.7988,0.7988,0.7988,0.7988,0.7988,0.7988,0.7988,0.7988,0.7988,0.7988,0.7988,0.7988,0.7988,0.7988,0.7988,0.8137,0.8088,0.8184,0.8233,0.8676,0.9164,1.0145,1.1409,1.2619,1.3782,1.5099,1.573,1.5778,1.5825,1.5825,1.5825,1.5825,1.5825,-0.7095,-0.7095,-0.7095,-0.7095,-0.7095,-0.7095,-0.7095,-0.7095,-0.7095,-0.7095,-0.7095,-0.7095,-0.7095,-0.7095,-0.7095,-0.7095,-0.7095,-0.7,-0.5832,-0.3917,-0.3516,-0.2277,0.0,0.0,0.0,0.0,0.0,0.0,0.0,0.0,0.0,0.0,0.0,0.0,0.0,0.0,0.0,0.0,0.0,0.0,0.0,0.0,0.0,0.1022,0.1181,0.1913,0.3044,0.4004,0.475,0.5157,0.6231,0.6505,0.6333,0.6289,0.6442,0.6596,0.6653,0.6782,0.7051,0.7095,0.7095,0.7095,0.7095,0.7214,0.7326,0.7492,0.7641,0.779,0.7867,0.7988,0.7988,0.7988,0.7988,0.7988,0.7988,0.7988,0.7988,0.7988,0.7988,0.7988,0.7988,0.8038,0.8038,0.8134,0.8233,0.8134,0.7988,0.7988,0.7988,0.7988,0.7988,0.7988,0.7988,0.7988,0.7988,0.7988,0.8038,0.8333,0.8382,0.8577,0.8772,0.9312,1.0043,1.1263,1.2091,1.3006,1.422,1.5391,1.5683,1.5778,1.5825,1.5825,1.5825,1.5825,1.5825,-0.7095,-0.7095,-0.7095,-0.7095,-0.7095,-0.7095,-0.7095,-0.7095,-0.7095,-0.7095,-0.7095,-0.7095,-0.7095,-0.7095,-0.7095,-0.7095,-0.7095,-0.7095,-0.5766,-0.4005,-0.3471,-0.2326,-0.0261,0.0,0.0,0.0,0.0,0.0,0.0,0.0,0.0,0.0,0.0,0.0,0.0,0.0,0.0,0.0,0.0,0.0,0.0,0.0,0.0,0.1393,0.1879,0.2636,0.4216,0.4814,0.559,0.6222,0.6791,0.7044,0.7095,0.7095,0.7095,0.7095,0.7095,0.7095,0.7095,0.7095,0.7095,0.7095,0.7098,0.7214,0.736,0.7512,0.7699,0.783,0.7914,0.7988,0.7988,0.7988,0.7988,0.7988,0.7988,0.7988,0.7988,0.7988,0.7988,0.8137,0.8726,0.8726,0.8184,0.8283,0.8478,0.8379,0.8038,0.7988,0.7988,0.7988,0.7988,0.7988,0.7988,0.7988,0.8088,0.8283,0.8482,0.8676,0.9069,0.9213,0.9752,1.0485,1.1502,1.2716,1.3343,1.3782,1.4609,1.573,1.5778,1.5825,1.5825,1.5825,1.5825,1.5825,1.5825,-0.7095,-0.7095,-0.7095,-0.7095,-0.7095,-0.7095,-0.7095,-0.7095,-0.7095,-0.7095,-0.7095,-0.7095,-0.7095,-0.7095,-0.7095,-0.7095,-0.7095,-0.7095,-0.5883,-0.441,-0.3696,-0.2365,-0.0896,0.0,0.0,0.0,0.0,0.0,0.0,0.0,0.0,0.0,0.0,0.0,0.0,0.0,0.0,0.0,0.0,0.0,0.0,0.0,0.0719,0.1952,0.212,0.328,0.5398,0.5729,0.6192,0.6768,0.7092,0.7095,0.7095,0.7095,0.7095,0.7095,0.7095,0.7095,0.7095,0.7095,0.7095,0.7095,0.7132,0.7272,0.7431,0.7621,0.7804,0.7938,0.7988,0.7988,0.7988,0.7988,0.7988,0.7988,0.7988,0.7988,0.7988,0.7988,0.7988,0.8428,0.9361,0.9213,0.8379,0.8184,0.8333,0.8283,0.7988,0.7988,0.7988,0.7988,0.7988,0.7988,0.7988,0.7988,0.8187,0.863,0.8973,0.946,1.0047,1.0534,1.1214,1.1945,1.2915,1.368,1.4268,1.4704,1.5439,1.5825,1.5825,1.5825,1.5825,1.5825,1.5825,1.5825,1.5825,-0.7095,-0.7095,-0.7095,-0.7095,-0.7095,-0.7051,-0.7095,-0.7095,-0.7095,-0.7095,-0.7095,-0.7095,-0.7095,-0.7095,-0.7095,-0.7095,-0.7095,-0.7007,-0.634,-0.4999,-0.415,-0.2992,-0.1522,-0.0449,0.0,0.0,0.0,0.0,0.0,0.0,0.0,0.0,0.0,0.0,0.0,0.0,0.0,0.0,0.0,0.0,0.0,0.0,0.0,0.2488,0.3217,0.4137,0.6187,0.6565,0.6837,0.6983,0.7095,0.7095,0.7095,0.7095,0.7095,0.7095,0.7095,0.7095,0.7095,0.7095,0.7095,0.7163,0.7234,0.74,0.756,0.7784,0.7914,0.7961,0.7988,0.7988,0.7988,0.7988,0.7988,0.7988,0.7988,0.7988,0.7988,0.7988,0.7988,0.8233,0.897,0.8772,0.8233,0.8184,0.8137,0.8038,0.7988,0.7988,0.7988,0.7988,0.7988,0.7988,0.7988,0.7988,0.8333,0.8775,0.9657,1.0194,1.1068,1.1848,1.2673,1.3355,1.3542,1.4262,1.4895,1.5473,1.6001,1.615,1.592,1.592,1.6008,1.592,1.5825,1.5825,1.5872,-0.7095,-0.7051,-0.6384,-0.6517,-0.7007,-0.6425,-0.6517,-0.7007,-0.7095,-0.7095,-0.7095,-0.7095,-0.7095,-0.7095,-0.7095,-0.7095,-0.7095,-0.7095,-0.6473,-0.5628,-0.4732,-0.3618,-0.2058,-0.1255,-0.0807,0.0,0.0,0.0,0.0,0.0,0.0,0.0,0.0,0.0,0.0,0.0,0.0,0.0,0.0,0.0,0.0,0.0,0.1116,0.3323,0.3456,0.4834,0.639,0.7007,0.7028,0.7095,0.7095,0.7095,0.7095,0.7095,0.7095,0.7095,0.7095,0.7095,0.7095,0.7095,0.7095,0.7105,0.7224,0.7333,0.7584,0.7806,0.7988,0.7988,0.7988,0.7988,0.7988,0.7988,0.7988,0.7988,0.7988,0.7988,0.7988,0.7988,0.8038,0.8283,0.8428,0.8283,0.8283,0.8581,0.8382,0.8038,0.7988,0.7988,0.7988,0.7988,0.7988,0.7988,0.7988,0.7988,0.8478,0.897,1.0337,1.1165,1.2425,1.3253,1.413,1.4711,1.4752,1.4895,1.5432,1.5961,1.6567,1.6473,1.6197,1.6244,1.6292,1.6608,1.6835,1.6015,1.6015,-0.7095,-0.7007,-0.5894,-0.6071,-0.6962,-0.5894,-0.6071,-0.7051,-0.7095,-0.7095,-0.7095,-0.7095,-0.7095,-0.7095,-0.7095,-0.7095,-0.7095,-0.7095,-0.6605,-0.6024,-0.5359,-0.4378,-0.3129,-0.2326,-0.13,-0.0404,0.0,0.0,0.0,0.0,0.0,0.0,0.0,0.0,0.0,0.0,0.0,0.0,0.0,0.0,0.0,0.0,0.1692,0.302,0.4065,0.501,0.6719,0.7092,0.7092,0.7095,0.7095,0.7095,0.7095,0.7095,0.7095,0.7095,0.7095,0.7095,0.7095,0.7095,0.7095,0.7119,0.7223,0.7444,0.7702,0.7884,0.7988,0.7988,0.7988,0.7988,0.7988,0.7988,0.7988,0.7988,0.7988,0.7988,0.7988,0.7988,0.7988,0.8088,0.8184,0.8134,0.8333,0.8924,0.8775,0.8187,0.7988,0.7988,0.7988,0.7988,0.8038,0.8137,0.8627,0.8726,0.9164,0.9801,1.1019,1.2139,1.3397,1.4316,1.5003,1.5486,1.5676,1.5872,1.6109,1.6983,1.7809,1.7163,1.6615,1.725,1.7848,1.8118,1.7979,1.7023,1.615,-0.7095,-0.7007,-0.5894,-0.6068,-0.7007,-0.5894,-0.6071,-0.7095,-0.7095,-0.7095,-0.7095,-0.7095,-0.7095,-0.7095,-0.7095,-0.7095,-0.7095,-0.7095,-0.6959,-0.6561,-0.5938,-0.5314,-0.4243,-0.2994,-0.179,-0.1343,0.0,0.0,0.0,0.0,0.0,0.0,0.0,0.0,0.0,0.0,0.0,0.0,0.0,0.0,0.0,0.0861,0.2129,0.3442,0.4672,0.5841,0.7007,0.7095,0.7095,0.7095,0.7095,0.7095,0.7095,0.7095,0.7095,0.7095,0.7095,0.7095,0.7095,0.7095,0.7098,0.7176,0.7331,0.7614,0.7858,0.7924,0.7988,0.7988,0.7988,0.7988,0.7988,0.7988,0.7988,0.7988,0.7988,0.7988,0.7988,0.7988,0.7988,0.7988,0.7988,0.7988,0.7988,0.8531,0.8676,0.8088,0.7988,0.7988,0.7988,0.7988,0.8137,0.8432,0.9312,0.9752,1.019,1.1116,1.2425,1.3295,1.4268,1.4949,1.5581,1.5967,1.6062,1.681,1.7131,1.8087,1.8902,1.8534,1.848,1.9031,1.9306,1.9077,1.8856,1.8172,1.7077,-0.7095,-0.7007,-0.5891,-0.6071,-0.7007,-0.5894,-0.6027,-0.7007,-0.7095,-0.7095,-0.7095,-0.7095,-0.7095,-0.7095,-0.7095,-0.7095,-0.7095,-0.7095,-0.7095,-0.7007,-0.6605,-0.6071,-0.5043,-0.3838,-0.2547,-0.1745,0.0,0.0,0.0,0.0,0.0,0.0,0.0,0.0,0.0,0.0,0.0,0.0,0.0,0.0,0.0,0.0435,0.162,0.3517,0.3881,0.5354,0.6738,0.7051,0.7095,0.7095,0.7095,0.7095,0.7095,0.7095,0.7095,0.7095,0.7095,0.7095,0.7095,0.7105,0.7136,0.7312,0.7482,0.7692,0.7916,0.7931,0.7978,0.7988,0.7988,0.7988,0.7988,0.7988,0.7988,0.7988,0.7988,0.7988,0.7988,0.7988,0.7988,0.7988,0.7988,0.7988,0.7988,0.8038,0.8088,0.7988,0.7988,0.7988,0.8038,0.8283,0.8531,0.9114,1.0043,1.0823,1.1263,1.2522,1.3878,1.4459,1.5045,1.5432,1.5825,1.5825,1.6109,1.7037,1.8095,1.8864,1.9488,1.9889,2.0206,2.0486,2.0079,1.9451,1.9222,1.9139,1.8265,-0.7095,-0.7007,-0.6251,-0.634,-0.6915,-0.5891,-0.6024,-0.7007,-0.7095,-0.7095,-0.7095,-0.7095,-0.7095,-0.7095,-0.7095,-0.7095,-0.7095,-0.7095,-0.7095,-0.7051,-0.6918,-0.6605,-0.5622,-0.4419,-0.3081,-0.2057,0.0,0.0,0.0,0.0,0.0,0.0,0.0,0.0,0.0,0.0,0.0,0.0,0.0,0.0,0.0,0.0966,0.1671,0.3698,0.4414,0.5531,0.6738,0.7095,0.7095,0.7095,0.7095,0.7095,0.7095,0.7095,0.7095,0.7095,0.7095,0.7095,0.7095,0.7109,0.7193,0.7421,0.7516,0.7692,0.7851,0.7977,0.7982,0.7988,0.7988,0.7988,0.8038,0.7988,0.7988,0.7988,0.7988,0.7988,0.7988,0.7988,0.7988,0.7988,0.7988,0.7988,0.7988,0.8038,0.8088,0.8088,0.7988,0.8038,0.8137,0.8531,0.9167,0.9899,1.0921,1.1648,1.2377,1.3686,1.4752,1.4949,1.5432,1.5581,1.5825,1.5825,1.6608,1.8041,1.8956,1.9633,2.0449,2.1311,2.1623,2.18,2.1266,2.0728,2.0215,2.0079,1.9451,-0.7095,-0.7095,-0.7051,-0.7051,-0.6962,-0.5894,-0.6071,-0.7051,-0.7095,-0.7095,-0.7095,-0.7095,-0.7095,-0.7095,-0.7095,-0.7095,-0.7095,-0.7095,-0.7095,-0.7095,-0.7095,-0.7003,-0.6154,-0.4905,-0.3438,-0.2994,0.0,0.0,0.0,0.0,0.0,0.0,0.0,0.0,0.0,0.0,0.0,0.0,0.0,0.0,0.0,0.1781,0.285,0.3833,0.5265,0.6337,0.6915,0.7095,0.7095,0.7095,0.7095,0.7095,0.7095,0.7095,0.7095,0.7095,0.7095,0.7095,0.7095,0.7095,0.7285,0.7506,0.759,0.7811,0.7989,0.8134,0.8283,0.8478,0.8333,0.8134,0.8038,0.7988,0.7988,0.7988,0.7988,0.7988,0.7988,0.7988,0.7988,0.7988,0.7988,0.7988,0.8038,0.8038,0.8187,0.8187,0.8038,0.8137,0.8382,0.8924,0.9706,1.1068,1.2086,1.2861,1.3734,1.4806,1.5588,1.5683,1.573,1.5778,1.5825,1.5825,1.6976,1.8772,1.9542,1.9906,2.1409,2.296,2.2721,2.2492,2.2721,2.2315,2.1712,2.098,2.0305,-0.7095,-0.7095,-0.7095,-0.7095,-0.7051,-0.6694,-0.6786,-0.7051,-0.7095,-0.7095,-0.7095,-0.7095,-0.7095,-0.7095,-0.7095,-0.7095,-0.7095,-0.7095,-0.7095,-0.7095,-0.7095,-0.7095,-0.6378,-0.4949,-0.3659,-0.2948,0.0,0.0,0.0,0.0,0.0,0.0,0.0,0.0,0.0,0.0,0.0,0.0,0.0,0.0,0.0,0.1612,0.2904,0.366,0.5356,0.6428,0.7051,0.7095,0.7095,0.7095,0.7095,0.7095,0.7095,0.7095,0.7095,0.7095,0.7095,0.7095,0.7095,0.7119,0.7288,0.7482,0.7614,0.8064,0.9053,0.9304,0.9312,0.9266,0.9167,0.8825,0.8283,0.8038,0.7988,0.7988,0.7988,0.7988,0.7988,0.7988,0.7988,0.7988,0.7988,0.8088,0.8137,0.8726,0.897,0.9019,0.897,0.9114,0.941,0.9752,1.0435,1.2183,1.344,1.4172,1.4997,1.5534,1.5778,1.5778,1.5778,1.5778,1.5825,1.5825,1.7023,1.868,1.9405,2.0178,2.1765,2.3003,2.3091,2.3091,2.3101,2.3091,2.2536,2.1756,2.1069,-0.7095,-0.7095,-0.7095,-0.7095,-0.7095,-0.7095,-0.7095,-0.7095,-0.7095,-0.7095,-0.7095,-0.7095,-0.7095,-0.7095,-0.7095,-0.7095,-0.7095,-0.7095,-0.7095,-0.7095,-0.7095,-0.7095,-0.6378,-0.4861,-0.3792,-0.2903,0.0,0.0,0.0,0.0,0.0,0.0,0.0,0.0,0.0,0.0,0.0,0.0,0.0,0.0,0.0897,0.1969,0.3127,0.4241,0.5445,0.6428,0.6918,0.7095,0.7095,0.7095,0.7095,0.7095,0.7095,0.7095,0.7095,0.7095,0.7095,0.7095,0.7095,0.7095,0.7272,0.7468,0.7553,0.8372,0.9563,0.98,0.9891,0.9903,1.0002,0.9217,0.8333,0.8088,0.7988,0.7988,0.7988,0.7988,0.7988,0.7988,0.8088,0.8088,0.8283,0.8333,0.8676,0.9312,0.9899,0.9948,0.9998,1.0288,1.0578,1.1014,1.1502,1.3006,1.4316,1.4949,1.5337,1.5629,1.5778,1.5825,1.5825,1.5825,1.5825,1.5872,1.721,1.8403,1.9131,2.0178,2.1952,2.2906,2.2721,2.2862,2.3101,2.3091,2.3091,2.2306,2.1382,-0.7095,-0.7095,-0.7095,-0.7095,-0.7095,-0.7095,-0.7095,-0.7095,-0.7095,-0.7095,-0.7095,-0.7095,-0.7095,-0.7095,-0.7095,-0.7095,-0.7095,-0.7095,-0.7095,-0.7095,-0.7095,-0.7095,-0.6334,-0.4816,-0.3837,-0.2814,0.0,0.0,0.0,0.0,0.0,0.0,0.0,0.0,0.0,0.0,0.0,0.0,0.0,0.0,0.1389,0.2726,0.384,0.4999,0.616,0.6782,0.7095,0.7095,0.7095,0.7095,0.7095,0.7095,0.7095,0.7095,0.7095,0.7095,0.7095,0.7095,0.7095,0.7095,0.7149,0.736,0.7495,0.844,0.9324,0.9919,0.993,0.9981,0.9953,0.9118,0.8283,0.8134,0.7988,0.7988,0.7988,0.7988,0.7988,0.8038,0.8134,0.8333,0.8627,0.9019,0.9899,1.0534,1.1263,1.1697,1.194,1.2328,1.2571,1.2662,1.3151,1.3782,1.4902,1.5534,1.5825,1.5825,1.5825,1.5825,1.5825,1.5825,1.5825,1.592,1.6842,1.7855,1.8818,2.0223,2.2183,2.2589,2.212,2.2394,2.3003,2.2731,2.2589,2.2031,2.1203,-0.7095,-0.7095,-0.7095,-0.7095,-0.7095,-0.7095,-0.7095,-0.7095,-0.7095,-0.7095,-0.7095,-0.7095,-0.7095,-0.7095,-0.7095,-0.7095,-0.7095,-0.7095,-0.7095,-0.7007,-0.6738,-0.7007,-0.6201,-0.4727,-0.3837,-0.2771,0.0,0.0,0.0,0.0,0.0,0.0,0.0,0.0,0.0,0.0,0.0,0.0,0.0,0.0,0.1835,0.3037,0.4241,0.5489,0.6517,0.7007,0.7095,0.7095,0.7095,0.7095,0.7095,0.7095,0.7095,0.7095,0.7095,0.7095,0.7095,0.7095,0.7095,0.7095,0.7122,0.7234,0.7356,0.8311,0.9242,0.9765,0.9854,0.9966,0.994,0.9266,0.8528,0.8233,0.8283,0.8382,0.8482,0.8726,0.8726,0.8726,0.8871,0.941,0.9702,1.0386,1.1214,1.2037,1.2764,1.3343,1.383,1.4124,1.422,1.4214,1.4364,1.4902,1.5194,1.573,1.5825,1.5825,1.5825,1.5825,1.5825,1.5825,1.5825,1.6015,1.6574,1.7451,1.8588,2.0449,2.2599,2.2448,2.1756,2.2492,2.3047,2.2545,2.2031,2.1436,2.0845,-0.7095,-0.7051,-0.6605,-0.6428,-0.6517,-0.6918,-0.7095,-0.7095,-0.7095,-0.7095,-0.7095,-0.7095,-0.7095,-0.7095,-0.7095,-0.6871,-0.6381,-0.6293,-0.6113,-0.5487,-0.5844,-0.5575,-0.4905,-0.4016,-0.3038,-0.2147,0.0,0.0,0.0,0.0,0.0,0.0,0.0,0.0,0.0,0.0,0.0,0.0,0.0,0.0,0.2102,0.3215,0.4419,0.58,0.6782,0.7007,0.7095,0.7095,0.7095,0.7095,0.7095,0.7095,0.7095,0.7095,0.7095,0.7095,0.7095,0.7095,0.7095,0.7095,0.7095,0.7119,0.7234,0.7791,0.8648,0.9286,0.9596,0.989,0.9836,0.9608,0.8924,0.8432,0.8627,0.8874,0.9213,0.9608,0.9653,0.9653,1.0096,1.073,1.1312,1.194,1.2668,1.3488,1.4166,1.4609,1.4902,1.5092,1.5146,1.5045,1.5099,1.5439,1.5588,1.5825,1.5825,1.5825,1.5825,1.5825,1.5825,1.5825,1.5825,1.6103,1.6615,1.749,1.8495,2.0404,2.2315,2.1996,2.1623,2.2448,2.3003,2.2536,2.18,2.08,2.0161,-0.7048,-0.6827,-0.5714,-0.5359,-0.5581,-0.6473,-0.6962,-0.7095,-0.7095,-0.7095,-0.7095,-0.7095,-0.7095,-0.7095,-0.7095,-0.665,-0.616,-0.5847,-0.5312,-0.3794,-0.4105,-0.4148,-0.3748,-0.2503,-0.2236,-0.1522,0.0,0.0,0.0,0.0,0.0,0.0,0.0,0.0,0.0,0.0,0.0,0.0,0.0,0.0897,0.2592,0.3705,0.4594,0.6381,0.6962,0.7095,0.7095,0.7095,0.7095,0.7095,0.7095,0.7095,0.7095,0.7095,0.7095,0.7095,0.7095,0.7095,0.7095,0.7095,0.7095,0.7095,0.7146,0.7331,0.7998,0.8656,0.9033,0.9216,0.9116,0.9395,0.8973,0.9167,0.946,0.9998,1.0485,1.0779,1.0823,1.1068,1.1697,1.228,1.2818,1.3397,1.3836,1.4609,1.4752,1.5439,1.5683,1.5778,1.5778,1.5629,1.5683,1.5784,1.5784,1.5825,1.5825,1.5825,1.5825,1.5825,1.5825,1.5825,1.5825,1.6197,1.6709,1.749,1.8365,1.9997,2.1355,2.1302,2.1712,2.2633,2.2906,2.2536,2.1712,2.0711,1.9625,-0.6561,-0.5714,-0.4508,-0.451,-0.5359,-0.5669,-0.6337,-0.7095,-0.7095,-0.7095,-0.7095,-0.7095,-0.7095,-0.7095,-0.7095,-0.6786,-0.6473,-0.5625,-0.5267,-0.4419,-0.3883,-0.317,-0.326,-0.2102,-0.1745,-0.1433,0.0,0.0,0.0,0.0,0.0,0.0,0.0,0.0,0.0,0.0,0.0,0.0,0.0,0.0,0.2147,0.3349,0.4372,0.5755,0.6381,0.7051,0.7095,0.7095,0.7095,0.7095,0.7095,0.7095,0.7095,0.7095,0.7095,0.7095,0.7095,0.7095,0.7095,0.7095,0.7095,0.7095,0.7098,0.7119,0.7413,0.788,0.8211,0.8338,0.8537,0.886,0.9316,0.9752,1.0386,1.1072,1.1901,1.1994,1.2139,1.2716,1.3349,1.3788,1.4322,1.4663,1.5099,1.5337,1.5534,1.5635,1.573,1.5825,1.5825,1.573,1.573,1.5778,1.5778,1.5825,1.5825,1.5825,1.5825,1.5825,1.5825,1.5825,1.5825,1.6055,1.6433,1.7217,1.8234,1.9906,2.1078,2.1346,2.1845,2.2775,2.3003,2.2677,2.2173,2.1311,1.9861,-0.6377,-0.5309,-0.4105,-0.3972,-0.4643,-0.5179,-0.6027,-0.6962,-0.7095,-0.7095,-0.7095,-0.7095,-0.7095,-0.7095,-0.7095,-0.6738,-0.6428,-0.5714,-0.4465,-0.3707,-0.3349,-0.2415,0.0,0.0,-0.1076,0.0,0.0,0.0,0.0,0.0,0.0,0.0,0.0,0.0,0.0,0.0,0.0,0.0,0.0,0.0,0.1834,0.2992,0.4194,0.5356,0.6337,0.6962,0.7095,0.7095,0.7095,0.7095,0.7095,0.7095,0.7095,0.7095,0.7095,0.7095,0.7095,0.7095,0.7095,0.7095,0.7095,0.7095,0.7095,0.7112,0.7162,0.7611,0.7799,0.7968,0.807,0.8342,0.9136,0.9706,1.0779,1.1609,1.3113,1.4082,1.413,1.4418,1.4704,1.4854,1.5194,1.5296,1.5534,1.5534,1.573,1.573,1.5778,1.5825,1.5825,1.5825,1.5825,1.5825,1.5825,1.5825,1.5825,1.5825,1.5825,1.5825,1.5825,1.5825,1.5825,1.5872,1.6157,1.7404,1.8688,1.9997,2.0944,2.1525,2.2076,2.2906,2.3003,2.2862,2.2271,2.1543,1.9906,-0.6195,-0.5019,-0.3645,-0.3341,-0.3748,-0.4688,-0.5891,-0.6962,-0.7095,-0.7095,-0.7095,-0.7095,-0.7095,-0.7095,-0.7051,-0.6381,-0.5847,-0.5581,-0.4154,-0.2815,-0.2147,-0.1522,0.0,0.0,0.0,0.0,0.0,0.0,0.0,0.0,0.0,0.0,0.0,0.0,0.0,0.0,0.0,0.0,0.0,0.0,0.2013,0.3037,0.4196,0.5356,0.6425,0.7051,0.7095,0.7095,0.7095,0.7095,0.7095,0.7095,0.7095,0.7095,0.7095,0.7095,0.7095,0.7095,0.7095,0.7095,0.7095,0.7095,0.7095,0.7119,0.7166,0.727,0.7499,0.7662,0.776,0.822,0.9011,1.0096,1.1219,1.2484,1.4226,1.5588,1.5635,1.5635,1.5683,1.573,1.573,1.5825,1.5825,1.5825,1.5825,1.5825,1.5825,1.5825,1.5825,1.5825,1.5825,1.5825,1.5825,1.5825,1.5825,1.5825,1.5825,1.5825,1.5825,1.5825,1.5825,1.5825,1.6567,1.818,1.9451,2.0314,2.1445,2.2306,2.2809,2.3091,2.3047,2.2818,2.1854,2.0989,1.9633,-0.5591,-0.3615,-0.1571,-0.1761,-0.3474,-0.3879,-0.5129,-0.6918,-0.7095,-0.7095,-0.7095,-0.7095,-0.7095,-0.7095,-0.7095,-0.6782,-0.6514,-0.5935,-0.4732,-0.3438,-0.2415,-0.121,0.0,0.0,0.0,0.0,0.0,0.0,0.0,0.0,0.0,0.0,0.0,0.0,0.0,0.0135,0.0539,0.0941,0.1567,0.2057,0.2904,0.3749,0.4239,0.5354,0.647,0.6915,0.7095,0.7095,0.7095,0.7095,0.7095,0.7095,0.7095,0.7095,0.7095,0.7095,0.7095,0.7095,0.7095,0.7095,0.7095,0.7095,0.7095,0.7098,0.7132,0.7152,0.74,0.7634,0.7904,0.8461,0.9349,1.0725,1.195,1.3403,1.5003,1.5486,1.573,1.573,1.5778,1.5778,1.5778,1.5825,1.5825,1.5825,1.5825,1.5825,1.5825,1.5825,1.5825,1.5825,1.5825,1.5825,1.5825,1.5825,1.5825,1.5825,1.5825,1.5825,1.5825,1.5825,1.5825,1.5825,1.6749,1.8449,1.9451,2.0215,2.14,2.2818,2.295,2.3091,2.3091,2.2775,2.1667,2.044,1.9039]},{"header":{"parameterUnit":"m.s-1","parameterCategory":1,"la1":31.0,"la2":29.5877,"lo1":-88.7671,"lo2":-86.6584,"dy":0.0162,"dx":0.0185,"nx":115,"ny":88,"refTime":"2024-08-22T12:00:00:Z","depth":0,"parameterNumber":3,"parameterNumberName":"V-component_of_WINDS"},"data":[0.0,0.0,0.0,0.0,0.0,0.0,0.0,0.0,0.0,0.0,0.0,0.0,0.0,0.0,0.0,0.0,0.0,0.0,0.0,0.0,0.0,0.0,0.0,0.0,0.0,0.0,0.0,0.0,0.0,0.0,0.0,0.0,0.0,0.0,0.0,0.0,0.0,0.0,0.0,0.0,0.0,0.0,0.0,0.0,0.0,0.0,0.0,0.0,0.0,0.0,0.0,0.0,0.0,0.0,0.0,0.0,0.0,0.0,0.0,0.0,0.0,0.0,0.0,0.0,0.0,0.0,0.0,0.0,0.0,0.0,0.0,0.0,0.0,0.0,0.0,0.0,0.0,0.0,0.0,0.0,0.0,0.0,0.0,0.0,0.0,0.0,0.0,0.0,0.0,0.0,0.0,0.0,0.0,0.0,0.0,0.0,0.0,0.0,0.0,0.0,0.0,0.0,0.0,0.0,0.0,0.0,0.0,0.0,0.0,0.0,0.0,0.0,0.0,0.0,0.0,0.0,0.0,0.0,0.0,0.0,0.0,0.0,0.0,0.0,0.0,0.0,0.0,0.0,0.0,0.0,0.0,0.0,0.0,0.0,0.0,0.0,0.0,0.0,0.0,0.0,0.0,0.0,0.0,0.0,0.0,0.0,0.0,0.0,0.0,0.0,0.0,0.0,0.0,0.0,0.0,0.0,0.0,0.0,0.0,0.0,0.0,0.0,0.0,0.0,0.0,0.0,0.0,0.0,0.0,0.0,0.0,0.0,0.0,0.0,0.0,0.0,0.0,0.0,0.0,0.0,0.0,0.0,0.0,0.0,0.0,0.0,0.0,0.0,0.0,0.0,0.0,0.0,0.0,0.0,0.0,0.0,0.0,0.0,0.0,0.0,0.0,0.0,0.0,0.0,0.0,0.0,0.0,0.0,0.0,0.0,0.0,0.0,0.0,0.0,0.0,0.0,0.0,0.0,0.0,0.0,0.0,0.0,0.0,0.0,0.0,0.0,0.0,0.0,0.0,0.0,0.0,0.0,0.0,0.0,0.0,0.0,0.0,0.0,0.0,0.0,0.0,0.0,0.0,0.0,0.0,0.0,0.0,0.0,0.0,0.0,0.0,0.0,0.0,0.0,0.0,0.0,0.0,0.0,0.0,0.0,0.0,0.0,0.0,0.0,0.0,0.0,0.0,0.0,0.0,0.0,0.0,0.0,0.0,0.0,0.0,0.0,0.0,0.0,0.0,0.0,0.0,0.0,0.0,0.0,0.0,0.0,0.0,0.0,0.0,0.0,0.0,0.0,0.0,0.0,0.0,0.0,0.0,0.0,0.0,0.0,0.0,0.0,0.0,0.0,0.0,0.0,0.0,0.0,0.0,0.0,0.0,0.0,0.0,0.0,0.0,0.0,0.0,0.0,0.0,0.0,0.0,0.0,0.0,0.0,0.0,0.0,0.0,0.0,0.0,0.0,0.0,0.0,0.0,0.0,0.0,0.0,0.0,0.0,0.0,0.0,0.0,0.0,0.0,0.0,0.0,0.0,0.0,0.0,0.0,0.0,0.0,0.0,0.0,0.0,0.0,0.0,0.0,0.0,0.0,0.0,0.0,0.0,0.0,0.0,0.0,0.0,0.0,0.0,0.0,0.0,0.0,0.0,0.0,0.0,0.0,0.0,0.0,0.0,0.0,0.0,0.0,0.0,0.0,0.0,0.0,0.0,0.0,0.0,0.0,0.0,0.0,0.0,0.0,0.0,0.0,0.0,0.0,0.0,0.0,0.0,0.0,0.0,0.0,0.0,0.0,0.0,0.0,0.0,0.0,0.0,0.0,0.0,0.0,0.0,0.0,0.0,0.0,0.0,0.0,0.0,0.0,0.0,0.0,0.0,0.0,0.0,0.0,0.0,0.0,0.0,0.0,0.0,0.0,0.0,0.0,0.0,0.0,0.0,0.0,0.0,0.0,0.0,0.0,0.0,0.0,0.0,0.0,0.0,0.0,0.0,0.0,0.0,0.0,0.0,0.0,0.0,0.0,0.0,0.0,0.0,0.0,0.0,0.0,0.0,0.0,0.0,0.0,0.0,0.0,0.0,0.0,0.0,0.0,0.0,0.0,0.0,0.0,0.0,0.0,0.0,0.0,0.0,0.0,0.0,0.0,0.0,0.0,0.0,0.0,0.0,0.0,0.0,0.0,0.0,0.0,0.0,0.0,0.0,0.0,0.0,0.0,0.0,0.0,0.0,0.0,0.0,0.0,0.0,0.0,0.0,0.0,0.0,0.0,0.0,0.0,0.0,0.0,0.0,0.0,0.0,0.0,0.0,0.0,0.0,0.0,0.0,0.0,0.0,0.0,0.0,0.0,0.0,0.0,0.0,0.0,0.0,0.0,0.0,0.0,0.0,0.0,0.0,0.0,0.0,0.0,0.0,0.0,0.0,0.0,0.0,0.0,0.0,0.0,0.0,0.0,0.0,0.0,0.0,0.0,0.0,0.0,0.0,0.0,0.0,0.0,0.0,0.0,0.0,0.0,0.0,0.0,0.0,0.0,0.0,0.0,0.0,0.0,0.0,0.0,0.0,0.0,0.0,0.0,0.0,0.0,0.0,0.0,0.0,0.0,0.0,0.0,0.0,0.0,0.0,0.0,0.0,0.0,0.0,0.0,0.0,0.0,0.0,0.0,0.0,0.0,0.0,0.0,0.0,0.0,0.0,0.0,0.0,0.0,0.0,0.0,0.0,0.0,0.0,0.0,0.0,0.0,0.0,0.0,0.0,0.0,0.0,0.0,0.0,0.0,0.0,0.0,0.0,0.0,0.0,0.0,0.0,0.0,0.0,0.0,0.0,0.0,0.0,0.0,0.0,0.0,0.0,0.0,0.0,0.0,0.0,0.0,0.0,0.0,0.0,0.0,0.0,0.0,0.0,0.0,0.0,0.0,0.0,0.0,0.0,0.0,0.0,0.0,0.0,0.0,0.0,0.0,0.0,0.0,0.0,0.0,0.0,0.0,0.0,0.0,0.0,0.0,0.0,0.0,0.0,0.0,0.0,0.0,0.0,0.0,0.0,0.0,0.0,0.0,0.0,0.0,0.0,0.0,0.0,0.0,0.0,0.0,0.0,0.0,0.0,0.0,0.0,0.0,0.0,0.0,0.0,0.0,0.0,0.0,0.0,0.0,0.0,0.0,0.0,0.0,0.0,0.0,0.0,0.0,0.0,0.0,0.0,0.0,0.0,0.0,0.0,0.0,0.0,0.0,0.0,0.0,0.0,0.0,0.0,0.0,0.0,0.0,0.0,0.0,0.0,0.0,0.0,0.0,0.0,0.0,0.0,0.0,0.0,0.0,0.0,0.0,0.0,0.0,0.0,0.0,0.0,0.0,0.0,0.0,0.0,0.0,0.0,0.0,0.0,0.0,0.0,0.0,0.0,0.0,0.0,0.0,0.0,0.0,0.0,0.0,0.0,0.0,0.0,0.0,0.0,0.0,0.0,0.0,0.0,0.0,0.0,0.0,0.0,0.0,0.0,0.0,0.0,0.0,0.0,0.0,0.0,0.0,0.0,0.0,0.0,0.0,0.0,0.0,0.0,0.0,0.0,0.0,0.0,0.0,0.0,0.0,0.0,0.0,0.0,0.0,0.0,0.0,0.0,0.0,0.0,0.0,0.0,0.0,0.0,0.0,0.0,0.0,0.0,0.0,0.0,0.0,0.0,0.0,0.0,0.0,0.0,0.0,0.0,0.0,0.0,0.0,0.0,0.0,0.0,0.0,0.0,0.0,0.0,0.0,0.0,0.0,0.0,0.0,0.0,0.0,0.0,0.0,0.0,0.0,0.0,0.0,0.0,0.0,0.0,0.0,0.0,0.0,0.0,0.0,0.0,0.0,0.0,0.0,0.0,0.0,0.0,0.0,0.0,0.0,0.0,0.0,0.0,0.0,0.0,0.0,0.0,0.0,0.0,0.0,0.0,0.0,0.0,0.0,0.0,0.0,0.0,0.0,0.0,0.0,0.0,0.0,0.0,0.0,0.0,0.0,0.0,0.0,0.0,0.0,0.0,0.0,0.0,0.0,0.0,0.0,0.0,0.0,0.0,0.0,0.0,0.0,0.0,0.0,0.0,0.0,0.0,0.0,0.0,0.0,0.0,0.0,0.0,0.0,0.0,0.0,0.0,0.0,0.0,0.0,0.0,0.0,0.0,0.0,0.0,0.0,0.0,0.0,0.0,0.0,0.0,0.0,0.0,0.0,0.0,0.0,0.0,0.0,0.0,0.0,0.0,0.0,0.0,1.9396,0.0,0.0,0.0,0.0,0.0,0.0,0.0,0.0,0.0,0.0,0.0,0.0,0.0,0.0,0.0,0.0,0.0,0.0,0.0,0.0,0.0,0.0,0.0,0.0,0.0,0.0,0.0,0.0,0.0,0.0,0.0,0.0,0.0,0.0,0.0,0.0,0.0,0.0,0.0,0.0,0.0,0.0,0.0,0.0,0.0,0.0,0.0,0.0,0.0,0.0,0.0,0.0,0.0,0.0,0.0,0.0,0.0,0.0,0.0,0.0,0.0,0.0,0.0,0.0,0.0,0.0,0.0,0.0,0.0,0.0,0.0,0.0,0.0,0.0,0.0,0.0,0.0,0.0,0.0,0.0,0.0,0.0,0.0,0.0,0.0,0.0,0.0,0.0,0.0,0.0,0.0,0.0,0.0,0.0,0.0,0.0,0.0,0.0,0.0,0.0,0.0,0.0,0.0,0.0,0.0,0.0,0.0,0.0,0.0,0.0,2.0355,2.0347,1.9931,1.9534,1.9216,0.0,0.0,0.0,0.0,0.0,0.0,0.0,0.0,0.0,0.0,0.0,0.0,0.0,0.0,0.0,0.0,0.0,0.0,0.0,0.0,0.0,0.0,0.0,0.0,0.0,0.0,0.0,0.0,0.0,0.0,0.0,0.0,0.0,0.0,0.0,0.0,0.0,0.0,0.0,0.0,0.0,0.0,0.0,0.0,0.0,0.0,0.0,0.0,0.0,0.0,0.0,0.0,0.0,0.0,0.0,0.0,0.0,0.0,0.0,0.0,0.0,0.0,0.0,0.0,0.0,0.0,0.0,0.0,0.0,0.0,0.0,0.0,0.0,0.0,0.0,0.0,0.0,0.0,0.0,0.0,0.0,0.0,0.0,0.0,0.0,0.0,0.0,0.0,0.0,0.0,0.0,0.0,0.0,0.0,0.0,0.0,0.0,0.0,0.0,0.0,0.0,0.0,0.0,0.0,0.0,0.0,0.0,0.0,0.0,0.0,0.0,0.0,2.0288,1.9875,1.9492,0.0,0.0,0.0,0.0,0.0,0.0,0.0,0.0,0.0,0.0,0.0,0.0,0.0,0.0,0.0,0.0,0.0,0.0,0.0,0.0,0.0,0.0,0.0,0.0,0.0,0.0,0.0,0.0,0.0,0.0,0.0,0.0,0.0,0.0,0.0,0.0,0.0,0.0,0.0,0.0,0.0,0.0,0.0,0.0,0.0,0.0,0.0,0.0,0.0,0.0,0.0,0.0,0.0,0.0,0.0,0.0,0.0,0.0,0.0,0.0,0.0,0.0,0.0,0.0,0.0,0.0,0.0,0.0,0.0,0.0,0.0,0.0,0.0,0.0,0.0,0.0,0.0,0.0,0.0,0.0,0.0,0.0,0.0,0.0,0.0,0.0,0.0,0.0,0.0,0.0,0.0,0.0,0.0,0.0,0.0,0.0,0.0,0.0,0.0,0.0,0.0,0.0,0.0,0.0,0.0,0.0,0.0,0.0,0.0,0.0,1.9978,2.1547,2.2238,0.0,2.0509,0.0,0.0,0.0,0.0,0.0,0.0,0.0,0.0,0.0,0.0,0.0,0.0,0.0,0.0,0.0,0.0,0.0,0.0,0.0,0.0,0.0,0.0,0.0,0.0,0.0,0.0,0.0,0.0,0.0,0.0,0.0,0.0,0.0,0.0,0.0,0.0,0.0,0.0,0.0,0.0,0.0,0.0,0.0,0.0,0.0,0.0,0.0,0.0,0.0,0.0,0.0,0.0,0.0,0.0,0.0,0.0,0.0,0.0,0.0,0.0,0.0,0.0,0.0,0.0,0.0,0.0,0.0,0.0,0.0,0.0,0.0,0.0,0.0,0.0,0.0,0.0,0.0,0.0,0.0,0.0,0.0,0.0,0.0,0.0,0.0,0.0,0.0,0.0,0.0,0.0,0.0,0.0,0.0,0.0,0.0,0.0,0.0,0.0,0.0,0.0,0.0,0.0,0.0,0.0,0.0,0.0,0.0,0.0,0.0,0.0,0.0,2.0858,2.0741,1.9842,0.0,0.0,0.0,0.0,0.0,0.0,0.0,0.0,0.0,0.0,0.0,0.0,0.0,0.0,0.0,0.0,0.0,0.0,0.0,0.0,0.0,0.0,0.0,0.0,0.0,0.0,0.0,0.0,0.0,0.0,0.0,0.0,0.0,0.0,0.0,0.0,0.0,0.0,0.0,0.0,0.0,0.0,0.0,0.0,0.0,0.0,0.0,0.0,0.0,0.0,0.0,0.0,0.0,0.0,0.0,0.0,0.0,0.0,0.0,0.0,0.0,0.0,0.0,0.0,0.0,0.0,0.0,0.0,0.0,0.0,0.0,0.0,0.0,0.0,0.0,0.0,0.0,0.0,0.0,0.0,0.0,0.0,0.0,0.0,0.0,0.0,0.0,0.0,0.0,0.0,0.0,0.0,0.0,0.0,0.0,0.0,0.0,0.0,0.0,0.0,0.0,0.0,0.0,0.0,0.0,0.0,0.0,0.0,0.0,0.0,1.9871,0.0,2.0964,2.0227,1.885,1.6827,0.0,0.0,0.0,0.0,0.0,0.0,0.0,0.0,0.0,0.0,0.0,0.0,0.0,0.0,0.0,0.0,0.0,0.0,0.0,0.0,0.0,0.0,0.0,0.0,0.0,0.0,0.0,0.0,0.0,0.0,0.0,0.0,0.0,0.0,0.0,0.0,0.0,0.0,0.0,0.0,0.0,0.0,0.0,0.0,0.0,0.0,0.0,0.0,0.0,0.0,0.0,0.0,0.0,0.0,0.0,0.0,0.0,0.0,0.0,0.0,0.0,0.0,0.0,0.0,0.0,0.0,0.0,0.0,0.0,0.0,0.0,0.0,0.0,0.0,0.0,0.0,0.0,0.0,0.0,0.0,0.0,0.0,0.0,0.0,0.0,0.0,0.0,0.0,0.0,0.0,0.0,0.0,0.0,0.0,0.0,0.0,0.0,0.0,0.0,0.0,0.0,0.0,0.0,0.0,0.0,0.0,0.0,0.0,0.0,2.0414,2.0405,2.2701,2.1959,2.0337,0.0,0.0,0.0,0.0,0.0,0.0,0.0,0.0,0.0,0.0,0.0,0.0,0.0,0.0,0.0,0.0,0.0,0.0,0.0,0.0,0.0,0.0,0.0,0.0,0.0,0.0,0.0,0.0,0.0,0.0,0.0,0.0,0.0,0.0,0.0,0.0,0.0,0.0,0.0,0.0,0.0,0.0,0.0,0.0,0.0,0.0,0.0,0.0,0.0,0.0,0.0,0.0,0.0,0.0,0.0,0.0,0.0,0.0,0.0,0.0,0.0,0.0,0.0,0.0,0.0,0.0,0.0,0.0,0.0,0.0,0.0,0.0,0.0,0.0,0.0,0.0,0.0,0.0,0.0,0.0,0.0,0.0,0.0,0.0,0.0,0.0,0.0,0.0,0.0,0.0,0.0,0.0,0.0,0.0,0.0,0.0,0.0,0.0,0.0,0.0,0.0,0.0,0.0,0.0,0.0,0.0,0.0,0.0,0.0,1.7987,1.8166,1.9613,2.2312,1.9835,1.8114,0.0,0.0,0.0,0.0,0.0,0.0,0.0,0.0,0.0,0.0,0.0,0.0,0.0,0.0,0.0,0.0,0.0,0.0,0.0,0.0,0.0,0.0,0.0,0.0,0.0,0.0,0.0,0.0,0.0,0.0,0.0,0.0,0.0,0.0,0.0,0.0,0.0,0.0,0.0,0.0,0.0,0.0,0.0,0.0,0.0,0.0,0.0,0.0,0.0,0.0,0.0,0.0,0.0,0.0,0.0,0.0,0.0,0.0,0.0,0.0,0.0,0.0,0.0,0.0,0.0,0.0,0.0,0.0,0.0,0.0,0.0,0.0,0.0,0.0,0.0,0.0,0.0,0.0,0.0,0.0,0.0,0.0,0.0,0.0,0.0,0.0,0.0,0.0,0.0,0.0,0.0,0.0,0.0,0.0,0.0,0.0,0.0,0.0,0.0,0.0,0.0,0.0,0.0,0.0,0.0,0.0,0.0,0.0,0.0,1.6942,0.0,2.0134,0.0,1.8827,1.6894,0.0,0.0,0.0,0.0,0.0,0.0,0.0,0.0,0.0,0.0,0.0,0.0,0.0,0.0,0.0,0.0,0.0,0.0,0.0,0.0,0.0,0.0,0.0,0.0,0.0,0.0,0.0,0.0,0.0,0.0,0.0,0.0,0.0,0.0,0.0,0.0,0.0,0.0,0.0,0.0,0.0,0.0,0.0,0.0,0.0,0.0,0.0,0.0,0.0,0.0,0.0,0.0,0.0,0.0,0.0,0.0,0.0,0.0,0.0,0.0,0.0,0.0,0.0,0.0,0.0,0.0,0.0,0.0,0.0,0.0,0.0,0.0,0.0,0.0,0.0,0.0,0.0,0.0,0.0,0.0,0.0,0.0,0.0,0.0,0.0,0.0,0.0,0.0,0.0,0.0,0.0,0.0,0.0,0.0,0.0,0.0,0.0,0.0,0.0,0.0,0.0,0.0,0.0,0.0,0.0,0.0,0.0,0.0,1.6972,2.0186,2.1856,2.1913,2.0396,1.94,1.7006,0.0,0.0,0.0,0.0,0.0,0.0,0.0,0.0,0.0,0.0,0.0,0.0,0.0,0.0,0.0,0.0,0.0,0.0,0.0,0.0,0.0,0.0,0.0,0.0,0.0,0.0,0.0,0.0,0.0,0.0,0.0,0.0,0.0,0.0,0.0,0.0,0.0,0.0,0.0,0.0,0.0,0.0,0.0,0.0,0.0,0.0,0.0,0.0,0.0,0.0,0.0,0.0,0.0,0.0,0.0,0.0,0.0,0.0,0.0,0.0,0.0,0.0,0.0,0.0,0.0,0.0,0.0,0.0,0.0,0.0,0.0,0.0,0.0,0.0,0.0,0.0,0.0,0.0,0.0,0.0,0.0,0.0,0.0,0.0,0.0,0.0,0.0,0.0,0.0,0.0,0.0,0.0,0.0,0.0,0.0,0.0,0.0,0.0,0.0,0.0,0.0,0.0,0.0,0.0,0.0,0.0,0.0,0.0,0.0,1.8572,2.0299,2.1519,2.1903,1.8971,1.7317,0.0,0.0,0.0,0.0,0.0,0.0,0.0,0.0,0.0,0.0,0.0,0.0,0.0,0.0,0.0,0.0,0.0,0.0,0.0,0.0,0.0,0.0,0.0,0.0,0.0,0.0,0.0,0.0,0.0,0.0,0.0,0.0,0.0,0.0,0.0,0.0,0.0,0.0,0.0,0.0,0.0,0.0,0.0,0.0,0.0,0.0,0.0,0.0,0.0,0.0,0.0,0.0,0.0,0.0,0.0,0.0,0.0,0.0,0.0,0.0,0.0,0.0,0.0,0.0,0.0,0.0,0.0,0.0,0.0,0.0,0.0,0.0,0.0,0.0,0.0,0.0,0.0,0.0,0.0,0.0,0.0,0.0,0.0,0.0,0.0,0.0,0.0,0.0,0.0,0.0,0.0,0.0,0.0,0.0,0.0,0.0,0.0,0.0,0.0,0.0,0.0,0.0,0.0,0.0,0.0,0.0,0.0,0.0,0.0,2.0215,2.1593,2.268,2.3339,1.9593,1.7782,1.8159,0.0,0.0,0.0,0.0,0.0,0.0,0.0,0.0,0.0,0.0,0.0,0.0,0.0,0.0,0.0,0.0,0.0,0.0,0.0,0.0,0.0,0.0,0.0,0.0,0.0,0.0,0.0,0.0,0.0,0.0,0.0,0.0,0.0,0.0,0.0,0.0,0.0,0.0,0.0,0.0,0.0,0.0,0.0,0.0,0.0,0.0,0.0,0.0,0.0,0.0,0.0,0.0,0.0,0.0,0.0,0.0,0.0,0.0,0.0,0.0,0.0,0.0,0.0,0.0,0.0,0.0,0.0,0.0,0.0,0.0,0.0,0.0,0.0,0.0,0.0,0.0,0.0,0.0,0.0,0.0,0.0,0.0,0.0,0.0,0.0,0.0,0.0,0.0,0.0,0.0,0.0,0.0,0.0,0.0,0.0,0.0,0.0,0.0,0.0,0.0,0.0,0.0,0.0,0.0,0.0,0.0,0.0,0.0,2.4327,2.5206,2.5269,2.4457,2.1192,1.863,0.0,0.0,0.0,0.0,0.0,0.0,0.0,0.0,0.0,0.0,0.0,0.0,0.0,0.0,0.0,0.0,0.0,0.0,0.0,0.0,0.0,0.0,0.0,0.0,0.0,0.0,0.0,0.0,0.0,0.0,0.0,0.0,0.0,0.0,0.0,0.0,0.0,0.0,0.0,0.0,0.0,0.0,0.0,0.0,0.0,0.0,0.0,0.0,0.0,0.0,0.0,0.0,0.0,0.0,0.0,0.0,0.0,0.0,0.0,0.0,0.0,0.0,0.0,0.0,0.0,0.0,0.0,0.0,0.0,0.0,0.0,0.0,0.0,0.0,0.0,0.0,0.0,0.0,0.0,0.0,0.0,0.0,0.0,0.0,0.0,0.0,0.0,0.0,0.0,0.0,0.0,0.0,0.0,0.0,0.0,0.0,0.0,0.0,0.0,0.0,0.0,0.0,0.0,0.0,0.0,0.0,0.0,0.0,0.0,2.521,2.6713,2.7106,2.6266,2.3552,2.1287,0.0,0.0,0.0,0.0,0.0,0.0,0.0,0.0,0.0,0.0,0.0,0.0,0.0,0.0,0.0,0.0,0.0,0.0,0.0,0.0,0.0,0.0,0.0,0.0,0.0,0.0,0.0,0.0,0.0,0.0,0.0,0.0,0.0,0.0,0.0,0.0,0.0,0.0,0.0,0.0,0.0,0.0,0.0,0.0,0.0,0.0,0.0,0.0,0.0,0.0,0.0,0.0,0.0,0.0,0.0,0.0,0.0,0.0,0.0,0.0,0.0,0.0,0.0,0.0,0.0,0.0,0.0,0.0,0.0,0.0,0.0,0.0,0.0,0.0,0.0,0.0,0.0,0.0,0.0,0.0,0.0,0.0,0.0,0.0,0.0,0.0,0.0,0.0,0.0,0.0,0.0,0.0,0.0,0.0,0.0,0.0,0.0,0.0,0.0,0.0,0.0,0.0,0.0,0.0,0.0,0.0,0.0,0.0,2.4111,2.6587,2.8031,2.8369,2.7559,2.5019,2.2695,0.0,0.0,0.0,0.0,0.0,0.0,0.0,0.0,0.0,0.0,0.0,0.0,0.0,0.0,0.0,0.0,0.0,0.0,0.0,0.0,0.0,0.0,0.0,0.0,0.0,0.0,0.0,0.0,0.0,0.0,0.0,0.0,0.0,0.0,0.0,0.0,0.0,0.0,0.0,0.0,0.0,0.0,0.0,0.0,0.0,0.0,0.0,0.0,0.0,0.0,0.0,0.0,0.0,0.0,0.0,0.0,0.0,0.0,0.0,0.0,0.0,0.0,0.0,0.0,0.0,0.0,0.0,0.0,0.0,0.0,0.0,0.0,0.0,0.0,0.0,0.0,0.0,0.0,0.0,0.0,0.0,0.0,0.0,0.0,0.0,0.0,0.0,0.0,0.0,0.0,0.0,0.0,0.0,0.0,0.0,0.0,0.0,0.0,0.0,0.0,0.0,0.0,0.0,0.0,0.0,0.0,0.0,0.0,2.4819,2.7902,2.897,2.9113,2.8281,2.5937,2.3418,0.0,0.0,0.0,0.0,0.0,0.0,0.0,0.0,0.0,0.0,0.0,0.0,0.0,0.0,0.0,0.0,0.0,0.0,0.0,0.0,0.0,0.0,0.0,0.0,0.0,0.0,0.0,0.0,0.0,0.0,0.0,0.0,0.0,0.0,0.0,0.0,0.0,0.0,0.0,0.0,0.0,0.0,0.0,0.0,0.0,0.0,0.0,0.0,0.0,0.0,0.0,0.0,0.0,0.0,0.0,0.0,0.0,0.0,0.0,0.0,0.0,0.0,0.0,0.0,0.0,0.0,0.0,0.0,0.0,0.0,0.0,0.0,0.0,0.0,0.0,0.0,0.0,0.0,0.0,0.0,0.0,0.0,0.0,0.0,0.0,0.0,0.0,0.0,0.0,0.0,0.0,0.0,0.0,0.0,0.0,0.0,0.0,0.0,0.0,0.0,0.0,0.0,0.0,0.0,0.0,0.0,0.0,0.0,2.6323,2.7072,2.8717,2.916,2.832,2.709,2.4922,0.0,0.0,0.0,0.0,0.0,0.0,0.0,0.0,0.0,0.0,0.0,0.0,0.0,0.0,0.0,0.0,0.0,0.0,0.0,0.0,0.0,0.0,0.0,0.0,0.0,0.0,0.0,0.0,0.0,0.0,0.0,0.0,0.0,0.0,0.0,0.0,0.0,0.0,0.0,0.0,0.0,0.0,0.0,0.0,0.0,0.0,0.0,0.0,2.2087,0.0,0.0,0.0,0.0,0.0,0.0,0.0,0.0,0.0,0.0,0.0,0.0,0.0,0.0,0.0,0.0,0.0,0.0,0.0,0.0,0.0,0.0,0.0,0.0,0.0,0.0,0.0,0.0,0.0,0.0,0.0,0.0,0.0,0.0,0.0,0.0,0.0,0.0,0.0,0.0,0.0,0.0,0.0,0.0,0.0,0.0,0.0,0.0,0.0,0.0,0.0,0.0,0.0,0.0,0.0,0.0,0.0,0.0,0.0,2.6765,2.6833,2.8591,2.8962,2.7754,2.7246,2.5195,0.0,0.0,0.0,0.0,0.0,0.0,0.0,0.0,0.0,0.0,0.0,0.0,0.0,0.0,0.0,0.0,0.0,0.0,0.0,0.0,0.0,0.0,0.0,0.0,0.0,0.0,0.0,0.0,0.0,0.0,0.0,0.0,0.0,0.0,0.0,0.0,0.0,0.0,0.0,0.0,0.0,0.0,0.0,0.0,0.0,0.0,0.0,0.0,0.0,0.0,0.0,0.0,0.0,0.0,0.0,0.0,0.0,0.0,0.0,0.0,0.0,0.0,0.0,0.0,0.0,0.0,0.0,0.0,0.0,0.0,0.0,0.0,0.0,0.0,0.0,0.0,0.0,0.0,0.0,0.0,0.0,0.0,0.0,0.0,0.0,0.0,0.0,0.0,0.0,0.0,0.0,0.0,0.0,0.0,0.0,0.0,0.0,0.0,0.0,0.0,0.0,0.0,0.0,0.0,0.0,0.0,0.0,2.4399,2.6476,2.6828,2.8312,2.8422,2.703,2.6855,2.4863,2.0781,0.0,0.0,0.0,0.0,0.0,0.0,0.0,0.0,0.0,0.0,0.0,0.0,0.0,0.0,0.0,0.0,0.0,0.0,0.0,0.0,0.0,0.0,0.0,0.0,0.0,0.0,0.0,0.0,0.0,0.0,0.0,0.0,0.0,0.0,0.0,0.0,0.0,0.0,1.9087,2.0785,0.0,0.0,0.0,0.0,0.0,0.0,0.0,0.0,2.3534,0.0,0.0,0.0,0.0,0.0,0.0,0.0,0.0,0.0,0.0,0.0,0.0,0.0,0.0,0.0,0.0,0.0,0.0,0.0,0.0,0.0,0.0,0.0,0.0,0.0,0.0,0.0,0.0,0.0,0.0,0.0,0.0,0.0,0.0,0.0,0.0,0.0,0.0,0.0,0.0,0.0,0.0,0.0,0.0,0.0,0.0,0.0,0.0,0.0,0.0,0.0,0.0,0.0,0.0,0.0,0.0,2.2168,2.3794,2.5289,2.6676,2.7106,2.7206,2.6899,2.6268,2.4238,2.0781,0.0,0.0,0.0,0.0,0.0,0.0,0.0,0.0,0.0,0.0,0.0,0.0,0.0,0.0,0.0,0.0,0.0,0.0,0.0,0.0,0.0,0.0,0.0,0.0,0.0,0.0,0.0,0.0,0.0,0.0,0.0,0.0,0.0,0.0,0.0,0.0,0.0,0.0,0.0,2.301,2.3572,0.0,0.0,0.0,0.0,0.0,0.0,0.0,0.0,2.4578,0.0,0.0,0.0,0.0,0.0,0.0,0.0,0.0,0.0,0.0,0.0,0.0,0.0,0.0,0.0,0.0,0.0,0.0,0.0,0.0,0.0,0.0,0.0,0.0,0.0,0.0,0.0,0.0,0.0,0.0,0.0,0.0,0.0,0.0,0.0,0.0,0.0,0.0,0.0,0.0,0.0,0.0,0.0,0.0,0.0,0.0,0.0,0.0,0.0,0.0,0.0,0.0,0.0,0.0,0.0,2.1254,2.4017,2.5646,2.6067,2.6595,2.6663,2.6263,2.4628,2.2734,0.0,0.0,0.0,0.0,0.0,0.0,0.0,0.0,0.0,0.0,0.0,0.0,0.0,0.0,0.0,0.0,0.0,0.0,0.0,0.0,0.0,0.0,0.0,0.0,0.0,0.0,0.0,0.0,0.0,0.0,0.0,0.0,0.0,0.0,0.0,0.0,0.0,0.0,0.0,0.0,2.3908,2.4614,2.4303,0.0,0.0,0.0,0.0,0.0,0.0,2.4224,2.4654,0.0,0.0,0.0,0.0,0.0,0.0,0.0,0.0,0.0,0.0,0.0,0.0,0.0,0.0,0.0,0.0,0.0,0.0,0.0,0.0,0.0,0.0,0.0,0.0,0.0,0.0,0.0,0.0,0.0,0.0,0.0,0.0,0.0,0.0,0.0,0.0,0.0,0.0,0.0,0.0,0.0,0.0,0.0,0.0,0.0,0.0,0.0,0.0,0.0,0.0,0.0,0.0,0.0,0.0,0.0,2.014,2.3885,2.5717,2.5498,2.6149,2.6266,2.5659,2.3535,2.1758,0.0,0.0,0.0,0.0,0.0,0.0,0.0,0.0,0.0,0.0,0.0,0.0,0.0,0.0,0.0,0.0,0.0,0.0,0.0,0.0,0.0,0.0,0.0,0.0,0.0,0.0,0.0,0.0,0.0,0.0,0.0,0.0,0.0,0.0,0.0,0.0,0.0,0.0,0.0,0.0,0.0,2.5493,2.5296,2.5315,0.0,0.0,0.0,0.0,2.4366,2.4933,0.0,0.0,0.0,0.0,0.0,0.0,0.0,0.0,0.0,0.0,0.0,0.0,0.0,0.0,0.0,0.0,0.0,0.0,0.0,0.0,0.0,0.0,0.0,0.0,0.0,0.0,0.0,0.0,0.0,0.0,0.0,0.0,0.0,0.0,0.0,0.0,0.0,0.0,0.0,0.0,0.0,0.0,0.0,0.0,0.0,0.0,0.0,0.0,0.0,0.0,0.0,0.0,0.0,0.0,0.0,0.0,2.0021,2.2176,2.3927,2.5244,2.5535,2.5593,2.5513,2.46,2.2656,0.0,0.0,0.0,0.0,0.0,0.0,0.0,0.0,0.0,0.0,0.0,0.0,0.0,0.0,0.0,0.0,0.0,0.0,0.0,0.0,0.0,0.0,0.0,0.0,0.0,0.0,0.0,0.0,0.0,0.0,0.0,0.0,0.0,0.0,0.0,0.0,0.0,0.0,0.0,0.0,0.0,2.6376,2.6174,2.6149,2.6384,0.0,0.0,2.6332,2.7259,2.7318,0.0,0.0,0.0,0.0,0.0,0.0,0.0,0.0,0.0,0.0,0.0,0.0,0.0,0.0,0.0,0.0,0.0,0.0,0.0,0.0,0.0,0.0,0.0,0.0,0.0,0.0,0.0,0.0,0.0,0.0,0.0,0.0,0.0,0.0,0.0,0.0,0.0,0.0,0.0,0.0,0.0,0.0,0.0,0.0,0.0,0.0,0.0,0.0,0.0,0.0,0.0,0.0,0.0,0.0,0.0,1.7731,2.0078,2.2829,2.4576,2.5324,2.5456,2.5509,2.5538,2.3412,2.1328,0.0,0.0,0.0,0.0,0.0,0.0,0.0,0.0,0.0,0.0,0.0,0.0,0.0,0.0,0.0,0.0,0.0,0.0,0.0,0.0,0.0,0.0,0.0,0.0,0.0,0.0,0.0,0.0,0.0,0.0,0.0,0.0,0.0,0.0,0.0,0.0,0.0,0.0,0.0,0.0,0.0,0.0,2.7275,2.8011,0.0,0.0,0.0,2.8034,2.85,0.0,0.0,0.0,0.0,0.0,0.0,0.0,0.0,0.0,0.0,0.0,0.0,0.0,0.0,0.0,0.0,0.0,0.0,0.0,0.0,0.0,0.0,0.0,0.0,0.0,0.0,0.0,0.0,0.0,0.0,0.0,0.0,0.0,0.0,0.0,0.0,0.0,0.0,0.0,0.0,0.0,0.0,0.0,0.0,0.0,0.0,0.0,0.0,0.0,0.0,0.0,0.0,0.0,0.0,0.0,0.0,0.0,2.0167,2.3525,2.5336,2.5372,2.5444,2.5517,2.5528,2.2724,0.0,0.0,0.0,0.0,0.0,0.0,0.0,0.0,0.0,0.0,0.0,0.0,0.0,0.0,0.0,0.0,0.0,0.0,0.0,0.0,0.0,0.0,0.0,0.0,0.0,0.0,0.0,1.1177,0.0,0.0,0.0,0.0,0.0,0.0,0.0,0.0,0.0,0.0,0.0,0.0,0.0,0.0,2.8953,2.8582,2.9794,3.0558,0.0,0.0,2.9756,2.9737,2.9116,2.8089,0.0,0.0,0.0,0.0,0.0,0.0,0.0,0.0,0.0,0.0,0.0,0.0,0.0,0.0,0.0,0.0,0.0,0.0,0.0,0.0,0.0,0.0,0.0,0.0,0.0,0.0,0.0,0.0,0.0,0.0,0.0,0.0,0.0,0.0,0.0,0.0,0.0,0.0,0.0,0.0,0.0,0.0,0.0,0.0,0.0,0.0,0.0,0.0,0.0,0.0,0.0,0.0,0.0,0.0,0.0,2.0319,2.3592,2.5293,2.5308,2.5356,2.5438,2.5476,2.3824,2.1786,0.0,0.0,0.0,0.0,0.0,0.0,0.0,0.0,0.0,0.0,0.0,0.0,0.0,0.0,0.0,0.0,0.0,0.0,0.0,0.0,0.0,0.0,0.0,0.0,0.0,0.0,0.0,0.0,0.0,0.0,0.0,0.0,0.0,0.0,0.0,0.0,0.0,0.0,0.0,0.0,0.0,2.9396,3.0135,3.1019,3.1852,0.0,0.0,3.1525,3.1545,3.1462,3.0458,2.7661,0.0,0.0,0.0,0.0,0.0,0.0,0.0,0.0,0.0,0.0,0.0,0.0,0.0,0.0,0.0,0.0,0.0,0.0,0.0,0.0,0.0,0.0,0.0,0.0,0.0,0.0,0.0,0.0,0.0,0.0,0.0,0.0,0.0,0.0,0.0,0.0,0.0,0.0,0.0,0.0,0.0,0.0,0.0,0.0,0.0,0.0,0.0,0.0,0.0,0.0,0.0,0.0,0.0,1.8561,2.0308,2.3615,2.5308,2.5293,2.5371,2.5427,2.5421,2.4394,2.2619,0.0,0.0,0.0,0.0,0.0,0.0,0.0,0.0,0.0,0.0,0.0,0.0,0.0,0.0,0.0,0.0,0.0,0.0,0.0,0.0,0.0,0.0,0.0,0.0,0.0,0.0,0.0,0.0,1.5664,1.6226,1.5905,0.0,0.0,0.0,0.0,0.0,0.0,0.0,0.0,0.0,0.0,3.0987,3.1833,3.2679,0.0,0.0,3.3436,3.3237,3.3237,3.1929,3.0305,2.8524,2.7105,0.0,0.0,0.0,0.0,0.0,0.0,0.0,0.0,0.0,0.0,0.0,0.0,0.0,0.0,0.0,0.0,0.0,0.0,0.0,0.0,0.0,0.0,0.0,0.0,0.0,0.0,0.0,0.0,0.0,0.0,0.0,0.0,0.0,0.0,0.0,0.0,0.0,0.0,0.0,0.0,0.0,0.0,0.0,0.0,0.0,0.0,0.0,0.0,0.0,0.0,0.0,0.0,1.8542,2.0288,2.3596,2.5308,2.5308,2.5337,2.5379,2.5374,2.4678,2.3308,0.0,0.0,0.0,0.0,0.0,0.0,0.0,0.0,0.0,0.0,0.0,0.0,0.0,0.0,0.0,0.0,0.0,0.0,0.0,0.0,0.0,0.0,0.0,0.0,0.0,0.0,0.0,0.0,1.6921,1.7089,1.6747,0.0,0.0,0.0,0.0,0.0,0.0,0.0,0.0,0.0,0.0,3.2372,3.3179,3.4026,3.4584,3.4584,3.4584,3.441,3.3898,3.2737,3.1303,2.9492,0.0,0.0,0.0,0.0,0.0,0.0,0.0,0.0,0.0,0.0,0.0,0.0,0.0,0.0,0.0,0.0,0.0,0.0,0.0,0.0,0.0,0.0,0.0,0.0,0.0,0.0,0.0,0.0,0.0,0.0,1.139,0.0,0.0,0.0,0.0,0.0,0.0,0.0,0.0,0.0,0.0,0.0,0.0,0.0,0.0,0.0,0.0,0.0,0.0,0.0,0.0,0.0,0.0,1.8581,2.0327,2.3615,2.5308,2.5308,2.5293,2.5335,2.5371,2.4633,2.3837,2.2982,0.0,0.0,0.0,0.0,0.0,0.0,0.0,0.0,0.0,0.0,0.0,0.0,0.0,0.0,0.0,0.0,0.0,0.0,0.0,0.0,0.0,0.0,0.0,0.0,0.0,0.0,1.7403,1.7265,1.7083,0.0,0.0,0.0,0.0,0.0,0.0,0.0,0.0,0.0,0.0,3.1295,3.3199,3.409,3.493,3.5481,3.55,3.55,3.4923,3.3314,3.4308,3.419,0.0,0.0,0.0,0.0,0.0,0.0,0.0,0.0,0.0,0.0,0.0,0.0,0.0,0.0,0.0,0.0,0.0,0.0,0.0,0.0,0.0,0.0,0.0,0.0,0.0,0.0,0.0,1.7799,1.6769,0.0,0.0,0.0,0.0,0.0,0.0,0.0,0.0,0.0,0.0,0.0,2.2718,2.4057,0.0,0.0,0.0,0.0,0.0,0.0,0.0,0.0,0.0,0.0,0.0,0.0,1.9392,2.1139,2.3885,2.5308,2.5308,2.5308,2.5335,2.539,2.5202,2.4185,2.2359,0.0,0.0,0.0,0.0,0.0,0.0,0.0,0.0,0.0,0.0,0.0,0.0,0.0,0.0,0.0,0.0,0.0,0.0,0.0,0.0,0.0,0.0,0.0,0.0,0.0,1.7554,0.0,0.0,0.0,0.0,0.0,0.0,0.0,0.0,0.0,0.0,0.0,2.969,3.1385,3.3353,3.493,3.5757,3.6103,3.65,0.0,0.0,0.0,0.0,0.0,0.0,0.0,0.0,0.0,0.0,0.0,0.0,0.0,0.0,3.7119,3.3265,3.2181,3.2122,3.2997,0.0,0.0,0.0,0.0,0.0,0.0,0.0,0.0,0.0,0.0,0.0,0.0,0.0,0.0,2.0362,0.0,1.8197,0.0,0.0,0.0,0.0,0.0,0.0,0.0,0.0,2.4526,2.5714,2.5794,2.6834,2.6776,0.0,2.5169,2.3161,0.0,0.0,0.0,0.0,0.0,0.0,0.0,0.0,2.0277,2.1966,2.4154,2.5308,2.5308,2.5308,2.533,2.539,2.5479,2.4675,2.2832,2.1406,1.9818,0.0,0.0,0.0,0.0,0.0,0.0,0.0,0.0,0.0,0.0,0.0,0.0,0.0,0.0,0.0,0.0,0.0,0.0,0.0,0.0,0.0,0.0,0.0,1.8505,0.0,0.0,0.0,0.0,0.0,0.0,0.0,0.0,0.0,2.7814,3.0093,3.2352,3.4007,3.5442,3.6577,3.7084,0.0,0.0,0.0,0.0,0.0,0.0,0.0,3.6372,3.6372,3.6892,3.7276,3.7238,3.9408,4.0939,4.0327,0.0,0.0,3.7277,3.6169,3.6102,3.6958,3.7394,3.7716,3.804,3.8966,3.9748,0.0,0.0,0.0,0.0,0.0,0.0,0.0,0.0,2.2682,2.2778,0.0,2.0855,0.0,0.0,0.0,0.0,0.0,2.3235,0.0,0.0,2.7129,2.834,2.832,2.8379,2.8359,2.834,2.8262,2.7383,2.5547,2.1602,0.0,0.0,0.0,0.0,0.0,0.0,2.1181,2.2812,2.4462,2.5308,2.5308,2.5308,2.5335,2.5417,2.5539,2.5243,2.4453,2.3613,2.2402,2.0621,1.8104,0.0,0.0,0.0,0.0,0.0,0.0,0.0,0.0,0.0,0.0,0.0,0.0,0.0,0.0,0.0,0.0,0.0,0.0,0.0,0.0,1.9026,0.0,0.0,0.0,0.0,0.0,0.0,0.0,0.0,0.0,0.0,3.0898,3.2827,3.4917,3.65,0.0,0.0,0.0,0.0,3.8065,3.8161,3.8123,3.7892,3.7115,3.895,3.9958,3.845,0.0,0.0,4.0939,4.2047,4.2635,4.1016,4.2126,4.2974,4.2253,4.0978,4.0444,4.1189,4.0992,4.0981,4.175,4.2936,4.4049,2.7196,0.0,0.0,0.0,0.0,2.459,2.5444,2.6637,2.5891,2.5417,2.5098,2.3765,0.0,0.0,0.0,0.0,0.0,0.0,2.6537,2.7246,2.8594,2.9219,2.9258,2.9863,2.9824,2.9238,2.9219,2.8652,2.7539,2.6328,2.3573,1.9458,0.0,0.0,0.0,0.0,2.267,2.3706,2.4774,2.5308,2.5308,2.5308,2.5354,2.546,2.5602,2.5546,2.5332,2.4512,2.3515,2.2374,2.0416,0.0,0.0,0.0,0.0,0.0,0.0,0.0,0.0,0.0,0.0,0.0,0.0,0.0,0.0,0.0,0.0,0.0,0.0,0.0,1.9334,2.0351,2.1284,0.0,0.0,0.0,0.0,0.0,0.0,0.0,0.0,0.0,3.6622,3.6815,3.7084,0.0,0.0,3.8931,3.8938,3.8931,3.9335,4.0538,4.0719,0.0,0.0,4.1354,4.1489,4.1604,4.2951,4.397,4.4132,4.4556,4.4729,4.419,4.4536,4.482,4.4614,4.379,4.3413,4.4122,4.4243,4.4209,4.4498,4.494,4.5421,3.0723,2.9653,2.7394,2.6841,2.7522,2.7725,2.8153,2.8754,2.824,2.7815,2.7336,2.6519,2.5506,2.4403,2.4264,0.0,0.0,0.0,2.8277,2.8848,2.9707,3.0098,3.0156,3.0664,3.0625,3.0117,3.0117,2.9668,2.8828,2.8809,2.6875,2.3199,0.0,0.0,2.1939,2.2897,2.38,2.4581,2.5062,2.5308,2.5308,2.5346,2.5411,2.551,2.5633,2.5703,2.5703,2.5195,2.4687,2.4137,2.2422,2.045,0.0,0.0,0.0,0.0,0.0,0.0,0.0,0.0,0.0,0.0,0.0,1.3978,1.1803,0.0,0.0,0.0,1.7317,1.9901,2.2081,2.3518,0.0,0.0,0.0,0.0,0.0,0.0,0.0,3.4224,3.6942,3.9115,4.0142,4.0142,4.0027,4.0027,4.0469,4.0796,4.0796,0.0,4.1162,4.2181,4.2308,4.2508,4.3008,4.2931,4.3085,4.394,4.447,4.496,4.5479,4.5594,4.5594,4.5594,4.5594,4.5594,4.5594,4.5152,4.4951,4.5479,4.5594,4.5691,4.6037,4.6124,4.6355,3.3259,3.3335,3.0884,2.9916,3.0094,3.0808,3.0688,3.0009,2.999,2.9964,2.9827,2.906,2.8332,2.7675,2.7276,0.0,2.8332,2.9266,2.9687,2.9726,3.0547,3.0918,3.0918,3.0918,3.0918,3.0879,3.0879,3.0469,2.9726,2.9687,2.8848,2.7226,2.6342,2.5441,2.4553,2.4505,2.4839,2.5495,2.5427,2.539,2.5308,2.5434,2.5513,2.552,2.5634,2.5703,2.5703,2.5703,2.5703,2.5644,2.4155,2.251,2.0757,0.0,0.0,0.0,0.0,0.0,0.0,0.0,0.0,0.0,0.0,0.0,0.0,0.0,0.0,0.0,2.1108,0.0,2.5558,2.7717,0.0,0.0,0.0,3.1558,3.1148,3.4596,3.7019,3.7096,0.0,0.0,4.2008,4.2758,4.3297,4.3297,4.3181,4.3085,4.3085,4.3008,4.3124,4.3162,4.3181,4.322,4.3451,4.3932,4.4566,4.5306,4.5594,4.5556,4.5594,4.5594,4.5594,4.5594,4.5594,4.5594,4.5594,4.5556,4.5633,4.571,4.574,4.597,4.6644,4.6932,4.724,3.422,3.4628,3.4013,3.305,3.1946,3.2137,3.199,3.1626,3.1636,3.1636,3.1561,3.0749,3.0037,2.9417,2.9545,2.9767,3.0025,3.0295,3.0501,3.0605,3.0801,3.0918,3.0918,3.0918,3.0918,3.0898,3.0813,3.0696,3.0586,3.0481,2.9954,2.9023,2.875,2.7865,2.6373,2.6863,2.6916,2.6385,2.6323,2.5991,2.541,2.5446,2.5511,2.5569,2.566,2.5703,2.5703,2.5703,2.5703,2.5684,2.5246,2.4222,2.2549,2.0006,0.0,0.0,0.0,0.0,0.0,0.0,0.0,0.0,0.0,1.8841,1.5239,0.0,2.1895,0.0,2.3734,2.6635,2.8962,2.9707,0.0,0.0,3.4191,3.5229,3.6988,3.8623,3.9854,4.05,4.2431,4.3701,4.3701,4.4459,4.4998,4.4979,4.3893,4.3085,4.3085,4.3085,4.3335,4.3874,4.4008,4.4259,4.4825,4.5133,4.5344,4.5575,4.5594,4.5594,4.5594,4.5594,4.5594,4.5594,4.5594,4.5594,4.5594,4.5594,4.5864,4.6413,4.6605,4.6624,4.6874,4.7385,4.8058,3.5215,3.5647,3.5766,3.5078,3.3906,3.3887,3.3578,3.3091,3.3127,3.2934,3.2584,3.216,3.1786,3.1446,3.165,3.1754,3.1789,3.1503,3.1403,3.1465,3.1074,3.0918,3.0879,3.0838,3.0815,3.0814,3.0707,3.0696,3.0757,3.0735,3.047,3.0092,3.0156,2.9667,2.8704,2.8322,2.7861,2.7336,2.688,2.6232,2.5425,2.5503,2.558,2.5602,2.5661,2.5703,2.5703,2.5703,2.5508,2.5156,2.5095,2.4466,2.3141,2.1395,1.9999,0.0,0.0,0.0,0.0,0.0,0.0,0.0,0.0,0.0,0.0,0.0,2.4924,2.5531,2.7959,3.0358,3.2468,3.3699,3.5122,3.7007,3.7873,3.8865,4.0277,4.1477,4.2382,4.2874,4.4066,4.4874,4.4893,4.5297,4.5594,4.5594,4.4806,4.422,4.4201,4.422,4.4393,4.4816,4.4883,4.5037,4.5556,4.5594,4.5594,4.5594,4.5594,4.5594,4.5594,4.5594,4.5594,4.5594,4.5594,4.5594,4.5614,4.5932,4.6355,4.6817,4.7509,4.7971,4.8029,4.8375,4.8933,3.6283,3.6528,3.6646,3.6288,3.5654,3.5566,3.5098,3.4385,3.4438,3.4037,3.3298,3.3352,3.3306,3.3195,3.3257,3.3295,3.3258,3.2654,3.2344,3.2305,3.1465,3.1055,3.1074,3.083,3.0699,3.0693,3.0638,3.0606,3.0606,3.0639,3.0703,3.0696,3.0816,3.0879,3.082,2.9329,2.8439,2.8271,2.7246,2.6354,2.5615,2.5601,2.5603,2.5608,2.5662,2.5703,2.5703,2.5703,2.5352,2.4629,2.459,2.4238,2.3457,2.2559,2.1758,0.0,2.0798,0.0,0.0,0.0,0.0,0.0,0.0,0.0,0.0,2.7002,2.8724,3.0959,3.2711,3.4362,3.5867,3.8084,3.9515,3.9662,4.1104,4.2115,4.22,4.3528,4.4451,4.4479,4.5133,4.5594,4.5575,4.5594,4.5594,4.5594,4.5537,4.5441,4.5556,4.5498,4.5479,4.5594,4.5594,4.5518,4.5575,4.5594,4.5594,4.5594,4.5594,4.5594,4.5594,4.5594,4.5594,4.5594,4.5594,4.5594,4.5594,4.6297,4.6894,4.7105,4.8279,4.924,4.9298,4.9452,4.9817,3.7443,3.7609,3.6993,3.6615,3.6437,3.5846,3.5491,3.5347,3.5398,3.5002,3.425,3.4247,3.3848,3.3218,3.3257,3.3295,3.3297,3.322,3.3164,3.3164,3.2324,3.1953,3.1894,3.121,3.0814,3.0693,3.0641,3.0606,3.0603,3.0554,3.06,3.0695,3.074,3.0793,3.0879,0.0,0.0,0.0,2.7585,2.6729,2.6594,2.5965,2.5632,2.5682,2.5703,0.0,2.5703,2.5703,2.5625,2.5469,2.5469,0.0,0.0,0.0,0.0,0.0,0.0,0.0,0.0,0.0,0.0,0.0,2.8768,2.8492,2.7017,3.0541,3.3433,3.4555,3.611,3.7485,3.8496,3.9592,4.0554,4.1296,4.2816,4.3835,4.3874,4.4748,4.5344,4.5364,4.5518,4.5594,4.5594,4.5594,4.5594,4.5594,4.5594,4.5594,4.5594,4.5594,4.5594,4.5594,4.5594,4.5594,4.5594,4.5594,4.5594,4.5594,4.5594,4.5594,4.5594,4.5594,4.5594,4.5594,4.5594,4.5594,4.5614,4.6317,4.7135,4.7731,4.8702,4.9413,4.9413,4.9952,5.05,3.841,0.0,3.7719,3.7103,0.0,3.595,3.5646,3.5655,3.5749,3.5587,3.5243,3.5243,3.4989,3.4584,3.4618,3.4642,3.4603,3.4218,3.4023,3.4004,3.3184,3.2793,3.2754,3.1843,3.1347,3.1261,3.0773,3.0498,3.0498,3.0479,3.0541,3.0609,3.0673,3.0723,3.0794,3.0859,3.0424,2.9457,2.8577,2.773,2.693,2.6513,2.6111,2.5723,0.0,0.0,0.0,0.0,0.0,0.0,0.0,0.0,0.0,0.0,0.0,2.623,2.6348,2.6504,2.7012,2.8945,3.0371,3.0879,3.2441,3.2695,3.0916,3.4234,3.6713,3.7504,3.8268,3.9198,4.0381,4.0912,4.1643,4.2893,4.3797,4.4432,4.4902,4.5325,4.5594,4.5594,4.5594,4.5594,4.5594,4.5594,4.5594,4.5594,4.5594,4.5594,4.5594,4.5594,4.5594,4.5594,4.5594,4.5594,4.5594,4.5594,4.5594,4.5594,4.5594,4.5594,4.5594,4.5594,4.5594,4.5594,4.5594,4.5594,4.571,4.6605,4.7644,4.8105,4.9144,4.999,5.0058,5.0404,5.0683,3.9314,3.9411,3.8592,3.774,3.6903,3.6224,3.5879,3.5752,0.0,0.0,0.0,3.5976,3.5975,3.5975,3.5975,3.5975,3.5936,3.5254,3.4922,3.4883,3.4023,3.3633,3.3574,3.264,3.2155,3.2084,3.1279,3.0788,3.0627,3.069,3.0647,3.0544,3.065,3.0699,3.0725,3.0857,3.0506,2.9772,2.9592,2.8829,2.7427,2.7283,2.6875,2.6172,2.6172,2.6152,2.6152,2.6152,2.584,2.5137,2.5098,2.541,2.6094,2.6152,2.6934,2.8652,3.0098,3.0703,3.0332,3.2363,3.3476,3.3085,3.5135,3.6112,3.5409,3.7355,3.8937,3.9719,3.9802,4.0364,4.167,4.2104,4.2797,4.4162,4.4432,4.4836,4.5479,4.5594,4.5594,4.5594,4.5594,4.5594,4.5594,4.5594,4.5594,4.5594,4.5594,4.5594,4.5594,4.5594,4.5594,4.5594,4.5594,4.5594,4.5594,4.5594,4.5594,4.5594,4.5594,4.5594,4.5594,4.5594,4.5594,4.5594,4.5594,4.5594,4.571,4.6913,4.8019,4.8096,4.949,5.0683,5.0683,5.0683,5.0683,4.03,4.0265,3.9457,3.8658,3.7848,3.7124,3.6497,3.5973,3.5976,3.5996,3.5996,3.5944,3.5911,3.5911,3.5911,3.5911,3.5913,3.5837,3.582,0.0,3.4922,3.4531,3.4473,3.3612,3.314,3.3005,3.2859,3.2346,3.1605,3.1598,3.1281,3.0688,3.065,3.0747,3.0858,3.0879,3.084,3.0703,2.996,2.9472,2.9218,2.8496,2.8066,2.7949,2.791,2.7949,2.7949,2.791,2.7891,2.7754,2.7773,2.7812,2.791,2.791,2.8711,3.0351,3.0781,3.1465,3.2754,3.3906,3.5075,3.632,3.7448,3.7996,3.7917,3.8837,3.9734,4.0466,4.1028,4.1532,4.1873,4.3066,4.3951,4.4316,4.4979,4.5479,4.5594,4.5594,4.5594,4.5594,4.5594,4.5594,4.5594,4.5594,4.5594,4.5594,4.5594,4.5594,4.5594,4.5594,4.5594,4.5594,4.5594,4.5594,4.5594,4.5594,4.5594,4.5594,4.5594,4.5594,4.5594,4.5594,4.5594,4.5594,4.5594,4.5594,4.5633,4.6951,4.7894,4.8182,4.949,5.0625,5.0683,5.0683,5.0683,4.0537,4.0506,3.9683,3.9182,3.8814,3.7624,3.6669,3.6035,3.6016,3.5975,3.5926,3.591,3.5882,3.5882,3.5882,3.5916,3.595,3.5976,3.6016,3.5976,3.5586,3.541,3.5312,3.447,3.4022,3.3943,3.3437,3.2965,3.2538,3.2555,3.2133,3.1334,3.0907,3.0769,3.0898,3.0918,3.0918,3.0898,3.0508,3.0078,2.9609,2.9219,2.8789,2.832,2.8281,2.8281,2.8281,2.8281,2.8281,2.8281,2.8281,2.8516,2.8984,2.9434,3.0273,3.1523,3.2461,3.3301,3.4062,3.4879,3.5841,3.7008,3.7876,3.8517,3.8926,3.9713,4.0343,4.0697,4.1364,4.2008,4.2462,4.3585,4.4489,4.496,4.5383,4.5594,4.5594,4.5594,4.5594,4.5594,4.5594,4.5594,4.5594,4.5594,4.5594,4.5594,4.5594,4.5594,4.5594,4.5594,4.5594,4.5594,4.5594,4.5594,4.5594,4.5594,4.5594,4.5594,4.5594,4.5594,4.5594,4.5594,4.5594,4.5594,4.5594,4.5594,4.5614,4.6951,4.7875,4.8259,4.949,5.051,5.0683,5.0683,5.0683,4.0603,4.0639,3.9987,3.9678,3.9468,3.7909,3.6965,3.6562,3.6191,3.6069,3.616,3.6001,3.5882,3.5882,3.5882,3.5939,3.5974,3.5996,3.6016,3.6016,3.6016,3.6016,3.5937,3.5227,3.4903,3.4815,3.4133,3.3713,3.3523,3.3518,3.3083,3.224,3.1435,3.1086,3.1172,3.0996,3.0918,3.0918,3.0918,3.0566,2.9922,2.9902,2.957,2.8945,2.8906,2.8887,2.8906,2.8887,2.8887,2.8887,2.8887,2.9297,3.0117,3.082,3.1641,3.2734,3.3984,3.4785,3.4998,3.5724,3.6512,3.7278,3.8077,3.8855,3.9591,4.0249,4.0759,4.0997,4.167,4.247,4.3297,4.4124,4.4863,4.5518,4.5594,4.5594,4.5594,4.5594,4.5594,4.5594,4.5594,4.5594,4.5594,4.5594,4.5594,4.5594,4.5594,4.5594,4.5594,4.5594,4.5594,4.5594,4.5594,4.5594,4.5594,4.5594,4.5594,4.5594,4.5594,4.5594,4.5594,4.5594,4.5594,4.5594,4.5594,4.5594,4.571,4.674,4.7721,4.8105,4.9298,5.0385,5.0654,5.0683,5.0683,4.0686,4.0701,4.0664,4.0296,3.9546,3.8002,3.7695,3.8027,3.6699,3.6421,3.6884,3.6254,3.5903,3.5882,3.5882,3.5907,3.5916,3.5974,3.6016,3.6016,3.6016,3.6016,3.6016,3.5898,3.5834,3.5752,3.5627,3.5097,3.4411,3.4413,3.404,3.326,3.2461,3.207,3.1992,3.1328,3.0937,3.0918,3.0918,3.0859,3.0781,3.0781,3.0742,3.0664,3.0644,3.0664,3.0547,3.0664,3.0664,3.0664,3.0625,3.1035,3.1816,3.2031,3.2793,3.4297,3.4629,3.5017,3.5757,3.6544,3.7247,3.7972,3.8783,3.956,4.028,4.045,4.0847,4.1617,4.2467,4.3239,4.4105,4.494,4.5441,4.5537,4.5594,4.5594,4.5594,4.5594,4.5594,4.5594,4.5594,4.5594,4.5594,4.5594,4.5594,4.5594,4.5594,4.5594,4.5594,4.5594,4.5594,4.5594,4.5594,4.5594,4.5594,4.5594,4.5594,4.5594,4.5594,4.5594,4.5594,4.5594,4.5594,4.5594,4.5594,4.5594,4.5768,4.6394,4.725,4.7885,4.8817,4.9779,5.0433,5.0693,5.0673,4.0729,4.0776,4.0864,4.0485,3.9759,3.9101,3.8437,3.7754,3.709,3.6679,3.644,3.6107,3.5942,3.5884,3.5882,3.5916,3.5951,3.5995,3.6016,3.6016,3.6016,3.6016,3.6016,3.6016,3.5976,3.5971,3.597,3.5781,3.5374,3.4902,3.449,3.4101,3.332,3.291,3.2891,3.2559,3.2148,3.1699,3.168,3.1426,3.0976,3.0918,3.0918,3.0918,3.0918,3.0918,3.0918,3.0918,3.0918,3.0918,3.0918,3.1289,3.2168,3.2656,3.3437,3.4609,3.5151,3.5762,3.6561,3.6859,3.7529,3.8769,3.9148,3.9658,4.0408,4.0496,4.1054,4.2354,4.2893,4.3431,4.4239,4.5094,4.5594,4.5594,4.5594,4.5594,4.5594,4.5594,4.5594,4.5594,4.5594,4.5594,4.5594,4.5594,4.5594,4.5594,4.5594,4.5594,4.5594,4.5594,4.5594,4.5594,4.5594,4.5594,4.5594,4.5594,4.5594,4.5594,4.5594,4.5594,4.5594,4.5594,4.5594,4.5594,4.5594,4.5594,4.5594,4.6278,4.7058,4.7625,4.8548,4.9529,4.9894,5.0346,5.0616,4.0657,4.0809,4.0968,4.0754,4.0254,3.998,3.918,3.8047,3.7773,3.7148,3.6364,3.6325,3.6132,3.5877,3.5887,3.595,3.5996,3.6016,3.6016,3.6016,3.6016,3.6016,3.6016,3.6016,3.6016,3.6016,3.6016,3.6016,3.5937,3.5391,3.5059,3.4922,3.418,3.375,3.373,3.3555,3.3125,3.2598,3.2519,3.2129,3.1426,3.1465,3.1367,3.0957,3.0918,3.0918,3.0918,3.1113,3.125,3.1269,3.1465,3.1992,3.2832,3.3457,3.414,3.4938,3.5567,3.6237,3.698,3.7156,3.7848,3.9187,3.9497,3.9861,4.0362,4.0496,4.1296,4.2816,4.3085,4.3489,4.4566,4.5229,4.5575,4.5594,4.5594,4.5594,4.5594,4.5594,4.5594,4.5594,4.5594,4.5594,4.5594,4.5594,4.5594,4.5594,4.5594,4.5594,4.5594,4.5594,4.5594,4.5594,4.5594,4.5594,4.5594,4.5594,4.5594,4.5594,4.5594,4.5594,4.5594,4.5594,4.5594,4.5594,4.5594,4.5594,4.5614,4.6182,4.6721,4.7124,4.799,4.8971,4.9029,4.974,5.0202,4.0442,4.0839,4.108,4.1152,4.1074,4.0293,3.9863,3.9551,3.8887,3.8023,3.7219,3.71,3.6606,3.5789,3.5949,3.6016,3.6016,3.5996,3.5996,3.6016,3.6016,3.6016,3.6016,3.6016,3.6016,3.6016,3.6016,3.6016,3.5976,3.5937,3.5937,3.5879,3.5039,3.4648,3.4551,3.3926,3.3418,3.3379,3.3359,3.2949,3.2344,3.2871,3.2461,3.1211,3.0957,3.1035,3.1074,3.1719,3.2148,3.2148,3.2793,3.3613,3.4434,3.459,3.4997,3.5716,3.5882,3.6237,3.6934,3.7638,3.8439,3.9259,3.9992,4.0419,4.0477,4.0496,4.1277,4.2931,4.3085,4.372,4.5171,4.5498,4.5594,4.5594,4.5594,4.5594,4.5594,4.5594,4.5594,4.5594,4.5594,4.5594,4.5594,4.5594,4.5594,4.5594,4.5594,4.5594,4.5594,4.5594,4.5594,4.5594,4.5594,4.5594,4.5594,4.5594,4.5594,4.5594,4.5594,4.5594,4.5594,4.5594,4.5594,4.5594,4.5594,4.5594,4.5614,4.5806,4.6144,4.6663,4.7413,4.8067,4.8163,4.8894,4.9356,4.0496,4.0944,4.1046,4.1126,4.1152,4.0859,4.043,3.9883,3.957,3.8881,3.7995,3.7445,3.6947,3.6524,3.6093,3.5923,3.5942,3.5942,3.5951,3.5996,3.6016,3.6016,3.6016,3.6016,3.6016,3.6016,3.6016,3.6016,3.5996,3.597,3.5942,3.5899,3.5566,3.5369,3.5391,3.516,3.4758,3.4297,3.4238,3.3828,3.3066,3.3262,3.3066,3.2559,3.25,3.25,3.25,3.2812,3.2988,3.2969,3.3262,3.3789,3.4629,3.5234,3.5622,3.5905,3.635,3.6911,3.764,3.8428,3.9215,3.9973,4.0323,4.0496,4.0496,4.0554,4.1227,4.2662,4.3085,4.3855,4.5152,4.5594,4.5594,4.5594,4.5594,4.5594,4.5594,4.5594,4.5594,4.5594,4.5594,4.5594,4.5594,4.5594,4.5594,4.5594,4.5594,4.5594,4.5594,4.5594,4.5594,4.5594,4.5594,4.5594,4.5594,4.5594,4.5594,4.5594,4.5594,4.5594,4.5594,4.5594,4.5594,4.5594,4.5594,4.5594,4.5614,4.5633,4.5922,4.6067,4.6836,4.724,4.7317,4.8048,4.8432,4.0571,4.0883,4.0981,4.1052,4.1129,4.1191,4.0703,3.998,4.0176,3.96,3.8458,3.8061,3.7634,3.6977,3.644,3.6085,3.5921,3.5916,3.595,3.6016,3.6016,3.6016,3.6016,3.6016,3.6016,3.5996,3.5974,3.5951,3.5922,3.5857,3.5819,3.5834,3.5729,3.5786,3.5875,3.5882,3.5608,3.5176,3.5117,3.4687,3.3965,3.4101,3.4082,3.3906,3.4082,3.3945,3.3457,3.3672,3.3828,3.3848,3.4082,3.4512,3.5117,3.5684,3.5951,3.5942,3.6586,3.732,3.8052,3.8849,3.9631,4.04,4.0496,4.0496,4.0516,4.0739,4.1643,4.2739,4.3412,4.4105,4.5171,4.5594,4.5594,4.5594,4.5594,4.5594,4.5594,4.5594,4.5594,4.5594,4.5594,4.5594,4.5594,4.5594,4.5594,4.5594,4.5594,4.5594,4.5594,4.5594,4.5594,4.5594,4.5594,4.5594,4.5594,4.5594,4.5594,4.5594,4.5594,4.5594,4.5594,4.5594,4.5594,4.5594,4.5594,4.5594,4.5594,4.5594,4.5605,4.5643,4.5951,4.6432,4.674,4.7144,4.7509,4.0697,4.074,4.0896,4.1012,4.1026,4.1148,4.0703,4.0215,4.0801,4.014,3.8861,3.9172,3.8533,3.7288,3.6948,3.6538,3.6112,3.601,3.5996,3.6016,3.6016,3.6016,3.6016,3.6016,3.5996,3.5996,3.5919,3.5838,3.5729,3.5733,3.5703,3.5703,3.57,3.5749,3.588,3.588,3.5922,3.5879,3.5859,3.5508,3.4922,3.5391,3.541,3.4883,3.541,3.5098,3.3613,3.4297,3.4707,3.4785,3.543,3.5957,3.5898,3.5976,3.5925,3.588,3.6537,3.7313,3.7982,3.8861,3.9765,4.0342,4.0496,4.0496,4.0593,4.1219,4.2085,4.297,4.3778,4.4633,4.5364,4.5594,4.5594,4.5594,4.5594,4.5594,4.5594,4.5594,4.5594,4.5594,4.5594,4.5594,4.5594,4.5594,4.5594,4.5594,4.5594,4.5594,4.5594,4.5594,4.5594,4.5594,4.5594,4.5594,4.5594,4.5594,4.5594,4.5594,4.5594,4.5594,4.5594,4.5594,4.5594,4.5594,4.5594,4.5594,4.5594,4.5586,4.5522,4.556,4.5713,4.5762,4.6013,4.6359,4.6664,4.0597,4.0684,4.0757,4.0866,4.1012,4.1051,4.093,4.082,4.1113,4.0801,4.0179,3.9804,3.9315,3.8599,3.765,3.7001,3.6746,3.6289,3.6016,3.6016,3.6016,3.6016,3.6016,3.6016,3.5974,3.5918,3.5795,3.5752,3.57,3.5655,3.563,3.563,3.5635,3.5694,3.5786,3.5845,3.5922,3.5996,3.6016,3.584,3.5625,3.5859,3.5859,3.5684,3.5879,3.5703,3.5234,3.5449,3.5586,3.5566,3.584,3.6016,3.5996,3.597,3.5857,3.5872,3.7005,3.7802,3.8134,3.9304,4.0189,4.0458,4.0496,4.0496,4.0573,4.1335,4.2181,4.3028,4.3835,4.4662,4.5383,4.5594,4.5594,4.5594,4.5594,4.5594,4.5594,4.5594,4.5594,4.5594,4.5594,4.5594,4.5594,4.5594,4.5594,4.5594,4.5594,4.5594,4.5594,4.5594,4.5594,4.5594,4.5594,4.5594,4.5594,4.5594,4.5594,4.5594,4.5594,4.5594,4.5594,4.5594,4.5594,4.5594,4.5594,4.5594,4.5594,4.5531,4.5448,4.541,4.5458,4.5429,4.5341,4.5591,4.6004,4.0545,4.063,4.0674,4.0781,4.0896,4.0928,4.0996,4.1106,4.1127,4.1073,4.087,4.0432,3.9984,3.9494,3.8543,3.7746,3.7205,3.6619,3.6244,3.6012,3.5996,3.6016,3.5996,3.5954,3.5919,3.5814,3.5735,3.5671,3.5643,3.5636,3.5616,3.5635,3.5644,3.5702,3.5783,3.5847,3.5941,3.5996,3.6016,3.6016,3.6016,3.6016,3.6016,3.6016,3.6016,3.6016,3.6016,3.6016,3.6016,3.6016,3.6016,3.6016,3.5996,3.5971,3.5997,3.6414,3.7359,3.8247,3.859,3.9727,4.0496,4.0496,4.0496,4.0496,4.0708,4.1508,4.2566,4.3085,4.4143,4.5009,4.5479,4.5594,4.5594,4.5594,4.5594,4.5594,4.5594,4.5594,4.5594,4.5594,4.5594,4.5594,4.5594,4.5594,4.5594,4.5594,4.5594,4.5594,4.5594,4.5594,4.5594,4.5594,4.5594,4.5594,4.5594,4.5594,4.5594,4.5594,4.5594,4.5594,4.5594,4.5594,4.5594,4.5594,4.5594,4.5594,4.5586,4.5419,4.5312,4.5292,4.5161,4.5052,4.4985,4.522,4.5542,4.0481,4.0519,4.0636,4.0692,4.0718,4.0785,4.0887,4.0986,4.0992,4.0989,4.0946,4.0868,4.049,3.9886,3.9473,3.8663,3.7546,3.7242,3.6778,3.6265,3.6126,3.6133,3.5996,3.5945,3.5851,3.5752,3.565,3.5611,3.5606,3.5631,3.5624,3.5705,3.5707,3.5764,3.5871,3.5903,3.5945,3.5996,3.6016,3.6016,3.6016,3.6016,3.6016,3.6016,3.6016,3.6016,3.6016,3.6016,3.6016,3.6016,3.6016,3.6016,3.6016,3.6035,3.6404,3.691,3.7821,3.8614,3.9287,3.9996,4.0496,4.0496,4.0496,4.0496,4.0689,4.1797,4.2816,4.3143,4.4412,4.5421,4.5537,4.5594,4.5594,4.5594,4.5594,4.5594,4.5594,4.5594,4.5594,4.5594,4.5594,4.5594,4.5594,4.5594,4.5594,4.5594,4.5594,4.5594,4.5594,4.5594,4.5594,4.5594,4.5594,4.5594,4.5594,4.5594,4.5594,4.5594,4.5594,4.5594,4.5594,4.5594,4.5594,4.5594,4.5522,4.554,4.5457,4.5253,4.5022,4.4865,4.4726,4.4618,4.4682,4.4865,4.5063,4.0321,4.0496,4.0549,4.061,4.0711,4.0729,4.0776,4.085,4.0857,4.0869,4.0862,4.0859,4.0715,4.0467,3.9867,3.9331,3.8809,3.8254,3.7551,3.6889,3.6804,3.6476,3.6074,3.5941,3.5877,3.5834,3.5723,3.5667,3.5667,3.5687,3.5686,3.5707,3.5788,3.5849,3.5903,3.5948,3.5975,3.5996,3.6016,3.6016,3.6016,3.6016,3.6016,3.6016,3.6016,3.6016,3.6016,3.6016,3.6016,3.6016,3.6016,3.6016,3.6094,3.6556,3.6932,3.7286,3.8321,3.9137,3.942,4.0054,4.0477,4.0496,4.0496,4.0496,4.0516,4.1489,4.2393,4.3047,4.4085,4.496,4.5441,4.5594,4.5594,4.5594,4.5594,4.5594,4.5594,4.5594,4.5594,4.5594,4.5594,4.5594,4.5594,4.5594,4.5594,4.5594,4.5594,4.5594,4.5594,4.5594,4.5594,4.5594,4.5594,4.5594,4.5594,4.5594,4.5594,4.5594,4.5594,4.5594,4.5594,4.5594,4.5594,4.5594,4.5362,4.5322,4.515,4.4954,4.4732,4.4482,4.4441,4.4392,4.4318,4.4441,4.4657,4.0364,4.0496,4.0496,4.0557,4.061,4.0616,4.0672,4.0747,4.0767,4.0775,4.0789,4.0797,4.0797,4.0735,4.028,3.9849,3.9461,3.9,3.8318,3.7562,3.7218,3.6682,3.6152,3.594,3.5882,3.5878,3.5766,3.5732,3.5769,3.5794,3.5809,3.5838,3.5897,3.5945,3.5947,3.5976,3.6016,3.6016,3.6016,3.6016,3.6016,3.6016,3.6016,3.6016,3.6016,3.6016,3.6016,3.6016,3.6016,3.6016,3.6016,3.6152,3.6562,3.6968,3.75,3.8003,3.9019,3.9553,3.9844,4.0265,4.0477,4.0496,4.0496,4.0496,4.0727,4.1566,4.2662,4.3085,4.4143,4.4989,4.5441,4.5594,4.5594,4.5594,4.5594,4.5594,4.5594,4.5594,4.5594,4.5594,4.5594,4.5594,4.5594,4.5594,4.5594,4.5594,4.5594,4.5594,4.5594,4.5594,4.5594,4.5594,4.5594,4.5594,4.5594,4.5594,4.5594,4.5594,4.5594,4.5594,4.5594,4.5594,4.5577,4.5513,4.5272,4.5052,4.4908,4.4676,4.4387,4.4204,4.4209,4.4125,4.4004,4.4076,4.428,4.0473,4.0496,4.0496,4.0496,4.0504,4.0496,4.0588,4.0674,4.0674,4.0704,4.0747,4.076,4.0747,4.0755,4.0566,4.0234,3.9563,3.9539,3.8903,3.8112,3.7419,3.672,3.6055,3.5948,3.5917,3.5911,3.5783,3.5797,3.5862,3.591,3.5945,3.5976,3.5996,3.5996,3.5996,3.6016,3.6016,3.6016,3.6016,3.6016,3.6016,3.6016,3.6016,3.6016,3.6016,3.6016,3.6035,3.6094,3.6172,3.6133,3.6113,3.6523,3.7186,3.7323,3.8131,3.917,3.9606,4.0001,4.034,4.0439,4.0496,4.0496,4.0496,4.0496,4.0766,4.1816,4.2777,4.3066,4.4547,4.522,4.5556,4.5594,4.5594,4.5594,4.5594,4.5594,4.5594,4.5594,4.5594,4.5594,4.5594,4.5594,4.5594,4.5594,4.5594,4.5594,4.5594,4.5594,4.5594,4.5594,4.5594,4.5594,4.5594,4.5594,4.5594,4.5594,4.5594,4.5594,4.5594,4.5594,4.5594,4.5586,4.554,4.5429,4.5107,4.4877,4.4726,4.4449,4.4058,4.3912,4.3868,4.3695,4.3546,4.3756,4.3974,4.0313,4.0496,4.0496,4.0496,4.0496,4.0496,4.0519,4.0545,4.0545,4.0568,4.0563,4.057,4.0577,4.0589,4.0561,4.0422,4.0205,4.0142,3.9554,3.8248,3.7434,3.672,3.6191,3.6113,3.6035,3.6035,3.5976,3.5957,3.5996,3.6016,3.5996,3.6016,3.6016,3.6016,3.6016,3.6016,3.6016,3.6016,3.6016,3.6016,3.6016,3.6016,3.6016,3.6016,3.6016,3.6016,3.6152,3.657,3.6848,3.6868,3.6925,3.7116,3.7485,3.8376,3.9119,3.952,4.0123,4.0455,4.0492,4.0496,4.0496,4.0496,4.0496,4.0496,4.0554,4.1508,4.2412,4.3028,4.3989,4.4979,4.5498,4.5594,4.5594,4.5594,4.5594,4.5594,4.5594,4.5594,4.5594,4.5594,4.5594,4.5594,4.5594,4.5594,4.5594,4.5594,4.5594,4.5594,4.5594,4.5594,4.5594,4.5594,4.5594,4.5594,4.5594,4.5594,4.5594,4.5594,4.5594,4.5594,4.5594,4.5549,4.5522,4.5263,4.4908,4.4701,4.4516,4.4073,4.3677,4.3595,4.358,4.3531,4.3531,4.3629,4.366,4.0372,4.0489,4.0496,4.0496,4.0496,4.0496,4.0496,4.0496,4.0496,4.0496,4.0496,4.0496,4.0496,4.0496,4.0496,4.0496,4.0496,4.0485,3.9947,3.9002,3.8429,3.7911,3.7363,3.7148,3.707,3.6641,3.6152,3.6191,3.6426,3.623,3.6016,3.6016,3.6016,3.6016,3.6016,3.6016,3.6016,3.6016,3.6016,3.6016,3.6016,3.6016,3.6016,3.6016,3.6035,3.6113,3.6552,3.6868,3.7286,3.7623,3.7975,3.8208,3.8318,3.9084,3.9645,4.0081,4.0382,4.0623,4.053,4.0496,4.0496,4.0496,4.0496,4.0496,4.0843,4.1604,4.2527,4.3239,4.4143,4.5143,4.5537,4.5594,4.5594,4.5594,4.5594,4.5594,4.5594,4.5594,4.5594,4.5594,4.5594,4.5594,4.5594,4.5594,4.5594,4.5594,4.5594,4.5594,4.5594,4.5594,4.5594,4.5594,4.5594,4.5594,4.5594,4.5594,4.5594,4.5594,4.5594,4.5594,4.5594,4.554,4.5475,4.515,4.4793,4.4468,4.4219,4.3756,4.3496,4.3513,4.3531,4.3496,4.3513,4.3563,4.3563,4.0496,4.0496,4.0496,4.0496,4.0496,4.0496,4.0496,4.0496,4.0496,4.0496,4.0496,4.0496,4.0496,4.0496,4.0496,4.0496,4.0496,4.0481,4.0063,3.9505,3.9377,3.8911,3.8476,3.8281,3.8203,3.7578,3.6992,3.6953,3.6934,3.6601,3.625,3.6074,3.6016,3.6016,3.6016,3.6016,3.6016,3.6016,3.6016,3.6016,3.6016,3.6016,3.5996,3.5996,3.5996,3.6334,3.685,3.7247,3.7644,3.8443,3.9171,3.955,3.9689,3.9781,3.9961,4.0603,4.0642,4.0596,4.0534,4.0496,4.0496,4.0496,4.0496,4.0631,4.1027,4.2047,4.2951,4.372,4.4556,4.5498,4.5594,4.5594,4.5594,4.5594,4.5594,4.5594,4.5594,4.5594,4.5594,4.5594,4.5594,4.5594,4.5594,4.5594,4.5594,4.5594,4.5594,4.5594,4.5594,4.5594,4.5594,4.5594,4.5594,4.5594,4.5594,4.5594,4.5594,4.5568,4.5577,4.554,4.5531,4.5429,4.5293,4.5063,4.472,4.4373,4.4046,4.3695,4.3513,4.3496,4.3479,4.3479,4.3479,4.3479,4.3479,4.0496,4.0496,4.0496,4.0496,4.0496,4.0496,4.0496,4.0496,4.0496,4.0496,4.0496,4.0496,4.0496,4.0496,4.0496,4.0496,4.0496,4.0473,4.0224,3.9768,3.9688,3.9348,3.9004,3.8945,3.9004,3.916,3.8574,3.8008,3.7441,3.7129,3.6601,3.6152,3.6016,3.6016,3.6016,3.6016,3.6016,3.6016,3.6016,3.6016,3.6016,3.5996,3.6035,3.604,3.6074,3.6493,3.7121,3.7698,3.834,3.9174,3.9907,4.0219,4.0267,4.0274,4.0388,4.0501,4.0571,4.053,4.0504,4.0496,4.0496,4.0496,4.0496,4.0912,4.1546,4.2489,4.3335,4.4182,4.4902,4.5594,4.5594,4.5594,4.5594,4.5594,4.5594,4.5594,4.5594,4.5594,4.5594,4.5594,4.5594,4.5586,4.5586,4.5549,4.5531,4.5549,4.5594,4.5594,4.5594,4.5594,4.5594,4.5594,4.5594,4.5594,4.5594,4.5594,4.5586,4.5513,4.5504,4.5448,4.5391,4.5263,4.5066,4.4757,4.454,4.4261,4.3927,4.3614,4.3531,4.3496,4.3479,4.3479,4.3479,4.3479,4.3479,4.0496,4.0496,4.0496,4.0496,4.0496,4.0496,4.0496,4.0496,4.0496,4.0496,4.0496,4.0496,4.0496,4.0496,4.0496,4.0496,4.0496,4.0496,4.0391,4.0211,4.0182,4.0187,3.9882,3.9883,4.0156,4.0371,4.0078,3.916,3.8027,3.748,3.6875,3.6211,3.6016,3.6016,3.6016,3.6016,3.6016,3.6016,3.6016,3.6016,3.6035,3.6035,3.6133,3.6458,3.6612,3.7113,3.8107,3.8509,3.9154,3.9849,4.0311,4.0466,4.0496,4.0496,4.0496,4.0496,4.0496,4.0496,4.0496,4.0496,4.0496,4.0496,4.0516,4.0912,4.1739,4.2604,4.3662,4.469,4.5171,4.5594,4.5594,4.5594,4.5594,4.5594,4.5594,4.5594,4.5594,4.5594,4.5594,4.5568,4.5419,4.5419,4.554,4.5522,4.5466,4.5485,4.5586,4.5594,4.5594,4.5594,4.5594,4.5594,4.5594,4.5594,4.5577,4.5522,4.5485,4.5429,4.5332,4.5283,4.515,4.4966,4.4676,4.4346,4.4161,4.4046,4.382,4.3513,4.3496,4.3479,4.3479,4.3479,4.3479,4.3479,4.3479,4.0496,4.0496,4.0496,4.0496,4.0496,4.0496,4.0496,4.0496,4.0496,4.0496,4.0496,4.0496,4.0496,4.0496,4.0496,4.0496,4.0496,4.0496,4.0572,4.068,4.0711,4.0869,4.1084,4.1191,4.1094,4.0976,4.0996,4.0273,3.8691,3.7969,3.7051,3.6269,3.6016,3.6016,3.6016,3.6016,3.6016,3.6016,3.6016,3.6035,3.6211,3.6289,3.6614,3.7253,3.7342,3.7964,3.9023,3.9212,3.9656,4.0176,4.0477,4.0496,4.0496,4.0496,4.0496,4.0496,4.0496,4.0496,4.0496,4.0496,4.0496,4.0496,4.0708,4.1239,4.2143,4.322,4.4259,4.5306,4.5594,4.5594,4.5594,4.5594,4.5594,4.5594,4.5594,4.5594,4.5594,4.5594,4.5594,4.5475,4.5253,4.5283,4.5485,4.554,4.5513,4.5522,4.5594,4.5594,4.5594,4.5594,4.5594,4.5594,4.5594,4.5594,4.5559,4.5457,4.5371,4.5232,4.5085,4.4954,4.4769,4.458,4.4308,4.4058,4.3912,4.3788,4.3597,4.3479,4.3479,4.3479,4.3479,4.3479,4.3479,4.3479,4.3479,4.0496,4.0496,4.0496,4.0496,4.0496,4.0504,4.0496,4.0496,4.0496,4.0496,4.0496,4.0496,4.0496,4.0496,4.0496,4.0496,4.0496,4.0512,4.0602,4.071,4.0766,4.0867,4.1026,4.1169,4.1172,4.1191,4.1191,4.0176,3.9062,3.8555,3.7617,3.6523,3.623,3.6055,3.6191,3.6055,3.6016,3.6016,3.6016,3.6367,3.6953,3.7051,3.7441,3.7965,3.8205,3.8548,3.9341,3.9497,3.9788,4.0377,4.0496,4.0496,4.0496,4.0496,4.0496,4.0496,4.0496,4.0496,4.0496,4.0496,4.0496,4.0623,4.1027,4.197,4.2874,4.4143,4.5171,4.5441,4.5594,4.5594,4.5594,4.5594,4.5594,4.5594,4.5594,4.5594,4.5594,4.5594,4.5594,4.5531,4.5352,4.5391,4.5531,4.554,4.5568,4.5586,4.5594,4.5594,4.5594,4.5594,4.5594,4.5594,4.5594,4.5594,4.5513,4.541,4.5191,4.5052,4.4806,4.4606,4.4378,4.4198,4.4121,4.3893,4.3724,4.3543,4.3373,4.3339,4.3444,4.3444,4.3391,4.3444,4.3479,4.3479,4.3462,4.0496,4.0504,4.0595,4.0574,4.0512,4.0568,4.0574,4.0512,4.0496,4.0496,4.0496,4.0496,4.0496,4.0496,4.0496,4.0496,4.0496,4.0496,4.0581,4.0687,4.0742,4.0836,4.0983,4.1074,4.1105,4.1172,4.1094,4.0625,3.9648,3.9238,3.8633,3.7578,3.6973,3.6777,3.6641,3.625,3.6055,3.6016,3.6074,3.6465,3.707,3.7402,3.7874,3.896,3.9007,3.9372,3.9783,3.9996,4.0112,4.0496,4.0496,4.0496,4.0496,4.0496,4.0496,4.0496,4.0496,4.0496,4.0496,4.0496,4.0496,4.0554,4.0969,4.1585,4.3008,4.4556,4.5594,4.5594,4.5594,4.5594,4.5594,4.5594,4.5594,4.5594,4.5594,4.5594,4.5594,4.5594,4.5586,4.5522,4.5475,4.5522,4.5522,4.5467,4.5504,4.5586,4.5594,4.5594,4.5594,4.5594,4.5594,4.5594,4.5594,4.5594,4.5466,4.5352,4.5,4.4781,4.4428,4.4209,4.3977,4.3807,4.3772,4.3724,4.3579,4.3409,4.316,4.3196,4.3321,4.3303,4.3286,4.3123,4.3014,4.341,4.341,4.0496,4.0512,4.0649,4.0623,4.0519,4.0649,4.0623,4.0504,4.0496,4.0496,4.0496,4.0496,4.0496,4.0496,4.0496,4.0496,4.0496,4.0496,4.0559,4.061,4.0703,4.0801,4.0896,4.0969,4.1073,4.115,4.1191,4.082,4.0469,4.0098,3.9668,3.8633,3.7539,3.7461,3.7363,3.6934,3.6543,3.6875,3.6855,3.7285,3.793,3.8027,3.8752,3.9474,3.993,4.0079,4.0422,4.0477,4.0477,4.0496,4.0496,4.0496,4.0496,4.0496,4.0496,4.0496,4.0496,4.0496,4.0496,4.0496,4.0496,4.0631,4.1227,4.222,4.3682,4.4998,4.5594,4.5594,4.5594,4.5594,4.5594,4.5594,4.5594,4.5594,4.5594,4.5594,4.5594,4.5594,4.5594,4.5577,4.554,4.5549,4.5513,4.5381,4.541,4.5559,4.5594,4.5594,4.5594,4.5594,4.5586,4.5568,4.5438,4.5419,4.5293,4.514,4.4818,4.4527,4.4165,4.3896,4.3728,4.358,4.3512,4.3462,4.3375,4.2977,4.2599,4.2884,4.3142,4.2829,4.2562,4.2426,4.2485,4.294,4.3339,4.0496,4.0512,4.0649,4.0604,4.0512,4.0649,4.0623,4.0496,4.0496,4.0496,4.0496,4.0496,4.0496,4.0496,4.0496,4.0496,4.0496,4.0496,4.05,4.0566,4.0643,4.0709,4.0795,4.0887,4.0996,4.1033,4.1133,4.1152,4.1074,4.0859,4.0,3.875,3.8203,3.8105,3.8008,3.7715,3.7559,3.7891,3.8027,3.8555,3.916,3.9444,3.9787,4.0361,4.0611,4.0597,4.0512,4.0496,4.0496,4.0496,4.0496,4.0496,4.0496,4.0496,4.0496,4.0496,4.0496,4.0496,4.0496,4.0496,4.0516,4.0958,4.1843,4.3181,4.4566,4.5229,4.5594,4.5594,4.5594,4.5594,4.5594,4.5594,4.5594,4.5594,4.5594,4.5594,4.5594,4.5594,4.5594,4.5594,4.5594,4.5594,4.5594,4.5476,4.5429,4.5577,4.5594,4.5594,4.5594,4.5594,4.5568,4.5495,4.5263,4.515,4.5033,4.4793,4.4428,4.4175,4.3912,4.3726,4.3546,4.3427,4.3392,4.3087,4.2939,4.2482,4.2083,4.2246,4.2248,4.2003,4.1877,4.1982,4.2103,4.2424,4.294,4.0496,4.0512,4.063,4.0623,4.0512,4.0649,4.063,4.0512,4.0496,4.0496,4.0496,4.0496,4.0496,4.0496,4.0496,4.0496,4.0496,4.0496,4.0496,4.0512,4.0559,4.0623,4.0704,4.0796,4.0917,4.0998,4.1113,4.1191,4.1172,4.1191,4.0957,4.0059,3.9219,3.916,3.9062,3.8633,3.8496,3.8516,3.873,3.9062,3.9687,3.988,4.0123,4.0708,4.0773,4.0665,4.0537,4.0504,4.0496,4.0496,4.0496,4.0496,4.0496,4.0496,4.0496,4.0496,4.0496,4.0496,4.0496,4.0554,4.0727,4.147,4.2431,4.3624,4.4893,4.5267,4.5537,4.5594,4.5594,4.5594,4.5594,4.5594,4.5594,4.5594,4.5594,4.5594,4.5594,4.5594,4.5594,4.5594,4.5594,4.5594,4.5594,4.5586,4.5577,4.5594,4.5594,4.5594,4.5586,4.5522,4.5476,4.5303,4.5066,4.4865,4.4757,4.4401,4.4016,4.3849,4.3693,4.3579,4.3479,4.3479,4.3375,4.2976,4.25,4.2121,4.1793,4.1582,4.1429,4.1313,4.1512,4.1832,4.1937,4.1997,4.2384,4.0496,4.0512,4.0615,4.0602,4.0508,4.063,4.061,4.0512,4.0496,4.0496,4.0496,4.0496,4.0496,4.0496,4.0496,4.0496,4.0496,4.0496,4.0496,4.0504,4.0527,4.0559,4.0648,4.0757,4.086,4.0964,4.1113,4.1191,4.1191,4.1191,4.1094,4.0898,4.0644,4.0332,4.0137,3.9746,3.9355,3.9375,3.9453,3.959,4.0273,4.0242,4.0297,4.0731,4.0718,4.0641,4.0537,4.0496,4.0496,4.0496,4.0496,4.0496,4.0496,4.0496,4.0496,4.0496,4.0496,4.0496,4.0496,4.0573,4.1054,4.2085,4.2624,4.3624,4.4528,4.524,4.5556,4.5594,4.5594,4.5594,4.5586,4.5594,4.5594,4.5594,4.5594,4.5594,4.5594,4.5594,4.5594,4.5594,4.5594,4.5594,4.5594,4.5586,4.5577,4.5577,4.5594,4.5586,4.5568,4.5476,4.5312,4.5118,4.4842,4.4638,4.4441,4.4076,4.3772,4.3726,4.3579,4.3546,4.3479,4.3479,4.3123,4.2501,4.208,4.1746,4.1353,4.0938,4.0774,4.0679,4.0961,4.1236,4.1446,4.1512,4.1832,4.0496,4.0496,4.0504,4.0504,4.0519,4.0649,4.0623,4.0504,4.0496,4.0496,4.0496,4.0496,4.0496,4.0496,4.0496,4.0496,4.0496,4.0496,4.0496,4.0496,4.0496,4.0492,4.0571,4.0682,4.0832,4.0887,4.1055,4.1191,4.1191,4.1191,4.1191,4.1191,4.1035,4.0996,4.1133,4.1133,4.1094,4.1094,4.0976,4.0957,4.0918,4.0781,4.076,4.0738,4.0676,4.0582,4.0508,4.0496,4.0496,4.0496,4.0496,4.0496,4.0496,4.0496,4.0496,4.0496,4.0496,4.0496,4.0496,4.0496,4.1316,4.2566,4.3047,4.3742,4.5019,4.5549,4.5522,4.5466,4.5513,4.5549,4.5586,4.5594,4.5594,4.5594,4.5594,4.5594,4.5594,4.5594,4.5594,4.5594,4.5594,4.5594,4.5586,4.5586,4.5559,4.5559,4.5586,4.5568,4.5504,4.5381,4.518,4.4806,4.4521,4.4304,4.4061,4.3775,4.3565,4.3531,4.3513,4.3496,4.3479,4.3479,4.2959,4.2162,4.1789,4.1617,4.0908,4.0171,4.0262,4.0368,4.0262,4.0466,4.0726,4.1064,4.1402,4.0496,4.0496,4.0496,4.0496,4.0504,4.0545,4.0549,4.0504,4.0496,4.0496,4.0496,4.0496,4.0496,4.0496,4.0496,4.0496,4.0496,4.0496,4.0496,4.0496,4.0496,4.0496,4.0556,4.0676,4.0793,4.087,4.1055,4.1191,4.1191,4.1191,4.1191,4.1191,4.1191,4.1191,4.1191,4.1191,4.1191,4.1191,4.1172,4.1172,4.1172,4.1023,4.0893,4.0813,4.0684,4.0588,4.0504,4.0496,4.0496,4.0496,4.0496,4.0496,4.0496,4.0496,4.0496,4.0496,4.0496,4.0496,4.0496,4.0631,4.1335,4.2431,4.3181,4.3775,4.4997,4.5225,4.5263,4.5292,4.5312,4.54,4.5522,4.5586,4.5594,4.5594,4.5594,4.5594,4.5594,4.5594,4.5594,4.5594,4.5594,4.5577,4.5568,4.5419,4.5352,4.5342,4.5352,4.5303,4.5243,4.515,4.4977,4.4495,4.4132,4.3943,4.371,4.3563,4.3496,4.3496,4.3496,4.3496,4.3479,4.3479,4.294,4.2203,4.1853,4.1486,4.072,4.0146,4.0096,4.0096,4.0113,4.0096,4.0343,4.0703,4.1018,4.0496,4.0496,4.0496,4.0496,4.0496,4.0496,4.0496,4.0496,4.0496,4.0496,4.0496,4.0496,4.0496,4.0496,4.0496,4.0496,4.0496,4.0496,4.0496,4.0496,4.0496,4.0496,4.0556,4.0687,4.0781,4.0874,4.1035,4.1191,4.1191,4.1191,4.1191,4.1191,4.1191,4.1191,4.1191,4.1191,4.1191,4.1191,4.1191,4.1172,4.1103,4.0988,4.0877,4.0776,4.0672,4.0588,4.0527,4.0496,4.0496,4.0496,4.0496,4.0496,4.0496,4.0496,4.0496,4.0496,4.0496,4.0496,4.0496,4.0496,4.1239,4.2354,4.2835,4.3578,4.4512,4.49,4.508,4.5137,4.5115,4.5302,4.5513,4.5577,4.5594,4.5594,4.5594,4.5594,4.5594,4.5594,4.5577,4.5577,4.5522,4.5513,4.5429,4.5263,4.5118,4.5107,4.5096,4.5011,4.4924,4.4799,4.4676,4.4261,4.3896,4.3726,4.3612,4.3529,4.3496,4.3479,4.3479,4.3479,4.3479,4.3462,4.2865,4.2324,4.1979,4.1486,4.0642,4.0179,4.0262,4.0204,4.0113,4.0096,4.0096,4.0449,4.0856,4.0496,4.0496,4.0496,4.0496,4.0496,4.0496,4.0496,4.0496,4.0496,4.0496,4.0496,4.0496,4.0496,4.0496,4.0496,4.0496,4.0496,4.0496,4.0496,4.0496,4.0496,4.0496,4.0563,4.0692,4.0777,4.088,4.1035,4.1191,4.1191,4.1191,4.1191,4.1191,4.1191,4.1191,4.1191,4.1191,4.1191,4.1191,4.1191,4.1152,4.1051,4.0905,4.0816,4.071,4.061,4.053,4.0496,4.0496,4.0496,4.0496,4.0496,4.0496,4.0496,4.0496,4.0496,4.0496,4.0496,4.0496,4.0496,4.0496,4.0804,4.1739,4.2508,4.3167,4.3864,4.4514,4.4791,4.502,4.5126,4.5322,4.5522,4.5549,4.5594,4.5594,4.5594,4.5594,4.5594,4.5586,4.5549,4.5513,4.5438,4.5342,4.5118,4.4954,4.4757,4.4625,4.4561,4.4455,4.4387,4.4341,4.4219,4.4046,4.3742,4.3563,4.3479,4.3479,4.3479,4.3479,4.3479,4.3479,4.3479,4.3444,4.3032,4.258,4.2142,4.1464,4.0538,4.0336,4.0528,4.04,4.0146,4.0279,4.0336,4.0577,4.0949,4.0496,4.0496,4.0496,4.0496,4.0496,4.0496,4.0496,4.0496,4.0496,4.0496,4.0496,4.0496,4.0496,4.0496,4.0496,4.0496,4.0496,4.0496,4.0496,4.0512,4.0537,4.0512,4.0584,4.0703,4.0777,4.0902,4.1035,4.1191,4.1191,4.1191,4.1191,4.1191,4.1191,4.1191,4.1191,4.1191,4.1191,4.1191,4.1191,4.1113,4.0994,4.0864,4.0776,4.0666,4.0574,4.0512,4.0496,4.0496,4.0496,4.0496,4.0496,4.0496,4.0496,4.0496,4.0496,4.0496,4.0496,4.0496,4.0496,4.0496,4.065,4.1027,4.172,4.2754,4.3482,4.4048,4.4448,4.4723,4.5069,4.5292,4.5457,4.5531,4.5522,4.5504,4.5485,4.5419,4.5419,4.5419,4.5371,4.5243,4.5161,4.4988,4.4769,4.4535,4.4332,4.4161,4.4031,4.3958,4.3927,4.3909,4.3881,4.3742,4.3662,4.3513,4.3479,4.3479,4.3479,4.3479,4.3479,4.3479,4.3479,4.341,4.3178,4.2789,4.2244,4.1353,4.0353,4.0392,4.0703,4.0368,4.0121,4.036,4.0577,4.085,4.1133,4.0496,4.0504,4.0559,4.0588,4.0574,4.0527,4.0496,4.0496,4.0496,4.0496,4.0496,4.0496,4.0496,4.0496,4.0496,4.0515,4.0575,4.0589,4.0597,4.0647,4.0617,4.0635,4.0682,4.0779,4.0883,4.0959,4.1055,4.1191,4.1191,4.1191,4.1191,4.1191,4.1191,4.1191,4.1191,4.1191,4.1191,4.1191,4.1172,4.1074,4.0962,4.085,4.0757,4.0623,4.053,4.0512,4.0496,4.0496,4.0496,4.0496,4.0496,4.0496,4.0496,4.0496,4.0496,4.0496,4.0496,4.0496,4.0496,4.0496,4.0496,4.0631,4.1027,4.178,4.2747,4.3452,4.3965,4.438,4.4832,4.5201,4.5381,4.5495,4.5438,4.539,4.5283,4.5201,4.5171,4.5171,4.5074,4.4908,4.4745,4.4561,4.4359,4.4117,4.3924,4.382,4.3742,4.3677,4.3679,4.3693,4.3695,4.3597,4.3565,4.3479,4.3479,4.3479,4.3479,4.3479,4.3479,4.3479,4.3479,4.3356,4.3142,4.2752,4.2284,4.1375,4.0466,4.0618,4.0774,4.0392,4.0146,4.0343,4.0679,4.1155,4.1451,4.0485,4.0523,4.0655,4.0703,4.0674,4.0581,4.0519,4.0496,4.0496,4.0496,4.0496,4.0496,4.0496,4.0496,4.0496,4.0552,4.061,4.0636,4.069,4.08,4.077,4.0746,4.0785,4.092,4.0955,4.1026,4.1113,4.1191,4.1191,4.1191,4.1191,4.1191,4.1191,4.1191,4.1191,4.1191,4.1191,4.1191,4.1172,4.1103,4.0914,4.0809,4.0718,4.0575,4.0519,4.0496,4.0496,4.0496,4.0496,4.0496,4.0496,4.0496,4.0496,4.0496,4.0496,4.0496,4.0496,4.0496,4.0496,4.0496,4.0496,4.0496,4.0527,4.105,4.188,4.3025,4.3665,4.4306,4.4805,4.5166,4.5371,4.5312,4.5232,4.5096,4.4966,4.4896,4.4865,4.4806,4.4625,4.4468,4.4337,4.4165,4.405,4.382,4.3772,4.3597,4.3531,4.3496,4.3496,4.3529,4.3531,4.3515,4.3515,4.3479,4.3479,4.3479,4.3479,4.3479,4.3479,4.3479,4.3479,4.3321,4.3105,4.2752,4.2362,4.1573,4.0914,4.092,4.0726,4.0311,4.0179,4.0343,4.0726,4.1201,4.1729,4.0566,4.0655,4.0747,4.0767,4.0703,4.0661,4.0582,4.0496,4.0496,4.0496,4.0496,4.0496,4.0496,4.0496,4.0496,4.0549,4.0581,4.0667,4.0696,4.0757,4.0792,4.0854,4.0847,4.0962,4.0998,4.1049,4.1113,4.1191,4.1191,4.1191,4.1191,4.1191,4.1191,4.1191,4.1191,4.1191,4.1191,4.1191,4.1191,4.1113,4.0959,4.0839,4.0743,4.0629,4.0575,4.0504,4.0496,4.0496,4.0496,4.0496,4.0496,4.0496,4.0496,4.0496,4.0496,4.0496,4.0496,4.0496,4.0496,4.0496,4.0496,4.0496,4.0516,4.0631,4.1253,4.2518,4.3509,4.4181,4.47,4.5055,4.5282,4.515,4.4988,4.4825,4.4612,4.4567,4.4527,4.4346,4.418,4.4065,4.3915,4.3823,4.3695,4.3612,4.3563,4.3548,4.3513,4.3479,4.3479,4.3513,4.3513,4.3496,4.3496,4.3479,4.3479,4.3479,4.3479,4.3479,4.3479,4.3479,4.3479,4.3374,4.3232,4.2884,4.244,4.1617,4.1036,4.0897,4.0655,4.0254,4.0146,4.0286,4.0521,4.0938,4.1639,4.026,4.067,4.077,4.0784,4.0752,4.0707,4.063,4.0519,4.0496,4.0496,4.0496,4.0496,4.0496,4.0496,4.0496,4.0537,4.0588,4.0655,4.0772,4.0828,4.0839,4.0944,4.0996,4.1035,4.108,4.1113,4.1152,4.1191,4.1191,4.1191,4.1191,4.1191,4.1191,4.1191,4.1191,4.1191,4.1191,4.1191,4.1191,4.1113,4.0975,4.0867,4.0761,4.0684,4.0582,4.0519,4.0496,4.0496,4.0496,4.0496,4.0496,4.0496,4.0496,4.0496,4.0496,4.0496,4.0496,4.0496,4.0496,4.0496,4.0496,4.0496,4.0496,4.0593,4.0881,4.2091,4.3129,4.3793,4.435,4.4737,4.5159,4.518,4.4896,4.4688,4.427,4.3992,4.3977,4.3884,4.3788,4.3758,4.3662,4.3647,4.3563,4.3563,4.3513,4.3513,4.3496,4.3479,4.3479,4.3479,4.3479,4.3479,4.3479,4.3479,4.3479,4.3479,4.3479,4.3479,4.3479,4.3479,4.3479,4.3462,4.3357,4.2808,4.2221,4.1573,4.1105,4.0803,4.0552,4.0179,4.0146,4.0204,4.049,4.0838,4.1617,3.9675,4.051,4.0638,4.0742,4.0785,4.0747,4.063,4.0519,4.0496,4.0496,4.0496,4.0496,4.0496,4.0496,4.0504,4.0575,4.0636,4.0674,4.0805,4.0899,4.0959,4.1026,4.1113,4.1172,4.1172,4.1172,4.1191,4.1191,4.1191,4.1191,4.1191,4.1191,4.1191,4.1191,4.1191,4.1191,4.1191,4.1152,4.1113,4.1074,4.0966,4.0864,4.0781,4.0684,4.0568,4.0504,4.0496,4.0496,4.0496,4.0496,4.0496,4.0496,4.0496,4.0496,4.0496,4.0496,4.0496,4.0496,4.0496,4.0496,4.0496,4.0496,4.0496,4.0631,4.09,4.1497,4.2527,4.3451,4.4008,4.462,4.5045,4.5074,4.4788,4.4452,4.3946,4.3565,4.3548,4.3548,4.3531,4.3513,4.3513,4.3479,4.3479,4.3479,4.3479,4.3479,4.3479,4.3479,4.3479,4.3479,4.3479,4.3479,4.3479,4.3479,4.3479,4.3479,4.3479,4.3479,4.3479,4.3479,4.3479,4.3479,4.316,4.2442,4.1832,4.142,4.0868,4.0449,4.0212,4.0096,4.0121,4.0229,4.0672,4.1082,4.1746,3.8858,3.9817,3.9989,4.0333,4.0731,4.0753,4.0674,4.0527,4.0496,4.0496,4.0496,4.0496,4.0496,4.0496,4.0496,4.053,4.0554,4.0623,4.0742,4.0832,4.0944,4.1056,4.1152,4.1191,4.1191,4.1191,4.1191,4.1191,4.1191,4.1191,4.1191,4.1191,4.1191,4.1191,4.1191,4.1191,4.1149,4.1083,4.1025,4.0964,4.0893,4.0805,4.0757,4.0665,4.0561,4.0508,4.0496,4.0496,4.0496,4.0496,4.0496,4.0496,4.0496,4.0496,4.0496,4.0496,4.0496,4.0496,4.0496,4.0496,4.0496,4.0496,4.0496,4.0516,4.0708,4.0823,4.197,4.3297,4.3983,4.4833,4.5195,4.4889,4.4599,4.4184,4.3728,4.358,4.3513,4.3513,4.3496,4.3496,4.3496,4.3479,4.3479,4.3479,4.3479,4.3479,4.3479,4.3479,4.3479,4.3479,4.3479,4.3479,4.3479,4.3479,4.3479,4.3479,4.3479,4.3479,4.3479,4.3479,4.3479,4.3479,4.3069,4.2304,4.1832,4.1446,4.0891,4.0229,4.0154,4.0096,4.0096,4.0254,4.075,4.1335,4.2021]}]]